<?xml version="1.0" encoding="UTF-8" standalone="no" ?>
<gpx xmlns="http://www.topografix.com/GPX/1/1" xmlns:xsi="http://www.w3.org/2001/XMLSchema-instance" xsi:schemaLocation="http://www.topografix.com/GPX/1/1 http://www.topografix.com/GPX/1/1/gpx.xsd" version="1.1" creator="VisuGPX - https://www.visugpx.com">
  <metadata>
    <name>Randonnée Auzouville sur Ry</name>
    <desc><![CDATA[Circuit au départ de Auzouville sur Ry en passant par Ry]]></desc>
  </metadata>
  <trk>
    <name><![CDATA[Randonnée Auzouville sur Ry_1]]></name>
    <trkseg>
      <trkpt lat="49.44278" lon="1.31083">
        <ele>146</ele>
        <time>2017-03-28T13:52:54Z</time>
      </trkpt>
      <trkpt lat="49.44268" lon="1.31093">
        <ele>146</ele>
        <time>2017-03-28T13:52:54Z</time>
      </trkpt>
      <trkpt lat="49.44309" lon="1.31097">
        <ele>145</ele>
        <time>2017-03-28T13:52:54Z</time>
      </trkpt>
      <trkpt lat="49.44266" lon="1.31033">
        <ele>146</ele>
        <time>2017-03-28T13:52:54Z</time>
      </trkpt>
      <trkpt lat="49.44277" lon="1.31068">
        <ele>146</ele>
        <time>2017-03-28T13:53:18Z</time>
      </trkpt>
      <trkpt lat="49.44271" lon="1.3105">
        <ele>146</ele>
        <time>2017-03-28T13:53:18Z</time>
      </trkpt>
      <trkpt lat="49.44272" lon="1.31043">
        <ele>146</ele>
        <time>2017-03-28T13:53:18Z</time>
      </trkpt>
      <trkpt lat="49.44263" lon="1.3104">
        <ele>146</ele>
        <time>2017-03-28T13:53:18Z</time>
      </trkpt>
      <trkpt lat="49.44257" lon="1.31041">
        <ele>146</ele>
        <time>2017-03-28T13:53:54Z</time>
      </trkpt>
      <trkpt lat="49.44256" lon="1.31038">
        <ele>146</ele>
        <time>2017-03-28T13:53:54Z</time>
      </trkpt>
      <trkpt lat="49.44251" lon="1.31038">
        <ele>146</ele>
        <time>2017-03-28T13:53:54Z</time>
      </trkpt>
      <trkpt lat="49.44236" lon="1.3104">
        <ele>146</ele>
        <time>2017-03-28T13:53:54Z</time>
      </trkpt>
      <trkpt lat="49.44251" lon="1.31043">
        <ele>146</ele>
        <time>2017-03-28T13:54:34Z</time>
      </trkpt>
      <trkpt lat="49.44251" lon="1.31043">
        <ele>146</ele>
        <time>2017-03-28T13:54:34Z</time>
      </trkpt>
      <trkpt lat="49.44253" lon="1.31045">
        <ele>146</ele>
        <time>2017-03-28T13:54:34Z</time>
      </trkpt>
      <trkpt lat="49.44256" lon="1.31046">
        <ele>146</ele>
        <time>2017-03-28T13:54:34Z</time>
      </trkpt>
      <trkpt lat="49.44257" lon="1.31047">
        <ele>146</ele>
        <time>2017-03-28T13:54:34Z</time>
      </trkpt>
      <trkpt lat="49.44258" lon="1.3105">
        <ele>146</ele>
        <time>2017-03-28T13:54:56Z</time>
      </trkpt>
      <trkpt lat="49.44262" lon="1.31053">
        <ele>146</ele>
        <time>2017-03-28T13:54:56Z</time>
      </trkpt>
      <trkpt lat="49.44261" lon="1.31061">
        <ele>146</ele>
        <time>2017-03-28T13:54:56Z</time>
      </trkpt>
      <trkpt lat="49.44259" lon="1.31063">
        <ele>146</ele>
        <time>2017-03-28T13:54:56Z</time>
      </trkpt>
      <trkpt lat="49.4426" lon="1.31066">
        <ele>146</ele>
        <time>2017-03-28T13:54:56Z</time>
      </trkpt>
      <trkpt lat="49.44262" lon="1.31067">
        <ele>146</ele>
        <time>2017-03-28T13:55:22Z</time>
      </trkpt>
      <trkpt lat="49.44262" lon="1.31066">
        <ele>146</ele>
        <time>2017-03-28T13:55:22Z</time>
      </trkpt>
      <trkpt lat="49.44267" lon="1.31068">
        <ele>146</ele>
        <time>2017-03-28T13:55:22Z</time>
      </trkpt>
      <trkpt lat="49.44279" lon="1.31071">
        <ele>146</ele>
        <time>2017-03-28T13:55:22Z</time>
      </trkpt>
      <trkpt lat="49.44287" lon="1.31079">
        <ele>146</ele>
        <time>2017-03-28T13:55:22Z</time>
      </trkpt>
      <trkpt lat="49.44294" lon="1.31082">
        <ele>145</ele>
        <time>2017-03-28T13:55:39Z</time>
      </trkpt>
      <trkpt lat="49.44297" lon="1.31083">
        <ele>145</ele>
        <time>2017-03-28T13:55:39Z</time>
      </trkpt>
      <trkpt lat="49.44301" lon="1.31085">
        <ele>145</ele>
        <time>2017-03-28T13:55:39Z</time>
      </trkpt>
      <trkpt lat="49.44306" lon="1.31086">
        <ele>145</ele>
        <time>2017-03-28T13:55:39Z</time>
      </trkpt>
      <trkpt lat="49.44311" lon="1.31088">
        <ele>145</ele>
        <time>2017-03-28T13:55:55Z</time>
      </trkpt>
      <trkpt lat="49.44315" lon="1.3109">
        <ele>145</ele>
        <time>2017-03-28T13:55:55Z</time>
      </trkpt>
      <trkpt lat="49.44319" lon="1.31092">
        <ele>145</ele>
        <time>2017-03-28T13:55:55Z</time>
      </trkpt>
      <trkpt lat="49.44322" lon="1.31094">
        <ele>145</ele>
        <time>2017-03-28T13:55:55Z</time>
      </trkpt>
      <trkpt lat="49.44327" lon="1.31099">
        <ele>145</ele>
        <time>2017-03-28T13:56:11Z</time>
      </trkpt>
      <trkpt lat="49.4433" lon="1.31103">
        <ele>145</ele>
        <time>2017-03-28T13:56:11Z</time>
      </trkpt>
      <trkpt lat="49.44334" lon="1.31108">
        <ele>145</ele>
        <time>2017-03-28T13:56:11Z</time>
      </trkpt>
      <trkpt lat="49.44337" lon="1.31112">
        <ele>145</ele>
        <time>2017-03-28T13:56:11Z</time>
      </trkpt>
      <trkpt lat="49.4434" lon="1.31117">
        <ele>145</ele>
        <time>2017-03-28T13:56:28Z</time>
      </trkpt>
      <trkpt lat="49.44343" lon="1.31118">
        <ele>145</ele>
        <time>2017-03-28T13:56:28Z</time>
      </trkpt>
      <trkpt lat="49.44349" lon="1.31126">
        <ele>145</ele>
        <time>2017-03-28T13:56:28Z</time>
      </trkpt>
      <trkpt lat="49.44353" lon="1.31131">
        <ele>145</ele>
        <time>2017-03-28T13:56:28Z</time>
      </trkpt>
      <trkpt lat="49.44356" lon="1.31133">
        <ele>145</ele>
        <time>2017-03-28T13:56:42Z</time>
      </trkpt>
      <trkpt lat="49.4436" lon="1.31136">
        <ele>145</ele>
        <time>2017-03-28T13:56:42Z</time>
      </trkpt>
      <trkpt lat="49.44365" lon="1.31138">
        <ele>145</ele>
        <time>2017-03-28T13:56:42Z</time>
      </trkpt>
      <trkpt lat="49.44369" lon="1.3114">
        <ele>145</ele>
        <time>2017-03-28T13:56:42Z</time>
      </trkpt>
      <trkpt lat="49.44467" lon="1.31175">
        <ele>131</ele>
        <time>2017-03-28T13:58:14Z</time>
      </trkpt>
      <trkpt lat="49.44473" lon="1.31175">
        <ele>131</ele>
        <time>2017-03-28T13:58:14Z</time>
      </trkpt>
      <trkpt lat="49.44477" lon="1.31175">
        <ele>131</ele>
        <time>2017-03-28T13:58:14Z</time>
      </trkpt>
      <trkpt lat="49.44479" lon="1.31176">
        <ele>131</ele>
        <time>2017-03-28T13:58:14Z</time>
      </trkpt>
      <trkpt lat="49.44481" lon="1.31187">
        <ele>131</ele>
        <time>2017-03-28T13:58:31Z</time>
      </trkpt>
      <trkpt lat="49.44486" lon="1.31197">
        <ele>131</ele>
        <time>2017-03-28T13:58:31Z</time>
      </trkpt>
      <trkpt lat="49.4449" lon="1.31198">
        <ele>131</ele>
        <time>2017-03-28T13:58:31Z</time>
      </trkpt>
      <trkpt lat="49.44495" lon="1.31198">
        <ele>131</ele>
        <time>2017-03-28T13:58:31Z</time>
      </trkpt>
      <trkpt lat="49.445" lon="1.312">
        <ele>131</ele>
        <time>2017-03-28T13:58:48Z</time>
      </trkpt>
      <trkpt lat="49.44507" lon="1.31201">
        <ele>131</ele>
        <time>2017-03-28T13:58:48Z</time>
      </trkpt>
      <trkpt lat="49.44513" lon="1.31203">
        <ele>131</ele>
        <time>2017-03-28T13:58:48Z</time>
      </trkpt>
      <trkpt lat="49.44518" lon="1.31209">
        <ele>124</ele>
        <time>2017-03-28T13:58:48Z</time>
      </trkpt>
      <trkpt lat="49.4452" lon="1.31213">
        <ele>124</ele>
        <time>2017-03-28T13:59:03Z</time>
      </trkpt>
      <trkpt lat="49.44524" lon="1.31222">
        <ele>124</ele>
        <time>2017-03-28T13:59:03Z</time>
      </trkpt>
      <trkpt lat="49.44528" lon="1.31228">
        <ele>124</ele>
        <time>2017-03-28T13:59:03Z</time>
      </trkpt>
      <trkpt lat="49.44534" lon="1.31235">
        <ele>124</ele>
        <time>2017-03-28T13:59:03Z</time>
      </trkpt>
      <trkpt lat="49.44538" lon="1.3124">
        <ele>124</ele>
        <time>2017-03-28T13:59:27Z</time>
      </trkpt>
      <trkpt lat="49.44541" lon="1.31243">
        <ele>124</ele>
        <time>2017-03-28T13:59:27Z</time>
      </trkpt>
      <trkpt lat="49.44554" lon="1.31245">
        <ele>123</ele>
        <time>2017-03-28T13:59:27Z</time>
      </trkpt>
      <trkpt lat="49.44559" lon="1.31244">
        <ele>123</ele>
        <time>2017-03-28T13:59:27Z</time>
      </trkpt>
      <trkpt lat="49.44565" lon="1.31243">
        <ele>123</ele>
        <time>2017-03-28T13:59:43Z</time>
      </trkpt>
      <trkpt lat="49.44572" lon="1.31243">
        <ele>123</ele>
        <time>2017-03-28T13:59:43Z</time>
      </trkpt>
      <trkpt lat="49.44574" lon="1.31245">
        <ele>123</ele>
        <time>2017-03-28T13:59:43Z</time>
      </trkpt>
      <trkpt lat="49.4458" lon="1.3125">
        <ele>123</ele>
        <time>2017-03-28T13:59:43Z</time>
      </trkpt>
      <trkpt lat="49.44583" lon="1.31252">
        <ele>123</ele>
        <time>2017-03-28T13:59:58Z</time>
      </trkpt>
      <trkpt lat="49.44588" lon="1.31256">
        <ele>123</ele>
        <time>2017-03-28T13:59:58Z</time>
      </trkpt>
      <trkpt lat="49.44592" lon="1.31262">
        <ele>123</ele>
        <time>2017-03-28T13:59:58Z</time>
      </trkpt>
      <trkpt lat="49.44597" lon="1.31267">
        <ele>123</ele>
        <time>2017-03-28T13:59:58Z</time>
      </trkpt>
      <trkpt lat="49.44604" lon="1.31266">
        <ele>123</ele>
        <time>2017-03-28T14:00:14Z</time>
      </trkpt>
      <trkpt lat="49.4461" lon="1.31264">
        <ele>123</ele>
        <time>2017-03-28T14:00:14Z</time>
      </trkpt>
      <trkpt lat="49.44617" lon="1.31262">
        <ele>123</ele>
        <time>2017-03-28T14:00:14Z</time>
      </trkpt>
      <trkpt lat="49.44621" lon="1.3126">
        <ele>123</ele>
        <time>2017-03-28T14:00:14Z</time>
      </trkpt>
      <trkpt lat="49.44626" lon="1.31258">
        <ele>126</ele>
        <time>2017-03-28T14:00:46Z</time>
      </trkpt>
      <trkpt lat="49.44633" lon="1.31257">
        <ele>126</ele>
        <time>2017-03-28T14:00:46Z</time>
      </trkpt>
      <trkpt lat="49.44653" lon="1.31267">
        <ele>126</ele>
        <time>2017-03-28T14:00:46Z</time>
      </trkpt>
      <trkpt lat="49.44656" lon="1.31268">
        <ele>126</ele>
        <time>2017-03-28T14:00:46Z</time>
      </trkpt>
      <trkpt lat="49.4466" lon="1.31271">
        <ele>126</ele>
        <time>2017-03-28T14:01:06Z</time>
      </trkpt>
      <trkpt lat="49.44664" lon="1.31273">
        <ele>126</ele>
        <time>2017-03-28T14:01:06Z</time>
      </trkpt>
      <trkpt lat="49.44669" lon="1.31274">
        <ele>126</ele>
        <time>2017-03-28T14:01:06Z</time>
      </trkpt>
      <trkpt lat="49.4468" lon="1.31271">
        <ele>126</ele>
        <time>2017-03-28T14:01:06Z</time>
      </trkpt>
      <trkpt lat="49.44934" lon="1.31364">
        <ele>131</ele>
        <time>2017-03-28T14:04:46Z</time>
      </trkpt>
      <trkpt lat="49.44938" lon="1.31348">
        <ele>131</ele>
        <time>2017-03-28T14:04:46Z</time>
      </trkpt>
      <trkpt lat="49.44938" lon="1.31339">
        <ele>131</ele>
        <time>2017-03-28T14:04:46Z</time>
      </trkpt>
      <trkpt lat="49.4494" lon="1.31333">
        <ele>131</ele>
        <time>2017-03-28T14:04:46Z</time>
      </trkpt>
      <trkpt lat="49.44943" lon="1.31327">
        <ele>131</ele>
        <time>2017-03-28T14:06:54Z</time>
      </trkpt>
      <trkpt lat="49.45055" lon="1.31206">
        <ele>134</ele>
        <time>2017-03-28T14:06:54Z</time>
      </trkpt>
      <trkpt lat="49.45055" lon="1.31197">
        <ele>134</ele>
        <time>2017-03-28T14:06:54Z</time>
      </trkpt>
      <trkpt lat="49.45055" lon="1.3119">
        <ele>134</ele>
        <time>2017-03-28T14:06:54Z</time>
      </trkpt>
      <trkpt lat="49.45058" lon="1.31187">
        <ele>134</ele>
        <time>2017-03-28T14:07:10Z</time>
      </trkpt>
      <trkpt lat="49.4506" lon="1.31184">
        <ele>134</ele>
        <time>2017-03-28T14:07:10Z</time>
      </trkpt>
      <trkpt lat="49.45062" lon="1.31176">
        <ele>134</ele>
        <time>2017-03-28T14:07:10Z</time>
      </trkpt>
      <trkpt lat="49.45066" lon="1.31166">
        <ele>134</ele>
        <time>2017-03-28T14:07:10Z</time>
      </trkpt>
      <trkpt lat="49.45069" lon="1.31162">
        <ele>134</ele>
        <time>2017-03-28T14:07:26Z</time>
      </trkpt>
      <trkpt lat="49.45069" lon="1.31155">
        <ele>134</ele>
        <time>2017-03-28T14:07:26Z</time>
      </trkpt>
      <trkpt lat="49.45069" lon="1.31146">
        <ele>134</ele>
        <time>2017-03-28T14:07:26Z</time>
      </trkpt>
      <trkpt lat="49.45068" lon="1.31139">
        <ele>134</ele>
        <time>2017-03-28T14:07:26Z</time>
      </trkpt>
      <trkpt lat="49.45069" lon="1.3113">
        <ele>134</ele>
        <time>2017-03-28T14:07:46Z</time>
      </trkpt>
      <trkpt lat="49.4507" lon="1.31119">
        <ele>133</ele>
        <time>2017-03-28T14:07:46Z</time>
      </trkpt>
      <trkpt lat="49.45068" lon="1.31108">
        <ele>133</ele>
        <time>2017-03-28T14:07:46Z</time>
      </trkpt>
      <trkpt lat="49.4507" lon="1.31101">
        <ele>133</ele>
        <time>2017-03-28T14:07:46Z</time>
      </trkpt>
      <trkpt lat="49.45073" lon="1.31091">
        <ele>133</ele>
        <time>2017-03-28T14:08:02Z</time>
      </trkpt>
      <trkpt lat="49.45077" lon="1.31083">
        <ele>133</ele>
        <time>2017-03-28T14:08:02Z</time>
      </trkpt>
      <trkpt lat="49.45082" lon="1.31077">
        <ele>133</ele>
        <time>2017-03-28T14:08:02Z</time>
      </trkpt>
      <trkpt lat="49.45083" lon="1.3107">
        <ele>133</ele>
        <time>2017-03-28T14:08:02Z</time>
      </trkpt>
      <trkpt lat="49.45099" lon="1.31045">
        <ele>133</ele>
        <time>2017-03-28T14:08:31Z</time>
      </trkpt>
      <trkpt lat="49.45097" lon="1.31036">
        <ele>134</ele>
        <time>2017-03-28T14:08:31Z</time>
      </trkpt>
      <trkpt lat="49.45098" lon="1.31028">
        <ele>134</ele>
        <time>2017-03-28T14:08:31Z</time>
      </trkpt>
      <trkpt lat="49.451" lon="1.31024">
        <ele>134</ele>
        <time>2017-03-28T14:08:31Z</time>
      </trkpt>
      <trkpt lat="49.45102" lon="1.31017">
        <ele>134</ele>
        <time>2017-03-28T14:08:31Z</time>
      </trkpt>
      <trkpt lat="49.45102" lon="1.31014">
        <ele>134</ele>
        <time>2017-03-28T14:08:47Z</time>
      </trkpt>
      <trkpt lat="49.45103" lon="1.31007">
        <ele>134</ele>
        <time>2017-03-28T14:08:47Z</time>
      </trkpt>
      <trkpt lat="49.45108" lon="1.31002">
        <ele>134</ele>
        <time>2017-03-28T14:08:47Z</time>
      </trkpt>
      <trkpt lat="49.45112" lon="1.30996">
        <ele>134</ele>
        <time>2017-03-28T14:08:47Z</time>
      </trkpt>
      <trkpt lat="49.45108" lon="1.30986">
        <ele>134</ele>
        <time>2017-03-28T14:09:02Z</time>
      </trkpt>
      <trkpt lat="49.45107" lon="1.30979">
        <ele>134</ele>
        <time>2017-03-28T14:09:02Z</time>
      </trkpt>
      <trkpt lat="49.45107" lon="1.30971">
        <ele>134</ele>
        <time>2017-03-28T14:09:02Z</time>
      </trkpt>
      <trkpt lat="49.45107" lon="1.30963">
        <ele>134</ele>
        <time>2017-03-28T14:09:02Z</time>
      </trkpt>
      <trkpt lat="49.45109" lon="1.30957">
        <ele>136</ele>
        <time>2017-03-28T14:09:18Z</time>
      </trkpt>
      <trkpt lat="49.45112" lon="1.30951">
        <ele>136</ele>
        <time>2017-03-28T14:09:18Z</time>
      </trkpt>
      <trkpt lat="49.45114" lon="1.30944">
        <ele>136</ele>
        <time>2017-03-28T14:09:18Z</time>
      </trkpt>
      <trkpt lat="49.45117" lon="1.30937">
        <ele>136</ele>
        <time>2017-03-28T14:09:18Z</time>
      </trkpt>
      <trkpt lat="49.45118" lon="1.30932">
        <ele>136</ele>
        <time>2017-03-28T14:09:35Z</time>
      </trkpt>
      <trkpt lat="49.45122" lon="1.30925">
        <ele>136</ele>
        <time>2017-03-28T14:09:35Z</time>
      </trkpt>
      <trkpt lat="49.45123" lon="1.30919">
        <ele>136</ele>
        <time>2017-03-28T14:09:35Z</time>
      </trkpt>
      <trkpt lat="49.45124" lon="1.30911">
        <ele>136</ele>
        <time>2017-03-28T14:09:35Z</time>
      </trkpt>
      <trkpt lat="49.45127" lon="1.30903">
        <ele>137</ele>
        <time>2017-03-28T14:09:51Z</time>
      </trkpt>
      <trkpt lat="49.45129" lon="1.30896">
        <ele>137</ele>
        <time>2017-03-28T14:09:51Z</time>
      </trkpt>
      <trkpt lat="49.45132" lon="1.30888">
        <ele>137</ele>
        <time>2017-03-28T14:09:51Z</time>
      </trkpt>
      <trkpt lat="49.45134" lon="1.30881">
        <ele>137</ele>
        <time>2017-03-28T14:09:51Z</time>
      </trkpt>
      <trkpt lat="49.45135" lon="1.30877">
        <ele>137</ele>
        <time>2017-03-28T14:10:07Z</time>
      </trkpt>
      <trkpt lat="49.45136" lon="1.3087">
        <ele>136</ele>
        <time>2017-03-28T14:10:07Z</time>
      </trkpt>
      <trkpt lat="49.45138" lon="1.30862">
        <ele>136</ele>
        <time>2017-03-28T14:10:07Z</time>
      </trkpt>
      <trkpt lat="49.45139" lon="1.30852">
        <ele>136</ele>
        <time>2017-03-28T14:10:07Z</time>
      </trkpt>
      <trkpt lat="49.45139" lon="1.30847">
        <ele>136</ele>
        <time>2017-03-28T14:10:22Z</time>
      </trkpt>
      <trkpt lat="49.4514" lon="1.30841">
        <ele>136</ele>
        <time>2017-03-28T14:10:22Z</time>
      </trkpt>
      <trkpt lat="49.4514" lon="1.30834">
        <ele>136</ele>
        <time>2017-03-28T14:10:22Z</time>
      </trkpt>
      <trkpt lat="49.45141" lon="1.30826">
        <ele>136</ele>
        <time>2017-03-28T14:10:22Z</time>
      </trkpt>
      <trkpt lat="49.45142" lon="1.30818">
        <ele>136</ele>
        <time>2017-03-28T14:10:40Z</time>
      </trkpt>
      <trkpt lat="49.45144" lon="1.3081">
        <ele>136</ele>
        <time>2017-03-28T14:10:40Z</time>
      </trkpt>
      <trkpt lat="49.45146" lon="1.30804">
        <ele>136</ele>
        <time>2017-03-28T14:10:40Z</time>
      </trkpt>
      <trkpt lat="49.45146" lon="1.30794">
        <ele>136</ele>
        <time>2017-03-28T14:10:40Z</time>
      </trkpt>
      <trkpt lat="49.45146" lon="1.30787">
        <ele>138</ele>
        <time>2017-03-28T14:10:56Z</time>
      </trkpt>
      <trkpt lat="49.45149" lon="1.30778">
        <ele>138</ele>
        <time>2017-03-28T14:10:56Z</time>
      </trkpt>
      <trkpt lat="49.4515" lon="1.3077">
        <ele>138</ele>
        <time>2017-03-28T14:10:56Z</time>
      </trkpt>
      <trkpt lat="49.45151" lon="1.30763">
        <ele>138</ele>
        <time>2017-03-28T14:10:56Z</time>
      </trkpt>
      <trkpt lat="49.45151" lon="1.30757">
        <ele>138</ele>
        <time>2017-03-28T14:11:10Z</time>
      </trkpt>
      <trkpt lat="49.45152" lon="1.30751">
        <ele>138</ele>
        <time>2017-03-28T14:11:10Z</time>
      </trkpt>
      <trkpt lat="49.45151" lon="1.30741">
        <ele>138</ele>
        <time>2017-03-28T14:11:10Z</time>
      </trkpt>
      <trkpt lat="49.45152" lon="1.30735">
        <ele>138</ele>
        <time>2017-03-28T14:11:10Z</time>
      </trkpt>
      <trkpt lat="49.45153" lon="1.30726">
        <ele>138</ele>
        <time>2017-03-28T14:11:28Z</time>
      </trkpt>
      <trkpt lat="49.45153" lon="1.30718">
        <ele>138</ele>
        <time>2017-03-28T14:11:28Z</time>
      </trkpt>
      <trkpt lat="49.45153" lon="1.30709">
        <ele>138</ele>
        <time>2017-03-28T14:11:28Z</time>
      </trkpt>
      <trkpt lat="49.45152" lon="1.307">
        <ele>138</ele>
        <time>2017-03-28T14:11:28Z</time>
      </trkpt>
      <trkpt lat="49.45152" lon="1.30694">
        <ele>138</ele>
        <time>2017-03-28T14:11:43Z</time>
      </trkpt>
      <trkpt lat="49.45155" lon="1.30687">
        <ele>138</ele>
        <time>2017-03-28T14:11:44Z</time>
      </trkpt>
      <trkpt lat="49.45156" lon="1.3068">
        <ele>138</ele>
        <time>2017-03-28T14:11:44Z</time>
      </trkpt>
      <trkpt lat="49.45158" lon="1.30673">
        <ele>138</ele>
        <time>2017-03-28T14:11:44Z</time>
      </trkpt>
      <trkpt lat="49.45159" lon="1.30666">
        <ele>138</ele>
        <time>2017-03-28T14:12:00Z</time>
      </trkpt>
      <trkpt lat="49.45162" lon="1.30658">
        <ele>138</ele>
        <time>2017-03-28T14:12:00Z</time>
      </trkpt>
      <trkpt lat="49.45164" lon="1.30654">
        <ele>138</ele>
        <time>2017-03-28T14:12:00Z</time>
      </trkpt>
      <trkpt lat="49.45165" lon="1.30644">
        <ele>138</ele>
        <time>2017-03-28T14:12:00Z</time>
      </trkpt>
      <trkpt lat="49.45168" lon="1.3064">
        <ele>138</ele>
        <time>2017-03-28T14:12:14Z</time>
      </trkpt>
      <trkpt lat="49.45171" lon="1.3063">
        <ele>138</ele>
        <time>2017-03-28T14:12:14Z</time>
      </trkpt>
      <trkpt lat="49.45173" lon="1.30626">
        <ele>138</ele>
        <time>2017-03-28T14:12:14Z</time>
      </trkpt>
      <trkpt lat="49.45175" lon="1.30619">
        <ele>138</ele>
        <time>2017-03-28T14:12:14Z</time>
      </trkpt>
      <trkpt lat="49.45178" lon="1.30613">
        <ele>138</ele>
        <time>2017-03-28T14:12:32Z</time>
      </trkpt>
      <trkpt lat="49.45181" lon="1.30606">
        <ele>138</ele>
        <time>2017-03-28T14:12:32Z</time>
      </trkpt>
      <trkpt lat="49.45183" lon="1.30599">
        <ele>138</ele>
        <time>2017-03-28T14:12:32Z</time>
      </trkpt>
      <trkpt lat="49.45185" lon="1.3059">
        <ele>138</ele>
        <time>2017-03-28T14:12:32Z</time>
      </trkpt>
      <trkpt lat="49.45186" lon="1.30584">
        <ele>138</ele>
        <time>2017-03-28T14:12:47Z</time>
      </trkpt>
      <trkpt lat="49.45187" lon="1.30575">
        <ele>138</ele>
        <time>2017-03-28T14:12:48Z</time>
      </trkpt>
      <trkpt lat="49.4519" lon="1.3057">
        <ele>138</ele>
        <time>2017-03-28T14:12:48Z</time>
      </trkpt>
      <trkpt lat="49.45194" lon="1.30561">
        <ele>138</ele>
        <time>2017-03-28T14:12:48Z</time>
      </trkpt>
      <trkpt lat="49.45196" lon="1.30553">
        <ele>138</ele>
        <time>2017-03-28T14:13:03Z</time>
      </trkpt>
      <trkpt lat="49.45201" lon="1.30548">
        <ele>138</ele>
        <time>2017-03-28T14:13:03Z</time>
      </trkpt>
      <trkpt lat="49.45204" lon="1.30542">
        <ele>138</ele>
        <time>2017-03-28T14:13:03Z</time>
      </trkpt>
      <trkpt lat="49.45207" lon="1.30537">
        <ele>138</ele>
        <time>2017-03-28T14:13:03Z</time>
      </trkpt>
      <trkpt lat="49.45211" lon="1.30534">
        <ele>144</ele>
        <time>2017-03-28T14:13:18Z</time>
      </trkpt>
      <trkpt lat="49.45215" lon="1.30531">
        <ele>144</ele>
        <time>2017-03-28T14:13:18Z</time>
      </trkpt>
      <trkpt lat="49.45219" lon="1.30527">
        <ele>144</ele>
        <time>2017-03-28T14:13:18Z</time>
      </trkpt>
      <trkpt lat="49.45222" lon="1.30519">
        <ele>144</ele>
        <time>2017-03-28T14:13:18Z</time>
      </trkpt>
      <trkpt lat="49.45224" lon="1.30513">
        <ele>144</ele>
        <time>2017-03-28T14:13:36Z</time>
      </trkpt>
      <trkpt lat="49.45227" lon="1.30507">
        <ele>144</ele>
        <time>2017-03-28T14:13:36Z</time>
      </trkpt>
      <trkpt lat="49.45228" lon="1.30503">
        <ele>144</ele>
        <time>2017-03-28T14:13:36Z</time>
      </trkpt>
      <trkpt lat="49.4523" lon="1.30491">
        <ele>144</ele>
        <time>2017-03-28T14:13:36Z</time>
      </trkpt>
      <trkpt lat="49.45234" lon="1.30483">
        <ele>144</ele>
        <time>2017-03-28T14:13:52Z</time>
      </trkpt>
      <trkpt lat="49.45238" lon="1.30479">
        <ele>144</ele>
        <time>2017-03-28T14:13:52Z</time>
      </trkpt>
      <trkpt lat="49.45243" lon="1.30473">
        <ele>144</ele>
        <time>2017-03-28T14:13:52Z</time>
      </trkpt>
      <trkpt lat="49.45248" lon="1.30467">
        <ele>144</ele>
        <time>2017-03-28T14:13:52Z</time>
      </trkpt>
      <trkpt lat="49.4525" lon="1.30463">
        <ele>144</ele>
        <time>2017-03-28T14:14:14Z</time>
      </trkpt>
      <trkpt lat="49.45259" lon="1.30447">
        <ele>141</ele>
        <time>2017-03-28T14:14:14Z</time>
      </trkpt>
      <trkpt lat="49.45261" lon="1.30442">
        <ele>141</ele>
        <time>2017-03-28T14:14:14Z</time>
      </trkpt>
      <trkpt lat="49.45265" lon="1.30437">
        <ele>141</ele>
        <time>2017-03-28T14:14:14Z</time>
      </trkpt>
      <trkpt lat="49.45267" lon="1.3043">
        <ele>141</ele>
        <time>2017-03-28T14:14:30Z</time>
      </trkpt>
      <trkpt lat="49.45269" lon="1.30422">
        <ele>141</ele>
        <time>2017-03-28T14:14:30Z</time>
      </trkpt>
      <trkpt lat="49.45268" lon="1.30413">
        <ele>141</ele>
        <time>2017-03-28T14:14:30Z</time>
      </trkpt>
      <trkpt lat="49.45271" lon="1.30407">
        <ele>141</ele>
        <time>2017-03-28T14:14:30Z</time>
      </trkpt>
      <trkpt lat="49.45276" lon="1.30407">
        <ele>141</ele>
        <time>2017-03-28T14:14:48Z</time>
      </trkpt>
      <trkpt lat="49.45279" lon="1.30407">
        <ele>141</ele>
        <time>2017-03-28T14:14:48Z</time>
      </trkpt>
      <trkpt lat="49.45285" lon="1.30394">
        <ele>141</ele>
        <time>2017-03-28T14:14:48Z</time>
      </trkpt>
      <trkpt lat="49.4529" lon="1.30388">
        <ele>141</ele>
        <time>2017-03-28T14:14:48Z</time>
      </trkpt>
      <trkpt lat="49.45294" lon="1.30382">
        <ele>144</ele>
        <time>2017-03-28T14:15:03Z</time>
      </trkpt>
      <trkpt lat="49.453" lon="1.30374">
        <ele>141</ele>
        <time>2017-03-28T14:15:03Z</time>
      </trkpt>
      <trkpt lat="49.45304" lon="1.30372">
        <ele>141</ele>
        <time>2017-03-28T14:15:03Z</time>
      </trkpt>
      <trkpt lat="49.45306" lon="1.30371">
        <ele>141</ele>
        <time>2017-03-28T14:15:03Z</time>
      </trkpt>
      <trkpt lat="49.4531" lon="1.30367">
        <ele>141</ele>
        <time>2017-03-28T14:15:22Z</time>
      </trkpt>
      <trkpt lat="49.45311" lon="1.30362">
        <ele>141</ele>
        <time>2017-03-28T14:15:22Z</time>
      </trkpt>
      <trkpt lat="49.45315" lon="1.30357">
        <ele>141</ele>
        <time>2017-03-28T14:15:22Z</time>
      </trkpt>
      <trkpt lat="49.45324" lon="1.30351">
        <ele>141</ele>
        <time>2017-03-28T14:15:22Z</time>
      </trkpt>
      <trkpt lat="49.45327" lon="1.30344">
        <ele>141</ele>
        <time>2017-03-28T14:15:54Z</time>
      </trkpt>
      <trkpt lat="49.45336" lon="1.30338">
        <ele>141</ele>
        <time>2017-03-28T14:15:54Z</time>
      </trkpt>
      <trkpt lat="49.45339" lon="1.30337">
        <ele>141</ele>
        <time>2017-03-28T14:15:54Z</time>
      </trkpt>
      <trkpt lat="49.45344" lon="1.3033">
        <ele>141</ele>
        <time>2017-03-28T14:15:54Z</time>
      </trkpt>
      <trkpt lat="49.4535" lon="1.30327">
        <ele>141</ele>
        <time>2017-03-28T14:15:54Z</time>
      </trkpt>
      <trkpt lat="49.45354" lon="1.30324">
        <ele>141</ele>
        <time>2017-03-28T14:16:10Z</time>
      </trkpt>
      <trkpt lat="49.45358" lon="1.30318">
        <ele>141</ele>
        <time>2017-03-28T14:16:10Z</time>
      </trkpt>
      <trkpt lat="49.45361" lon="1.30315">
        <ele>141</ele>
        <time>2017-03-28T14:16:10Z</time>
      </trkpt>
      <trkpt lat="49.45365" lon="1.30312">
        <ele>141</ele>
        <time>2017-03-28T14:16:10Z</time>
      </trkpt>
      <trkpt lat="49.45369" lon="1.30307">
        <ele>141</ele>
        <time>2017-03-28T14:16:26Z</time>
      </trkpt>
      <trkpt lat="49.45373" lon="1.30304">
        <ele>141</ele>
        <time>2017-03-28T14:16:26Z</time>
      </trkpt>
      <trkpt lat="49.45377" lon="1.30301">
        <ele>144</ele>
        <time>2017-03-28T14:16:26Z</time>
      </trkpt>
      <trkpt lat="49.45381" lon="1.30296">
        <ele>144</ele>
        <time>2017-03-28T14:16:26Z</time>
      </trkpt>
      <trkpt lat="49.45386" lon="1.30291">
        <ele>142</ele>
        <time>2017-03-28T14:16:43Z</time>
      </trkpt>
      <trkpt lat="49.45391" lon="1.30284">
        <ele>142</ele>
        <time>2017-03-28T14:16:43Z</time>
      </trkpt>
      <trkpt lat="49.45396" lon="1.30275">
        <ele>142</ele>
        <time>2017-03-28T14:16:43Z</time>
      </trkpt>
      <trkpt lat="49.45399" lon="1.30269">
        <ele>142</ele>
        <time>2017-03-28T14:16:43Z</time>
      </trkpt>
      <trkpt lat="49.45404" lon="1.30263">
        <ele>142</ele>
        <time>2017-03-28T14:16:58Z</time>
      </trkpt>
      <trkpt lat="49.45407" lon="1.3026">
        <ele>142</ele>
        <time>2017-03-28T14:16:58Z</time>
      </trkpt>
      <trkpt lat="49.4541" lon="1.30258">
        <ele>142</ele>
        <time>2017-03-28T14:16:58Z</time>
      </trkpt>
      <trkpt lat="49.45414" lon="1.30252">
        <ele>142</ele>
        <time>2017-03-28T14:16:58Z</time>
      </trkpt>
      <trkpt lat="49.45418" lon="1.30247">
        <ele>142</ele>
        <time>2017-03-28T14:17:14Z</time>
      </trkpt>
      <trkpt lat="49.45422" lon="1.30242">
        <ele>142</ele>
        <time>2017-03-28T14:17:14Z</time>
      </trkpt>
      <trkpt lat="49.45424" lon="1.30236">
        <ele>142</ele>
        <time>2017-03-28T14:17:14Z</time>
      </trkpt>
      <trkpt lat="49.45426" lon="1.3023">
        <ele>142</ele>
        <time>2017-03-28T14:17:14Z</time>
      </trkpt>
      <trkpt lat="49.45427" lon="1.30225">
        <ele>142</ele>
        <time>2017-03-28T14:17:30Z</time>
      </trkpt>
      <trkpt lat="49.45428" lon="1.30219">
        <ele>142</ele>
        <time>2017-03-28T14:17:30Z</time>
      </trkpt>
      <trkpt lat="49.4543" lon="1.30214">
        <ele>142</ele>
        <time>2017-03-28T14:17:30Z</time>
      </trkpt>
      <trkpt lat="49.45434" lon="1.3021">
        <ele>142</ele>
        <time>2017-03-28T14:17:30Z</time>
      </trkpt>
      <trkpt lat="49.45437" lon="1.30205">
        <ele>142</ele>
        <time>2017-03-28T14:17:46Z</time>
      </trkpt>
      <trkpt lat="49.45441" lon="1.30201">
        <ele>142</ele>
        <time>2017-03-28T14:17:46Z</time>
      </trkpt>
      <trkpt lat="49.45444" lon="1.30197">
        <ele>142</ele>
        <time>2017-03-28T14:17:46Z</time>
      </trkpt>
      <trkpt lat="49.45447" lon="1.30192">
        <ele>142</ele>
        <time>2017-03-28T14:17:46Z</time>
      </trkpt>
      <trkpt lat="49.4545" lon="1.30187">
        <ele>142</ele>
        <time>2017-03-28T14:18:02Z</time>
      </trkpt>
      <trkpt lat="49.45452" lon="1.30181">
        <ele>142</ele>
        <time>2017-03-28T14:18:02Z</time>
      </trkpt>
      <trkpt lat="49.45456" lon="1.30177">
        <ele>142</ele>
        <time>2017-03-28T14:18:02Z</time>
      </trkpt>
      <trkpt lat="49.4546" lon="1.30173">
        <ele>145</ele>
        <time>2017-03-28T14:18:02Z</time>
      </trkpt>
      <trkpt lat="49.45463" lon="1.30168">
        <ele>145</ele>
        <time>2017-03-28T14:18:19Z</time>
      </trkpt>
      <trkpt lat="49.45466" lon="1.30164">
        <ele>145</ele>
        <time>2017-03-28T14:18:19Z</time>
      </trkpt>
      <trkpt lat="49.4547" lon="1.30152">
        <ele>145</ele>
        <time>2017-03-28T14:18:19Z</time>
      </trkpt>
      <trkpt lat="49.45472" lon="1.30142">
        <ele>145</ele>
        <time>2017-03-28T14:18:19Z</time>
      </trkpt>
      <trkpt lat="49.45476" lon="1.30135">
        <ele>145</ele>
        <time>2017-03-28T14:18:34Z</time>
      </trkpt>
      <trkpt lat="49.45479" lon="1.30129">
        <ele>145</ele>
        <time>2017-03-28T14:18:34Z</time>
      </trkpt>
      <trkpt lat="49.45482" lon="1.30122">
        <ele>144</ele>
        <time>2017-03-28T14:18:34Z</time>
      </trkpt>
      <trkpt lat="49.45486" lon="1.30118">
        <ele>144</ele>
        <time>2017-03-28T14:18:34Z</time>
      </trkpt>
      <trkpt lat="49.45489" lon="1.30114">
        <ele>144</ele>
        <time>2017-03-28T14:18:51Z</time>
      </trkpt>
      <trkpt lat="49.45493" lon="1.30109">
        <ele>144</ele>
        <time>2017-03-28T14:18:51Z</time>
      </trkpt>
      <trkpt lat="49.45496" lon="1.30103">
        <ele>144</ele>
        <time>2017-03-28T14:18:51Z</time>
      </trkpt>
      <trkpt lat="49.45499" lon="1.30098">
        <ele>144</ele>
        <time>2017-03-28T14:18:51Z</time>
      </trkpt>
      <trkpt lat="49.45503" lon="1.30092">
        <ele>144</ele>
        <time>2017-03-28T14:19:07Z</time>
      </trkpt>
      <trkpt lat="49.45508" lon="1.30087">
        <ele>144</ele>
        <time>2017-03-28T14:19:07Z</time>
      </trkpt>
      <trkpt lat="49.45511" lon="1.30083">
        <ele>144</ele>
        <time>2017-03-28T14:19:07Z</time>
      </trkpt>
      <trkpt lat="49.45517" lon="1.3008">
        <ele>144</ele>
        <time>2017-03-28T14:19:07Z</time>
      </trkpt>
      <trkpt lat="49.4552" lon="1.30078">
        <ele>144</ele>
        <time>2017-03-28T14:19:23Z</time>
      </trkpt>
      <trkpt lat="49.45522" lon="1.30075">
        <ele>144</ele>
        <time>2017-03-28T14:19:23Z</time>
      </trkpt>
      <trkpt lat="49.45526" lon="1.30069">
        <ele>144</ele>
        <time>2017-03-28T14:19:23Z</time>
      </trkpt>
      <trkpt lat="49.4553" lon="1.30063">
        <ele>144</ele>
        <time>2017-03-28T14:19:23Z</time>
      </trkpt>
      <trkpt lat="49.45534" lon="1.3006">
        <ele>144</ele>
        <time>2017-03-28T14:19:38Z</time>
      </trkpt>
      <trkpt lat="49.45538" lon="1.30053">
        <ele>144</ele>
        <time>2017-03-28T14:19:38Z</time>
      </trkpt>
      <trkpt lat="49.45541" lon="1.30049">
        <ele>144</ele>
        <time>2017-03-28T14:19:38Z</time>
      </trkpt>
      <trkpt lat="49.45544" lon="1.30046">
        <ele>147</ele>
        <time>2017-03-28T14:19:38Z</time>
      </trkpt>
      <trkpt lat="49.4555" lon="1.30043">
        <ele>147</ele>
        <time>2017-03-28T14:19:55Z</time>
      </trkpt>
      <trkpt lat="49.45555" lon="1.3004">
        <ele>147</ele>
        <time>2017-03-28T14:19:55Z</time>
      </trkpt>
      <trkpt lat="49.4556" lon="1.30035">
        <ele>147</ele>
        <time>2017-03-28T14:19:55Z</time>
      </trkpt>
      <trkpt lat="49.45563" lon="1.30033">
        <ele>147</ele>
        <time>2017-03-28T14:19:55Z</time>
      </trkpt>
      <trkpt lat="49.45566" lon="1.30029">
        <ele>147</ele>
        <time>2017-03-28T14:20:11Z</time>
      </trkpt>
      <trkpt lat="49.45574" lon="1.30026">
        <ele>147</ele>
        <time>2017-03-28T14:20:11Z</time>
      </trkpt>
      <trkpt lat="49.45579" lon="1.30024">
        <ele>147</ele>
        <time>2017-03-28T14:20:11Z</time>
      </trkpt>
      <trkpt lat="49.45583" lon="1.30025">
        <ele>147</ele>
        <time>2017-03-28T14:20:11Z</time>
      </trkpt>
      <trkpt lat="49.45586" lon="1.3002">
        <ele>147</ele>
        <time>2017-03-28T14:20:28Z</time>
      </trkpt>
      <trkpt lat="49.45591" lon="1.30015">
        <ele>147</ele>
        <time>2017-03-28T14:20:28Z</time>
      </trkpt>
      <trkpt lat="49.45595" lon="1.30012">
        <ele>147</ele>
        <time>2017-03-28T14:20:28Z</time>
      </trkpt>
      <trkpt lat="49.45601" lon="1.30012">
        <ele>147</ele>
        <time>2017-03-28T14:20:28Z</time>
      </trkpt>
      <trkpt lat="49.45603" lon="1.30011">
        <ele>147</ele>
        <time>2017-03-28T14:20:42Z</time>
      </trkpt>
      <trkpt lat="49.45609" lon="1.30008">
        <ele>147</ele>
        <time>2017-03-28T14:20:42Z</time>
      </trkpt>
      <trkpt lat="49.45613" lon="1.30007">
        <ele>147</ele>
        <time>2017-03-28T14:20:42Z</time>
      </trkpt>
      <trkpt lat="49.45617" lon="1.30004">
        <ele>147</ele>
        <time>2017-03-28T14:20:42Z</time>
      </trkpt>
      <trkpt lat="49.45621" lon="1.30001">
        <ele>147</ele>
        <time>2017-03-28T14:20:59Z</time>
      </trkpt>
      <trkpt lat="49.45626" lon="1.29998">
        <ele>148</ele>
        <time>2017-03-28T14:20:59Z</time>
      </trkpt>
      <trkpt lat="49.45631" lon="1.29993">
        <ele>148</ele>
        <time>2017-03-28T14:20:59Z</time>
      </trkpt>
      <trkpt lat="49.45634" lon="1.29992">
        <ele>148</ele>
        <time>2017-03-28T14:20:59Z</time>
      </trkpt>
      <trkpt lat="49.45639" lon="1.29988">
        <ele>148</ele>
        <time>2017-03-28T14:21:15Z</time>
      </trkpt>
      <trkpt lat="49.45642" lon="1.29986">
        <ele>148</ele>
        <time>2017-03-28T14:21:15Z</time>
      </trkpt>
      <trkpt lat="49.45648" lon="1.29983">
        <ele>148</ele>
        <time>2017-03-28T14:21:15Z</time>
      </trkpt>
      <trkpt lat="49.45652" lon="1.29974">
        <ele>148</ele>
        <time>2017-03-28T14:21:15Z</time>
      </trkpt>
      <trkpt lat="49.45657" lon="1.29977">
        <ele>148</ele>
        <time>2017-03-28T14:21:34Z</time>
      </trkpt>
      <trkpt lat="49.45661" lon="1.29976">
        <ele>148</ele>
        <time>2017-03-28T14:21:34Z</time>
      </trkpt>
      <trkpt lat="49.45665" lon="1.29976">
        <ele>148</ele>
        <time>2017-03-28T14:21:34Z</time>
      </trkpt>
      <trkpt lat="49.45672" lon="1.29978">
        <ele>148</ele>
        <time>2017-03-28T14:21:34Z</time>
      </trkpt>
      <trkpt lat="49.45672" lon="1.29977">
        <ele>148</ele>
        <time>2017-03-28T14:21:54Z</time>
      </trkpt>
      <trkpt lat="49.45673" lon="1.29976">
        <ele>148</ele>
        <time>2017-03-28T14:21:54Z</time>
      </trkpt>
      <trkpt lat="49.45674" lon="1.29976">
        <ele>148</ele>
        <time>2017-03-28T14:21:54Z</time>
      </trkpt>
      <trkpt lat="49.45677" lon="1.29973">
        <ele>148</ele>
        <time>2017-03-28T14:21:54Z</time>
      </trkpt>
      <trkpt lat="49.45684" lon="1.29968">
        <ele>148</ele>
        <time>2017-03-28T14:21:54Z</time>
      </trkpt>
      <trkpt lat="49.4569" lon="1.29965">
        <ele>148</ele>
        <time>2017-03-28T14:22:10Z</time>
      </trkpt>
      <trkpt lat="49.45694" lon="1.29964">
        <ele>148</ele>
        <time>2017-03-28T14:22:10Z</time>
      </trkpt>
      <trkpt lat="49.457" lon="1.29968">
        <ele>148</ele>
        <time>2017-03-28T14:22:10Z</time>
      </trkpt>
      <trkpt lat="49.45706" lon="1.29966">
        <ele>148</ele>
        <time>2017-03-28T14:22:10Z</time>
      </trkpt>
      <trkpt lat="49.45712" lon="1.29963">
        <ele>149</ele>
        <time>2017-03-28T14:22:27Z</time>
      </trkpt>
      <trkpt lat="49.45715" lon="1.29962">
        <ele>149</ele>
        <time>2017-03-28T14:22:27Z</time>
      </trkpt>
      <trkpt lat="49.45722" lon="1.29961">
        <ele>149</ele>
        <time>2017-03-28T14:22:27Z</time>
      </trkpt>
      <trkpt lat="49.45727" lon="1.29962">
        <ele>149</ele>
        <time>2017-03-28T14:22:27Z</time>
      </trkpt>
      <trkpt lat="49.45733" lon="1.2996">
        <ele>149</ele>
        <time>2017-03-28T14:22:42Z</time>
      </trkpt>
      <trkpt lat="49.45738" lon="1.29959">
        <ele>149</ele>
        <time>2017-03-28T14:22:42Z</time>
      </trkpt>
      <trkpt lat="49.45741" lon="1.29958">
        <ele>147</ele>
        <time>2017-03-28T14:22:42Z</time>
      </trkpt>
      <trkpt lat="49.45746" lon="1.29956">
        <ele>147</ele>
        <time>2017-03-28T14:22:42Z</time>
      </trkpt>
      <trkpt lat="49.45753" lon="1.29953">
        <ele>147</ele>
        <time>2017-03-28T14:22:59Z</time>
      </trkpt>
      <trkpt lat="49.45757" lon="1.29951">
        <ele>147</ele>
        <time>2017-03-28T14:22:59Z</time>
      </trkpt>
      <trkpt lat="49.45762" lon="1.2995">
        <ele>147</ele>
        <time>2017-03-28T14:22:59Z</time>
      </trkpt>
      <trkpt lat="49.45767" lon="1.2995">
        <ele>147</ele>
        <time>2017-03-28T14:22:59Z</time>
      </trkpt>
      <trkpt lat="49.45772" lon="1.29948">
        <ele>147</ele>
        <time>2017-03-28T14:23:15Z</time>
      </trkpt>
      <trkpt lat="49.45777" lon="1.29948">
        <ele>147</ele>
        <time>2017-03-28T14:23:15Z</time>
      </trkpt>
      <trkpt lat="49.4578" lon="1.29947">
        <ele>147</ele>
        <time>2017-03-28T14:23:15Z</time>
      </trkpt>
      <trkpt lat="49.45785" lon="1.29943">
        <ele>147</ele>
        <time>2017-03-28T14:23:15Z</time>
      </trkpt>
      <trkpt lat="49.4579" lon="1.29941">
        <ele>147</ele>
        <time>2017-03-28T14:23:30Z</time>
      </trkpt>
      <trkpt lat="49.45793" lon="1.29939">
        <ele>148</ele>
        <time>2017-03-28T14:23:30Z</time>
      </trkpt>
      <trkpt lat="49.45799" lon="1.29938">
        <ele>148</ele>
        <time>2017-03-28T14:23:30Z</time>
      </trkpt>
      <trkpt lat="49.45802" lon="1.29937">
        <ele>148</ele>
        <time>2017-03-28T14:23:30Z</time>
      </trkpt>
      <trkpt lat="49.45809" lon="1.29939">
        <ele>148</ele>
        <time>2017-03-28T14:23:47Z</time>
      </trkpt>
      <trkpt lat="49.45814" lon="1.29939">
        <ele>148</ele>
        <time>2017-03-28T14:23:47Z</time>
      </trkpt>
      <trkpt lat="49.45821" lon="1.29935">
        <ele>148</ele>
        <time>2017-03-28T14:23:47Z</time>
      </trkpt>
      <trkpt lat="49.45825" lon="1.29935">
        <ele>148</ele>
        <time>2017-03-28T14:23:47Z</time>
      </trkpt>
      <trkpt lat="49.45829" lon="1.29935">
        <ele>148</ele>
        <time>2017-03-28T14:24:04Z</time>
      </trkpt>
      <trkpt lat="49.45835" lon="1.29932">
        <ele>148</ele>
        <time>2017-03-28T14:24:04Z</time>
      </trkpt>
      <trkpt lat="49.45839" lon="1.2993">
        <ele>148</ele>
        <time>2017-03-28T14:24:04Z</time>
      </trkpt>
      <trkpt lat="49.45844" lon="1.29927">
        <ele>148</ele>
        <time>2017-03-28T14:24:04Z</time>
      </trkpt>
      <trkpt lat="49.45847" lon="1.29924">
        <ele>148</ele>
        <time>2017-03-28T14:24:18Z</time>
      </trkpt>
      <trkpt lat="49.45852" lon="1.29922">
        <ele>148</ele>
        <time>2017-03-28T14:24:18Z</time>
      </trkpt>
      <trkpt lat="49.45857" lon="1.2992">
        <ele>148</ele>
        <time>2017-03-28T14:24:18Z</time>
      </trkpt>
      <trkpt lat="49.45863" lon="1.29919">
        <ele>148</ele>
        <time>2017-03-28T14:24:18Z</time>
      </trkpt>
      <trkpt lat="49.45869" lon="1.29919">
        <ele>148</ele>
        <time>2017-03-28T14:24:35Z</time>
      </trkpt>
      <trkpt lat="49.45875" lon="1.29916">
        <ele>148</ele>
        <time>2017-03-28T14:24:35Z</time>
      </trkpt>
      <trkpt lat="49.4588" lon="1.29914">
        <ele>151</ele>
        <time>2017-03-28T14:24:35Z</time>
      </trkpt>
      <trkpt lat="49.45883" lon="1.29912">
        <ele>151</ele>
        <time>2017-03-28T14:24:35Z</time>
      </trkpt>
      <trkpt lat="49.4589" lon="1.29913">
        <ele>151</ele>
        <time>2017-03-28T14:24:50Z</time>
      </trkpt>
      <trkpt lat="49.45894" lon="1.29914">
        <ele>151</ele>
        <time>2017-03-28T14:24:50Z</time>
      </trkpt>
      <trkpt lat="49.45897" lon="1.29914">
        <ele>151</ele>
        <time>2017-03-28T14:24:50Z</time>
      </trkpt>
      <trkpt lat="49.45901" lon="1.29914">
        <ele>151</ele>
        <time>2017-03-28T14:24:50Z</time>
      </trkpt>
      <trkpt lat="49.45906" lon="1.29913">
        <ele>151</ele>
        <time>2017-03-28T14:25:07Z</time>
      </trkpt>
      <trkpt lat="49.45912" lon="1.29912">
        <ele>151</ele>
        <time>2017-03-28T14:25:07Z</time>
      </trkpt>
      <trkpt lat="49.45917" lon="1.2991">
        <ele>151</ele>
        <time>2017-03-28T14:25:07Z</time>
      </trkpt>
      <trkpt lat="49.4592" lon="1.29911">
        <ele>151</ele>
        <time>2017-03-28T14:25:07Z</time>
      </trkpt>
      <trkpt lat="49.45926" lon="1.2991">
        <ele>151</ele>
        <time>2017-03-28T14:25:23Z</time>
      </trkpt>
      <trkpt lat="49.45929" lon="1.2991">
        <ele>151</ele>
        <time>2017-03-28T14:25:23Z</time>
      </trkpt>
      <trkpt lat="49.45934" lon="1.2991">
        <ele>151</ele>
        <time>2017-03-28T14:25:23Z</time>
      </trkpt>
      <trkpt lat="49.45938" lon="1.2991">
        <ele>151</ele>
        <time>2017-03-28T14:25:23Z</time>
      </trkpt>
      <trkpt lat="49.45941" lon="1.2991">
        <ele>151</ele>
        <time>2017-03-28T14:25:39Z</time>
      </trkpt>
      <trkpt lat="49.45947" lon="1.2991">
        <ele>151</ele>
        <time>2017-03-28T14:25:39Z</time>
      </trkpt>
      <trkpt lat="49.45952" lon="1.2991">
        <ele>151</ele>
        <time>2017-03-28T14:25:39Z</time>
      </trkpt>
      <trkpt lat="49.45956" lon="1.29911">
        <ele>151</ele>
        <time>2017-03-28T14:25:39Z</time>
      </trkpt>
      <trkpt lat="49.45962" lon="1.29907">
        <ele>152</ele>
        <time>2017-03-28T14:25:56Z</time>
      </trkpt>
      <trkpt lat="49.45966" lon="1.29902">
        <ele>152</ele>
        <time>2017-03-28T14:25:56Z</time>
      </trkpt>
      <trkpt lat="49.4597" lon="1.299">
        <ele>152</ele>
        <time>2017-03-28T14:25:56Z</time>
      </trkpt>
      <trkpt lat="49.45974" lon="1.299">
        <ele>152</ele>
        <time>2017-03-28T14:25:56Z</time>
      </trkpt>
      <trkpt lat="49.45978" lon="1.29898">
        <ele>152</ele>
        <time>2017-03-28T14:26:12Z</time>
      </trkpt>
      <trkpt lat="49.45983" lon="1.29893">
        <ele>152</ele>
        <time>2017-03-28T14:26:12Z</time>
      </trkpt>
      <trkpt lat="49.45986" lon="1.2989">
        <ele>152</ele>
        <time>2017-03-28T14:26:12Z</time>
      </trkpt>
      <trkpt lat="49.45992" lon="1.29889">
        <ele>152</ele>
        <time>2017-03-28T14:26:12Z</time>
      </trkpt>
      <trkpt lat="49.45995" lon="1.29886">
        <ele>152</ele>
        <time>2017-03-28T14:26:27Z</time>
      </trkpt>
      <trkpt lat="49.46" lon="1.29883">
        <ele>152</ele>
        <time>2017-03-28T14:26:27Z</time>
      </trkpt>
      <trkpt lat="49.46003" lon="1.29876">
        <ele>152</ele>
        <time>2017-03-28T14:26:27Z</time>
      </trkpt>
      <trkpt lat="49.46002" lon="1.29869">
        <ele>153</ele>
        <time>2017-03-28T14:26:27Z</time>
      </trkpt>
      <trkpt lat="49.46004" lon="1.29859">
        <ele>153</ele>
        <time>2017-03-28T14:26:44Z</time>
      </trkpt>
      <trkpt lat="49.46006" lon="1.29852">
        <ele>153</ele>
        <time>2017-03-28T14:26:44Z</time>
      </trkpt>
      <trkpt lat="49.46006" lon="1.29845">
        <ele>153</ele>
        <time>2017-03-28T14:26:44Z</time>
      </trkpt>
      <trkpt lat="49.46006" lon="1.29839">
        <ele>153</ele>
        <time>2017-03-28T14:26:44Z</time>
      </trkpt>
      <trkpt lat="49.46008" lon="1.29833">
        <ele>153</ele>
        <time>2017-03-28T14:27:00Z</time>
      </trkpt>
      <trkpt lat="49.46007" lon="1.29827">
        <ele>153</ele>
        <time>2017-03-28T14:27:00Z</time>
      </trkpt>
      <trkpt lat="49.46006" lon="1.29819">
        <ele>153</ele>
        <time>2017-03-28T14:27:00Z</time>
      </trkpt>
      <trkpt lat="49.46009" lon="1.29811">
        <ele>153</ele>
        <time>2017-03-28T14:27:00Z</time>
      </trkpt>
      <trkpt lat="49.46011" lon="1.29807">
        <ele>153</ele>
        <time>2017-03-28T14:27:16Z</time>
      </trkpt>
      <trkpt lat="49.46011" lon="1.29797">
        <ele>153</ele>
        <time>2017-03-28T14:27:16Z</time>
      </trkpt>
      <trkpt lat="49.46011" lon="1.29789">
        <ele>150</ele>
        <time>2017-03-28T14:27:16Z</time>
      </trkpt>
      <trkpt lat="49.46013" lon="1.29779">
        <ele>150</ele>
        <time>2017-03-28T14:27:16Z</time>
      </trkpt>
      <trkpt lat="49.46016" lon="1.29774">
        <ele>150</ele>
        <time>2017-03-28T14:27:31Z</time>
      </trkpt>
      <trkpt lat="49.46018" lon="1.29766">
        <ele>150</ele>
        <time>2017-03-28T14:27:31Z</time>
      </trkpt>
      <trkpt lat="49.46017" lon="1.29756">
        <ele>150</ele>
        <time>2017-03-28T14:27:31Z</time>
      </trkpt>
      <trkpt lat="49.46016" lon="1.29749">
        <ele>150</ele>
        <time>2017-03-28T14:27:31Z</time>
      </trkpt>
      <trkpt lat="49.46016" lon="1.29744">
        <ele>150</ele>
        <time>2017-03-28T14:27:47Z</time>
      </trkpt>
      <trkpt lat="49.46017" lon="1.29735">
        <ele>150</ele>
        <time>2017-03-28T14:27:47Z</time>
      </trkpt>
      <trkpt lat="49.46019" lon="1.2973">
        <ele>150</ele>
        <time>2017-03-28T14:27:47Z</time>
      </trkpt>
      <trkpt lat="49.46019" lon="1.29723">
        <ele>150</ele>
        <time>2017-03-28T14:27:47Z</time>
      </trkpt>
      <trkpt lat="49.46019" lon="1.29717">
        <ele>150</ele>
        <time>2017-03-28T14:28:04Z</time>
      </trkpt>
      <trkpt lat="49.46017" lon="1.29706">
        <ele>149</ele>
        <time>2017-03-28T14:28:04Z</time>
      </trkpt>
      <trkpt lat="49.46015" lon="1.29699">
        <ele>149</ele>
        <time>2017-03-28T14:28:04Z</time>
      </trkpt>
      <trkpt lat="49.46014" lon="1.2969">
        <ele>149</ele>
        <time>2017-03-28T14:28:04Z</time>
      </trkpt>
      <trkpt lat="49.46022" lon="1.29688">
        <ele>149</ele>
        <time>2017-03-28T14:28:39Z</time>
      </trkpt>
      <trkpt lat="49.46022" lon="1.29689">
        <ele>149</ele>
        <time>2017-03-28T14:28:39Z</time>
      </trkpt>
      <trkpt lat="49.46023" lon="1.29696">
        <ele>149</ele>
        <time>2017-03-28T14:28:39Z</time>
      </trkpt>
      <trkpt lat="49.46028" lon="1.29703">
        <ele>149</ele>
        <time>2017-03-28T14:28:39Z</time>
      </trkpt>
      <trkpt lat="49.46028" lon="1.29709">
        <ele>150</ele>
        <time>2017-03-28T14:28:39Z</time>
      </trkpt>
      <trkpt lat="49.46026" lon="1.29723">
        <ele>150</ele>
        <time>2017-03-28T14:29:06Z</time>
      </trkpt>
      <trkpt lat="49.46025" lon="1.29723">
        <ele>150</ele>
        <time>2017-03-28T14:29:06Z</time>
      </trkpt>
      <trkpt lat="49.46031" lon="1.29732">
        <ele>150</ele>
        <time>2017-03-28T14:29:06Z</time>
      </trkpt>
      <trkpt lat="49.4603" lon="1.2974">
        <ele>150</ele>
        <time>2017-03-28T14:29:06Z</time>
      </trkpt>
      <trkpt lat="49.46036" lon="1.29743">
        <ele>150</ele>
        <time>2017-03-28T14:29:06Z</time>
      </trkpt>
      <trkpt lat="49.46039" lon="1.29743">
        <ele>150</ele>
        <time>2017-03-28T14:29:22Z</time>
      </trkpt>
      <trkpt lat="49.46045" lon="1.29744">
        <ele>152</ele>
        <time>2017-03-28T14:29:22Z</time>
      </trkpt>
      <trkpt lat="49.46049" lon="1.29742">
        <ele>152</ele>
        <time>2017-03-28T14:29:22Z</time>
      </trkpt>
      <trkpt lat="49.46054" lon="1.29741">
        <ele>152</ele>
        <time>2017-03-28T14:29:22Z</time>
      </trkpt>
      <trkpt lat="49.46059" lon="1.29739">
        <ele>152</ele>
        <time>2017-03-28T14:29:42Z</time>
      </trkpt>
      <trkpt lat="49.46063" lon="1.29738">
        <ele>152</ele>
        <time>2017-03-28T14:29:42Z</time>
      </trkpt>
      <trkpt lat="49.46065" lon="1.29738">
        <ele>152</ele>
        <time>2017-03-28T14:29:42Z</time>
      </trkpt>
      <trkpt lat="49.46066" lon="1.29737">
        <ele>152</ele>
        <time>2017-03-28T14:29:42Z</time>
      </trkpt>
      <trkpt lat="49.46072" lon="1.2974">
        <ele>152</ele>
        <time>2017-03-28T14:29:42Z</time>
      </trkpt>
      <trkpt lat="49.46078" lon="1.29741">
        <ele>152</ele>
        <time>2017-03-28T14:29:58Z</time>
      </trkpt>
      <trkpt lat="49.46083" lon="1.29741">
        <ele>152</ele>
        <time>2017-03-28T14:29:58Z</time>
      </trkpt>
      <trkpt lat="49.46088" lon="1.2974">
        <ele>152</ele>
        <time>2017-03-28T14:29:58Z</time>
      </trkpt>
      <trkpt lat="49.46093" lon="1.29738">
        <ele>152</ele>
        <time>2017-03-28T14:29:58Z</time>
      </trkpt>
      <trkpt lat="49.46097" lon="1.29735">
        <ele>152</ele>
        <time>2017-03-28T14:30:14Z</time>
      </trkpt>
      <trkpt lat="49.46101" lon="1.29733">
        <ele>152</ele>
        <time>2017-03-28T14:30:14Z</time>
      </trkpt>
      <trkpt lat="49.46105" lon="1.2973">
        <ele>152</ele>
        <time>2017-03-28T14:30:14Z</time>
      </trkpt>
      <trkpt lat="49.4611" lon="1.29729">
        <ele>152</ele>
        <time>2017-03-28T14:30:14Z</time>
      </trkpt>
      <trkpt lat="49.46113" lon="1.29728">
        <ele>152</ele>
        <time>2017-03-28T14:30:30Z</time>
      </trkpt>
      <trkpt lat="49.46117" lon="1.29727">
        <ele>152</ele>
        <time>2017-03-28T14:30:30Z</time>
      </trkpt>
      <trkpt lat="49.46121" lon="1.29727">
        <ele>152</ele>
        <time>2017-03-28T14:30:30Z</time>
      </trkpt>
      <trkpt lat="49.46125" lon="1.29728">
        <ele>152</ele>
        <time>2017-03-28T14:30:30Z</time>
      </trkpt>
      <trkpt lat="49.46129" lon="1.29728">
        <ele>154</ele>
        <time>2017-03-28T14:30:46Z</time>
      </trkpt>
      <trkpt lat="49.46133" lon="1.29732">
        <ele>154</ele>
        <time>2017-03-28T14:30:46Z</time>
      </trkpt>
      <trkpt lat="49.46137" lon="1.29736">
        <ele>154</ele>
        <time>2017-03-28T14:30:46Z</time>
      </trkpt>
      <trkpt lat="49.46141" lon="1.29741">
        <ele>154</ele>
        <time>2017-03-28T14:30:46Z</time>
      </trkpt>
      <trkpt lat="49.46145" lon="1.29743">
        <ele>154</ele>
        <time>2017-03-28T14:31:02Z</time>
      </trkpt>
      <trkpt lat="49.4615" lon="1.29743">
        <ele>154</ele>
        <time>2017-03-28T14:31:02Z</time>
      </trkpt>
      <trkpt lat="49.46156" lon="1.29743">
        <ele>154</ele>
        <time>2017-03-28T14:31:02Z</time>
      </trkpt>
      <trkpt lat="49.46161" lon="1.29743">
        <ele>154</ele>
        <time>2017-03-28T14:31:02Z</time>
      </trkpt>
      <trkpt lat="49.46165" lon="1.29742">
        <ele>154</ele>
        <time>2017-03-28T14:31:18Z</time>
      </trkpt>
      <trkpt lat="49.46169" lon="1.29741">
        <ele>154</ele>
        <time>2017-03-28T14:31:18Z</time>
      </trkpt>
      <trkpt lat="49.46173" lon="1.2974">
        <ele>154</ele>
        <time>2017-03-28T14:31:18Z</time>
      </trkpt>
      <trkpt lat="49.46178" lon="1.29741">
        <ele>154</ele>
        <time>2017-03-28T14:31:18Z</time>
      </trkpt>
      <trkpt lat="49.46183" lon="1.29742">
        <ele>154</ele>
        <time>2017-03-28T14:31:34Z</time>
      </trkpt>
      <trkpt lat="49.46188" lon="1.29742">
        <ele>154</ele>
        <time>2017-03-28T14:31:34Z</time>
      </trkpt>
      <trkpt lat="49.46193" lon="1.29741">
        <ele>154</ele>
        <time>2017-03-28T14:31:34Z</time>
      </trkpt>
      <trkpt lat="49.46198" lon="1.2974">
        <ele>154</ele>
        <time>2017-03-28T14:31:34Z</time>
      </trkpt>
      <trkpt lat="49.46204" lon="1.2974">
        <ele>154</ele>
        <time>2017-03-28T14:31:50Z</time>
      </trkpt>
      <trkpt lat="49.46209" lon="1.29739">
        <ele>154</ele>
        <time>2017-03-28T14:31:50Z</time>
      </trkpt>
      <trkpt lat="49.46214" lon="1.29741">
        <ele>154</ele>
        <time>2017-03-28T14:31:50Z</time>
      </trkpt>
      <trkpt lat="49.46219" lon="1.29741">
        <ele>154</ele>
        <time>2017-03-28T14:31:50Z</time>
      </trkpt>
      <trkpt lat="49.46223" lon="1.29741">
        <ele>154</ele>
        <time>2017-03-28T14:32:06Z</time>
      </trkpt>
      <trkpt lat="49.46228" lon="1.29741">
        <ele>154</ele>
        <time>2017-03-28T14:32:06Z</time>
      </trkpt>
      <trkpt lat="49.46234" lon="1.29741">
        <ele>154</ele>
        <time>2017-03-28T14:32:06Z</time>
      </trkpt>
      <trkpt lat="49.46239" lon="1.29741">
        <ele>154</ele>
        <time>2017-03-28T14:32:06Z</time>
      </trkpt>
      <trkpt lat="49.46244" lon="1.2974">
        <ele>154</ele>
        <time>2017-03-28T14:32:22Z</time>
      </trkpt>
      <trkpt lat="49.46249" lon="1.29739">
        <ele>154</ele>
        <time>2017-03-28T14:32:22Z</time>
      </trkpt>
      <trkpt lat="49.46255" lon="1.2974">
        <ele>154</ele>
        <time>2017-03-28T14:32:22Z</time>
      </trkpt>
      <trkpt lat="49.4626" lon="1.2974">
        <ele>154</ele>
        <time>2017-03-28T14:32:22Z</time>
      </trkpt>
      <trkpt lat="49.46266" lon="1.29739">
        <ele>154</ele>
        <time>2017-03-28T14:32:38Z</time>
      </trkpt>
      <trkpt lat="49.46272" lon="1.2974">
        <ele>154</ele>
        <time>2017-03-28T14:32:38Z</time>
      </trkpt>
      <trkpt lat="49.46276" lon="1.29741">
        <ele>154</ele>
        <time>2017-03-28T14:32:38Z</time>
      </trkpt>
      <trkpt lat="49.46281" lon="1.29742">
        <ele>154</ele>
        <time>2017-03-28T14:32:38Z</time>
      </trkpt>
      <trkpt lat="49.46285" lon="1.29744">
        <ele>154</ele>
        <time>2017-03-28T14:32:54Z</time>
      </trkpt>
      <trkpt lat="49.46289" lon="1.29745">
        <ele>154</ele>
        <time>2017-03-28T14:32:54Z</time>
      </trkpt>
      <trkpt lat="49.46293" lon="1.29745">
        <ele>154</ele>
        <time>2017-03-28T14:32:54Z</time>
      </trkpt>
      <trkpt lat="49.46298" lon="1.29747">
        <ele>154</ele>
        <time>2017-03-28T14:32:54Z</time>
      </trkpt>
      <trkpt lat="49.46303" lon="1.29747">
        <ele>154</ele>
        <time>2017-03-28T14:33:10Z</time>
      </trkpt>
      <trkpt lat="49.46308" lon="1.29749">
        <ele>154</ele>
        <time>2017-03-28T14:33:10Z</time>
      </trkpt>
      <trkpt lat="49.46313" lon="1.2975">
        <ele>154</ele>
        <time>2017-03-28T14:33:10Z</time>
      </trkpt>
      <trkpt lat="49.46317" lon="1.29752">
        <ele>154</ele>
        <time>2017-03-28T14:33:10Z</time>
      </trkpt>
      <trkpt lat="49.46321" lon="1.29753">
        <ele>154</ele>
        <time>2017-03-28T14:33:26Z</time>
      </trkpt>
      <trkpt lat="49.46326" lon="1.29754">
        <ele>154</ele>
        <time>2017-03-28T14:33:26Z</time>
      </trkpt>
      <trkpt lat="49.46331" lon="1.29754">
        <ele>154</ele>
        <time>2017-03-28T14:33:26Z</time>
      </trkpt>
      <trkpt lat="49.46336" lon="1.29755">
        <ele>154</ele>
        <time>2017-03-28T14:33:26Z</time>
      </trkpt>
      <trkpt lat="49.46341" lon="1.29755">
        <ele>154</ele>
        <time>2017-03-28T14:33:42Z</time>
      </trkpt>
      <trkpt lat="49.46347" lon="1.29756">
        <ele>154</ele>
        <time>2017-03-28T14:33:42Z</time>
      </trkpt>
      <trkpt lat="49.46351" lon="1.29758">
        <ele>154</ele>
        <time>2017-03-28T14:33:42Z</time>
      </trkpt>
      <trkpt lat="49.46354" lon="1.29759">
        <ele>154</ele>
        <time>2017-03-28T14:33:42Z</time>
      </trkpt>
      <trkpt lat="49.46359" lon="1.29761">
        <ele>154</ele>
        <time>2017-03-28T14:33:58Z</time>
      </trkpt>
      <trkpt lat="49.46364" lon="1.29761">
        <ele>154</ele>
        <time>2017-03-28T14:33:58Z</time>
      </trkpt>
      <trkpt lat="49.46369" lon="1.29761">
        <ele>154</ele>
        <time>2017-03-28T14:33:58Z</time>
      </trkpt>
      <trkpt lat="49.46373" lon="1.29759">
        <ele>154</ele>
        <time>2017-03-28T14:33:58Z</time>
      </trkpt>
      <trkpt lat="49.46378" lon="1.29757">
        <ele>155</ele>
        <time>2017-03-28T14:34:14Z</time>
      </trkpt>
      <trkpt lat="49.46383" lon="1.29758">
        <ele>155</ele>
        <time>2017-03-28T14:34:14Z</time>
      </trkpt>
      <trkpt lat="49.46388" lon="1.29759">
        <ele>155</ele>
        <time>2017-03-28T14:34:14Z</time>
      </trkpt>
      <trkpt lat="49.46393" lon="1.29758">
        <ele>155</ele>
        <time>2017-03-28T14:34:14Z</time>
      </trkpt>
      <trkpt lat="49.46397" lon="1.2976">
        <ele>155</ele>
        <time>2017-03-28T14:34:30Z</time>
      </trkpt>
      <trkpt lat="49.46402" lon="1.29761">
        <ele>155</ele>
        <time>2017-03-28T14:34:30Z</time>
      </trkpt>
      <trkpt lat="49.46408" lon="1.29758">
        <ele>155</ele>
        <time>2017-03-28T14:34:30Z</time>
      </trkpt>
      <trkpt lat="49.46413" lon="1.29757">
        <ele>155</ele>
        <time>2017-03-28T14:34:30Z</time>
      </trkpt>
      <trkpt lat="49.46418" lon="1.29757">
        <ele>155</ele>
        <time>2017-03-28T14:34:46Z</time>
      </trkpt>
      <trkpt lat="49.46422" lon="1.29758">
        <ele>155</ele>
        <time>2017-03-28T14:34:46Z</time>
      </trkpt>
      <trkpt lat="49.46426" lon="1.29761">
        <ele>155</ele>
        <time>2017-03-28T14:34:46Z</time>
      </trkpt>
      <trkpt lat="49.46429" lon="1.29765">
        <ele>155</ele>
        <time>2017-03-28T14:34:46Z</time>
      </trkpt>
      <trkpt lat="49.46431" lon="1.29771">
        <ele>155</ele>
        <time>2017-03-28T14:35:02Z</time>
      </trkpt>
      <trkpt lat="49.46432" lon="1.29779">
        <ele>155</ele>
        <time>2017-03-28T14:35:02Z</time>
      </trkpt>
      <trkpt lat="49.46434" lon="1.29787">
        <ele>155</ele>
        <time>2017-03-28T14:35:02Z</time>
      </trkpt>
      <trkpt lat="49.46436" lon="1.29794">
        <ele>157</ele>
        <time>2017-03-28T14:35:02Z</time>
      </trkpt>
      <trkpt lat="49.46437" lon="1.29801">
        <ele>157</ele>
        <time>2017-03-28T14:35:18Z</time>
      </trkpt>
      <trkpt lat="49.46439" lon="1.29807">
        <ele>157</ele>
        <time>2017-03-28T14:35:18Z</time>
      </trkpt>
      <trkpt lat="49.4644" lon="1.29812">
        <ele>157</ele>
        <time>2017-03-28T14:35:18Z</time>
      </trkpt>
      <trkpt lat="49.4644" lon="1.29819">
        <ele>157</ele>
        <time>2017-03-28T14:35:18Z</time>
      </trkpt>
      <trkpt lat="49.4644" lon="1.29828">
        <ele>157</ele>
        <time>2017-03-28T14:35:34Z</time>
      </trkpt>
      <trkpt lat="49.46438" lon="1.29836">
        <ele>157</ele>
        <time>2017-03-28T14:35:34Z</time>
      </trkpt>
      <trkpt lat="49.46439" lon="1.29844">
        <ele>157</ele>
        <time>2017-03-28T14:35:34Z</time>
      </trkpt>
      <trkpt lat="49.46439" lon="1.29852">
        <ele>157</ele>
        <time>2017-03-28T14:35:34Z</time>
      </trkpt>
      <trkpt lat="49.46438" lon="1.29859">
        <ele>157</ele>
        <time>2017-03-28T14:35:50Z</time>
      </trkpt>
      <trkpt lat="49.46437" lon="1.29865">
        <ele>157</ele>
        <time>2017-03-28T14:35:50Z</time>
      </trkpt>
      <trkpt lat="49.46436" lon="1.29872">
        <ele>157</ele>
        <time>2017-03-28T14:35:50Z</time>
      </trkpt>
      <trkpt lat="49.46435" lon="1.2988">
        <ele>158</ele>
        <time>2017-03-28T14:35:50Z</time>
      </trkpt>
      <trkpt lat="49.46434" lon="1.29888">
        <ele>158</ele>
        <time>2017-03-28T14:36:06Z</time>
      </trkpt>
      <trkpt lat="49.46434" lon="1.29894">
        <ele>158</ele>
        <time>2017-03-28T14:36:06Z</time>
      </trkpt>
      <trkpt lat="49.46433" lon="1.29902">
        <ele>158</ele>
        <time>2017-03-28T14:36:06Z</time>
      </trkpt>
      <trkpt lat="49.46433" lon="1.29909">
        <ele>158</ele>
        <time>2017-03-28T14:36:06Z</time>
      </trkpt>
      <trkpt lat="49.46433" lon="1.29917">
        <ele>158</ele>
        <time>2017-03-28T14:36:22Z</time>
      </trkpt>
      <trkpt lat="49.46433" lon="1.29926">
        <ele>158</ele>
        <time>2017-03-28T14:36:22Z</time>
      </trkpt>
      <trkpt lat="49.46433" lon="1.29933">
        <ele>158</ele>
        <time>2017-03-28T14:36:22Z</time>
      </trkpt>
      <trkpt lat="49.46433" lon="1.2994">
        <ele>158</ele>
        <time>2017-03-28T14:36:22Z</time>
      </trkpt>
      <trkpt lat="49.46432" lon="1.29947">
        <ele>158</ele>
        <time>2017-03-28T14:36:38Z</time>
      </trkpt>
      <trkpt lat="49.46433" lon="1.29954">
        <ele>158</ele>
        <time>2017-03-28T14:36:38Z</time>
      </trkpt>
      <trkpt lat="49.46433" lon="1.29961">
        <ele>159</ele>
        <time>2017-03-28T14:36:38Z</time>
      </trkpt>
      <trkpt lat="49.46433" lon="1.29967">
        <ele>159</ele>
        <time>2017-03-28T14:36:38Z</time>
      </trkpt>
      <trkpt lat="49.46433" lon="1.29974">
        <ele>159</ele>
        <time>2017-03-28T14:36:54Z</time>
      </trkpt>
      <trkpt lat="49.46432" lon="1.29983">
        <ele>159</ele>
        <time>2017-03-28T14:36:54Z</time>
      </trkpt>
      <trkpt lat="49.46432" lon="1.29992">
        <ele>159</ele>
        <time>2017-03-28T14:36:54Z</time>
      </trkpt>
      <trkpt lat="49.46433" lon="1.29999">
        <ele>159</ele>
        <time>2017-03-28T14:36:54Z</time>
      </trkpt>
      <trkpt lat="49.46433" lon="1.30006">
        <ele>159</ele>
        <time>2017-03-28T14:37:10Z</time>
      </trkpt>
      <trkpt lat="49.46433" lon="1.30013">
        <ele>159</ele>
        <time>2017-03-28T14:37:10Z</time>
      </trkpt>
      <trkpt lat="49.46433" lon="1.3002">
        <ele>159</ele>
        <time>2017-03-28T14:37:10Z</time>
      </trkpt>
      <trkpt lat="49.46433" lon="1.30027">
        <ele>159</ele>
        <time>2017-03-28T14:37:10Z</time>
      </trkpt>
      <trkpt lat="49.46433" lon="1.30035">
        <ele>159</ele>
        <time>2017-03-28T14:37:26Z</time>
      </trkpt>
      <trkpt lat="49.46433" lon="1.30043">
        <ele>159</ele>
        <time>2017-03-28T14:37:26Z</time>
      </trkpt>
      <trkpt lat="49.46433" lon="1.30052">
        <ele>159</ele>
        <time>2017-03-28T14:37:26Z</time>
      </trkpt>
      <trkpt lat="49.46433" lon="1.30061">
        <ele>159</ele>
        <time>2017-03-28T14:37:26Z</time>
      </trkpt>
      <trkpt lat="49.46432" lon="1.30069">
        <ele>159</ele>
        <time>2017-03-28T14:37:42Z</time>
      </trkpt>
      <trkpt lat="49.4643" lon="1.30076">
        <ele>159</ele>
        <time>2017-03-28T14:37:42Z</time>
      </trkpt>
      <trkpt lat="49.46431" lon="1.30083">
        <ele>159</ele>
        <time>2017-03-28T14:37:42Z</time>
      </trkpt>
      <trkpt lat="49.46432" lon="1.30089">
        <ele>159</ele>
        <time>2017-03-28T14:37:42Z</time>
      </trkpt>
      <trkpt lat="49.46431" lon="1.30095">
        <ele>159</ele>
        <time>2017-03-28T14:37:58Z</time>
      </trkpt>
      <trkpt lat="49.46431" lon="1.30102">
        <ele>159</ele>
        <time>2017-03-28T14:37:58Z</time>
      </trkpt>
      <trkpt lat="49.4643" lon="1.3011">
        <ele>159</ele>
        <time>2017-03-28T14:37:58Z</time>
      </trkpt>
      <trkpt lat="49.46429" lon="1.30117">
        <ele>159</ele>
        <time>2017-03-28T14:37:58Z</time>
      </trkpt>
      <trkpt lat="49.46429" lon="1.30125">
        <ele>160</ele>
        <time>2017-03-28T14:38:14Z</time>
      </trkpt>
      <trkpt lat="49.4643" lon="1.30132">
        <ele>160</ele>
        <time>2017-03-28T14:38:14Z</time>
      </trkpt>
      <trkpt lat="49.46428" lon="1.30139">
        <ele>160</ele>
        <time>2017-03-28T14:38:14Z</time>
      </trkpt>
      <trkpt lat="49.46428" lon="1.30147">
        <ele>160</ele>
        <time>2017-03-28T14:38:14Z</time>
      </trkpt>
      <trkpt lat="49.46428" lon="1.30154">
        <ele>160</ele>
        <time>2017-03-28T14:38:30Z</time>
      </trkpt>
      <trkpt lat="49.46427" lon="1.30161">
        <ele>160</ele>
        <time>2017-03-28T14:38:30Z</time>
      </trkpt>
      <trkpt lat="49.46426" lon="1.30167">
        <ele>160</ele>
        <time>2017-03-28T14:38:30Z</time>
      </trkpt>
      <trkpt lat="49.46426" lon="1.30174">
        <ele>160</ele>
        <time>2017-03-28T14:38:30Z</time>
      </trkpt>
      <trkpt lat="49.46426" lon="1.30181">
        <ele>160</ele>
        <time>2017-03-28T14:38:46Z</time>
      </trkpt>
      <trkpt lat="49.46426" lon="1.30188">
        <ele>160</ele>
        <time>2017-03-28T14:38:46Z</time>
      </trkpt>
      <trkpt lat="49.46427" lon="1.30194">
        <ele>160</ele>
        <time>2017-03-28T14:38:46Z</time>
      </trkpt>
      <trkpt lat="49.4643" lon="1.30199">
        <ele>160</ele>
        <time>2017-03-28T14:38:46Z</time>
      </trkpt>
      <trkpt lat="49.46433" lon="1.30207">
        <ele>160</ele>
        <time>2017-03-28T14:39:02Z</time>
      </trkpt>
      <trkpt lat="49.46436" lon="1.30213">
        <ele>159</ele>
        <time>2017-03-28T14:39:02Z</time>
      </trkpt>
      <trkpt lat="49.46438" lon="1.30218">
        <ele>159</ele>
        <time>2017-03-28T14:39:02Z</time>
      </trkpt>
      <trkpt lat="49.46441" lon="1.30223">
        <ele>159</ele>
        <time>2017-03-28T14:39:02Z</time>
      </trkpt>
      <trkpt lat="49.46444" lon="1.30229">
        <ele>159</ele>
        <time>2017-03-28T14:39:18Z</time>
      </trkpt>
      <trkpt lat="49.46448" lon="1.30235">
        <ele>159</ele>
        <time>2017-03-28T14:39:18Z</time>
      </trkpt>
      <trkpt lat="49.46451" lon="1.30242">
        <ele>159</ele>
        <time>2017-03-28T14:39:18Z</time>
      </trkpt>
      <trkpt lat="49.46454" lon="1.30247">
        <ele>159</ele>
        <time>2017-03-28T14:39:18Z</time>
      </trkpt>
      <trkpt lat="49.46458" lon="1.30253">
        <ele>159</ele>
        <time>2017-03-28T14:39:34Z</time>
      </trkpt>
      <trkpt lat="49.46461" lon="1.30259">
        <ele>156</ele>
        <time>2017-03-28T14:39:34Z</time>
      </trkpt>
      <trkpt lat="49.46465" lon="1.30264">
        <ele>156</ele>
        <time>2017-03-28T14:39:34Z</time>
      </trkpt>
      <trkpt lat="49.46468" lon="1.30271">
        <ele>156</ele>
        <time>2017-03-28T14:39:34Z</time>
      </trkpt>
      <trkpt lat="49.4647" lon="1.30276">
        <ele>156</ele>
        <time>2017-03-28T14:39:50Z</time>
      </trkpt>
      <trkpt lat="49.46473" lon="1.3028">
        <ele>156</ele>
        <time>2017-03-28T14:39:50Z</time>
      </trkpt>
      <trkpt lat="49.46476" lon="1.30287">
        <ele>156</ele>
        <time>2017-03-28T14:39:50Z</time>
      </trkpt>
      <trkpt lat="49.4648" lon="1.30293">
        <ele>154</ele>
        <time>2017-03-28T14:39:50Z</time>
      </trkpt>
      <trkpt lat="49.46482" lon="1.303">
        <ele>154</ele>
        <time>2017-03-28T14:40:06Z</time>
      </trkpt>
      <trkpt lat="49.46486" lon="1.30306">
        <ele>154</ele>
        <time>2017-03-28T14:40:06Z</time>
      </trkpt>
      <trkpt lat="49.46489" lon="1.30312">
        <ele>154</ele>
        <time>2017-03-28T14:40:06Z</time>
      </trkpt>
      <trkpt lat="49.46491" lon="1.30317">
        <ele>154</ele>
        <time>2017-03-28T14:40:06Z</time>
      </trkpt>
      <trkpt lat="49.46494" lon="1.30323">
        <ele>154</ele>
        <time>2017-03-28T14:40:22Z</time>
      </trkpt>
      <trkpt lat="49.46498" lon="1.30329">
        <ele>154</ele>
        <time>2017-03-28T14:40:22Z</time>
      </trkpt>
      <trkpt lat="49.46501" lon="1.30336">
        <ele>154</ele>
        <time>2017-03-28T14:40:22Z</time>
      </trkpt>
      <trkpt lat="49.46504" lon="1.30343">
        <ele>154</ele>
        <time>2017-03-28T14:40:22Z</time>
      </trkpt>
      <trkpt lat="49.46508" lon="1.30349">
        <ele>154</ele>
        <time>2017-03-28T14:40:38Z</time>
      </trkpt>
      <trkpt lat="49.4651" lon="1.30355">
        <ele>154</ele>
        <time>2017-03-28T14:40:38Z</time>
      </trkpt>
      <trkpt lat="49.46513" lon="1.30359">
        <ele>154</ele>
        <time>2017-03-28T14:40:38Z</time>
      </trkpt>
      <trkpt lat="49.46516" lon="1.30364">
        <ele>154</ele>
        <time>2017-03-28T14:40:38Z</time>
      </trkpt>
      <trkpt lat="49.46519" lon="1.30369">
        <ele>154</ele>
        <time>2017-03-28T14:40:54Z</time>
      </trkpt>
      <trkpt lat="49.46523" lon="1.30376">
        <ele>153</ele>
        <time>2017-03-28T14:40:54Z</time>
      </trkpt>
      <trkpt lat="49.46527" lon="1.30382">
        <ele>153</ele>
        <time>2017-03-28T14:40:54Z</time>
      </trkpt>
      <trkpt lat="49.4653" lon="1.30388">
        <ele>153</ele>
        <time>2017-03-28T14:40:54Z</time>
      </trkpt>
      <trkpt lat="49.46533" lon="1.30394">
        <ele>153</ele>
        <time>2017-03-28T14:41:10Z</time>
      </trkpt>
      <trkpt lat="49.46536" lon="1.304">
        <ele>153</ele>
        <time>2017-03-28T14:41:10Z</time>
      </trkpt>
      <trkpt lat="49.46538" lon="1.30407">
        <ele>153</ele>
        <time>2017-03-28T14:41:10Z</time>
      </trkpt>
      <trkpt lat="49.46541" lon="1.30415">
        <ele>153</ele>
        <time>2017-03-28T14:41:10Z</time>
      </trkpt>
      <trkpt lat="49.46543" lon="1.30421">
        <ele>153</ele>
        <time>2017-03-28T14:41:26Z</time>
      </trkpt>
      <trkpt lat="49.46547" lon="1.30426">
        <ele>153</ele>
        <time>2017-03-28T14:41:26Z</time>
      </trkpt>
      <trkpt lat="49.4655" lon="1.30432">
        <ele>153</ele>
        <time>2017-03-28T14:41:26Z</time>
      </trkpt>
      <trkpt lat="49.46554" lon="1.30438">
        <ele>153</ele>
        <time>2017-03-28T14:41:26Z</time>
      </trkpt>
      <trkpt lat="49.46557" lon="1.30444">
        <ele>153</ele>
        <time>2017-03-28T14:41:42Z</time>
      </trkpt>
      <trkpt lat="49.4656" lon="1.3045">
        <ele>153</ele>
        <time>2017-03-28T14:41:42Z</time>
      </trkpt>
      <trkpt lat="49.46564" lon="1.30456">
        <ele>153</ele>
        <time>2017-03-28T14:41:42Z</time>
      </trkpt>
      <trkpt lat="49.46567" lon="1.30463">
        <ele>152</ele>
        <time>2017-03-28T14:41:42Z</time>
      </trkpt>
      <trkpt lat="49.46569" lon="1.30469">
        <ele>152</ele>
        <time>2017-03-28T14:41:58Z</time>
      </trkpt>
      <trkpt lat="49.46571" lon="1.30476">
        <ele>152</ele>
        <time>2017-03-28T14:41:58Z</time>
      </trkpt>
      <trkpt lat="49.46575" lon="1.30481">
        <ele>152</ele>
        <time>2017-03-28T14:41:58Z</time>
      </trkpt>
      <trkpt lat="49.46577" lon="1.30488">
        <ele>152</ele>
        <time>2017-03-28T14:41:58Z</time>
      </trkpt>
      <trkpt lat="49.46579" lon="1.30496">
        <ele>152</ele>
        <time>2017-03-28T14:42:14Z</time>
      </trkpt>
      <trkpt lat="49.46579" lon="1.30504">
        <ele>152</ele>
        <time>2017-03-28T14:42:14Z</time>
      </trkpt>
      <trkpt lat="49.4658" lon="1.30511">
        <ele>152</ele>
        <time>2017-03-28T14:42:14Z</time>
      </trkpt>
      <trkpt lat="49.46581" lon="1.30517">
        <ele>152</ele>
        <time>2017-03-28T14:42:14Z</time>
      </trkpt>
      <trkpt lat="49.46583" lon="1.30524">
        <ele>152</ele>
        <time>2017-03-28T14:42:30Z</time>
      </trkpt>
      <trkpt lat="49.46584" lon="1.30532">
        <ele>152</ele>
        <time>2017-03-28T14:42:30Z</time>
      </trkpt>
      <trkpt lat="49.46586" lon="1.30538">
        <ele>152</ele>
        <time>2017-03-28T14:42:30Z</time>
      </trkpt>
      <trkpt lat="49.46587" lon="1.30546">
        <ele>151</ele>
        <time>2017-03-28T14:42:30Z</time>
      </trkpt>
      <trkpt lat="49.46588" lon="1.30553">
        <ele>151</ele>
        <time>2017-03-28T14:42:46Z</time>
      </trkpt>
      <trkpt lat="49.46589" lon="1.30561">
        <ele>151</ele>
        <time>2017-03-28T14:42:46Z</time>
      </trkpt>
      <trkpt lat="49.4659" lon="1.30569">
        <ele>151</ele>
        <time>2017-03-28T14:42:46Z</time>
      </trkpt>
      <trkpt lat="49.46591" lon="1.30576">
        <ele>151</ele>
        <time>2017-03-28T14:42:46Z</time>
      </trkpt>
      <trkpt lat="49.46593" lon="1.30582">
        <ele>151</ele>
        <time>2017-03-28T14:43:02Z</time>
      </trkpt>
      <trkpt lat="49.46594" lon="1.30589">
        <ele>151</ele>
        <time>2017-03-28T14:43:02Z</time>
      </trkpt>
      <trkpt lat="49.46596" lon="1.30597">
        <ele>151</ele>
        <time>2017-03-28T14:43:02Z</time>
      </trkpt>
      <trkpt lat="49.46597" lon="1.30604">
        <ele>151</ele>
        <time>2017-03-28T14:43:02Z</time>
      </trkpt>
      <trkpt lat="49.46598" lon="1.30611">
        <ele>151</ele>
        <time>2017-03-28T14:43:18Z</time>
      </trkpt>
      <trkpt lat="49.46599" lon="1.30619">
        <ele>151</ele>
        <time>2017-03-28T14:43:18Z</time>
      </trkpt>
      <trkpt lat="49.466" lon="1.30626">
        <ele>150</ele>
        <time>2017-03-28T14:43:18Z</time>
      </trkpt>
      <trkpt lat="49.46601" lon="1.30634">
        <ele>150</ele>
        <time>2017-03-28T14:43:18Z</time>
      </trkpt>
      <trkpt lat="49.46603" lon="1.30641">
        <ele>150</ele>
        <time>2017-03-28T14:43:34Z</time>
      </trkpt>
      <trkpt lat="49.46605" lon="1.30647">
        <ele>150</ele>
        <time>2017-03-28T14:43:34Z</time>
      </trkpt>
      <trkpt lat="49.46607" lon="1.30654">
        <ele>150</ele>
        <time>2017-03-28T14:43:34Z</time>
      </trkpt>
      <trkpt lat="49.46608" lon="1.30661">
        <ele>150</ele>
        <time>2017-03-28T14:43:34Z</time>
      </trkpt>
      <trkpt lat="49.46609" lon="1.30669">
        <ele>150</ele>
        <time>2017-03-28T14:43:52Z</time>
      </trkpt>
      <trkpt lat="49.4661" lon="1.30678">
        <ele>150</ele>
        <time>2017-03-28T14:43:52Z</time>
      </trkpt>
      <trkpt lat="49.46611" lon="1.30683">
        <ele>150</ele>
        <time>2017-03-28T14:43:52Z</time>
      </trkpt>
      <trkpt lat="49.46614" lon="1.30692">
        <ele>150</ele>
        <time>2017-03-28T14:43:52Z</time>
      </trkpt>
      <trkpt lat="49.46616" lon="1.30697">
        <ele>150</ele>
        <time>2017-03-28T14:44:06Z</time>
      </trkpt>
      <trkpt lat="49.46618" lon="1.30705">
        <ele>150</ele>
        <time>2017-03-28T14:44:06Z</time>
      </trkpt>
      <trkpt lat="49.4662" lon="1.30711">
        <ele>150</ele>
        <time>2017-03-28T14:44:06Z</time>
      </trkpt>
      <trkpt lat="49.46622" lon="1.30716">
        <ele>150</ele>
        <time>2017-03-28T14:44:06Z</time>
      </trkpt>
      <trkpt lat="49.46622" lon="1.30723">
        <ele>150</ele>
        <time>2017-03-28T14:44:23Z</time>
      </trkpt>
      <trkpt lat="49.46622" lon="1.30733">
        <ele>150</ele>
        <time>2017-03-28T14:44:23Z</time>
      </trkpt>
      <trkpt lat="49.46624" lon="1.30739">
        <ele>150</ele>
        <time>2017-03-28T14:44:23Z</time>
      </trkpt>
      <trkpt lat="49.46625" lon="1.30744">
        <ele>152</ele>
        <time>2017-03-28T14:44:23Z</time>
      </trkpt>
      <trkpt lat="49.46626" lon="1.30751">
        <ele>152</ele>
        <time>2017-03-28T14:44:40Z</time>
      </trkpt>
      <trkpt lat="49.46628" lon="1.30762">
        <ele>152</ele>
        <time>2017-03-28T14:44:40Z</time>
      </trkpt>
      <trkpt lat="49.46629" lon="1.30768">
        <ele>152</ele>
        <time>2017-03-28T14:44:40Z</time>
      </trkpt>
      <trkpt lat="49.46632" lon="1.30778">
        <ele>152</ele>
        <time>2017-03-28T14:44:40Z</time>
      </trkpt>
      <trkpt lat="49.46634" lon="1.30783">
        <ele>152</ele>
        <time>2017-03-28T14:44:55Z</time>
      </trkpt>
      <trkpt lat="49.46636" lon="1.30791">
        <ele>152</ele>
        <time>2017-03-28T14:44:55Z</time>
      </trkpt>
      <trkpt lat="49.46638" lon="1.30799">
        <ele>150</ele>
        <time>2017-03-28T14:44:55Z</time>
      </trkpt>
      <trkpt lat="49.46639" lon="1.30806">
        <ele>150</ele>
        <time>2017-03-28T14:44:55Z</time>
      </trkpt>
      <trkpt lat="49.4664" lon="1.30816">
        <ele>150</ele>
        <time>2017-03-28T14:45:10Z</time>
      </trkpt>
      <trkpt lat="49.4664" lon="1.30822">
        <ele>150</ele>
        <time>2017-03-28T14:45:10Z</time>
      </trkpt>
      <trkpt lat="49.46643" lon="1.3083">
        <ele>150</ele>
        <time>2017-03-28T14:45:10Z</time>
      </trkpt>
      <trkpt lat="49.46646" lon="1.30835">
        <ele>150</ele>
        <time>2017-03-28T14:45:10Z</time>
      </trkpt>
      <trkpt lat="49.46649" lon="1.30841">
        <ele>150</ele>
        <time>2017-03-28T14:45:27Z</time>
      </trkpt>
      <trkpt lat="49.4665" lon="1.30848">
        <ele>150</ele>
        <time>2017-03-28T14:45:27Z</time>
      </trkpt>
      <trkpt lat="49.46652" lon="1.30857">
        <ele>150</ele>
        <time>2017-03-28T14:45:27Z</time>
      </trkpt>
      <trkpt lat="49.46653" lon="1.30863">
        <ele>150</ele>
        <time>2017-03-28T14:45:27Z</time>
      </trkpt>
      <trkpt lat="49.46656" lon="1.30871">
        <ele>150</ele>
        <time>2017-03-28T14:45:43Z</time>
      </trkpt>
      <trkpt lat="49.46657" lon="1.30875">
        <ele>149</ele>
        <time>2017-03-28T14:45:43Z</time>
      </trkpt>
      <trkpt lat="49.46659" lon="1.30883">
        <ele>149</ele>
        <time>2017-03-28T14:45:44Z</time>
      </trkpt>
      <trkpt lat="49.46662" lon="1.30892">
        <ele>149</ele>
        <time>2017-03-28T14:45:44Z</time>
      </trkpt>
      <trkpt lat="49.46663" lon="1.30897">
        <ele>149</ele>
        <time>2017-03-28T14:46:00Z</time>
      </trkpt>
      <trkpt lat="49.46666" lon="1.30904">
        <ele>149</ele>
        <time>2017-03-28T14:46:00Z</time>
      </trkpt>
      <trkpt lat="49.46667" lon="1.30909">
        <ele>149</ele>
        <time>2017-03-28T14:46:00Z</time>
      </trkpt>
      <trkpt lat="49.4667" lon="1.30919">
        <ele>149</ele>
        <time>2017-03-28T14:46:00Z</time>
      </trkpt>
      <trkpt lat="49.46672" lon="1.30924">
        <ele>149</ele>
        <time>2017-03-28T14:46:15Z</time>
      </trkpt>
      <trkpt lat="49.46674" lon="1.30932">
        <ele>149</ele>
        <time>2017-03-28T14:46:15Z</time>
      </trkpt>
      <trkpt lat="49.46676" lon="1.30936">
        <ele>149</ele>
        <time>2017-03-28T14:46:15Z</time>
      </trkpt>
      <trkpt lat="49.46679" lon="1.30943">
        <ele>149</ele>
        <time>2017-03-28T14:46:15Z</time>
      </trkpt>
      <trkpt lat="49.46682" lon="1.30949">
        <ele>149</ele>
        <time>2017-03-28T14:46:31Z</time>
      </trkpt>
      <trkpt lat="49.46684" lon="1.30957">
        <ele>149</ele>
        <time>2017-03-28T14:46:31Z</time>
      </trkpt>
      <trkpt lat="49.46687" lon="1.30967">
        <ele>148</ele>
        <time>2017-03-28T14:46:31Z</time>
      </trkpt>
      <trkpt lat="49.46688" lon="1.30974">
        <ele>148</ele>
        <time>2017-03-28T14:46:31Z</time>
      </trkpt>
      <trkpt lat="49.46692" lon="1.30983">
        <ele>148</ele>
        <time>2017-03-28T14:46:47Z</time>
      </trkpt>
      <trkpt lat="49.46694" lon="1.30988">
        <ele>148</ele>
        <time>2017-03-28T14:46:47Z</time>
      </trkpt>
      <trkpt lat="49.46697" lon="1.30994">
        <ele>148</ele>
        <time>2017-03-28T14:46:47Z</time>
      </trkpt>
      <trkpt lat="49.467" lon="1.30997">
        <ele>148</ele>
        <time>2017-03-28T14:46:47Z</time>
      </trkpt>
      <trkpt lat="49.46705" lon="1.31002">
        <ele>148</ele>
        <time>2017-03-28T14:47:04Z</time>
      </trkpt>
      <trkpt lat="49.46708" lon="1.31007">
        <ele>148</ele>
        <time>2017-03-28T14:47:04Z</time>
      </trkpt>
      <trkpt lat="49.46712" lon="1.31013">
        <ele>149</ele>
        <time>2017-03-28T14:47:04Z</time>
      </trkpt>
      <trkpt lat="49.46715" lon="1.31017">
        <ele>149</ele>
        <time>2017-03-28T14:47:04Z</time>
      </trkpt>
      <trkpt lat="49.46718" lon="1.31021">
        <ele>149</ele>
        <time>2017-03-28T14:47:19Z</time>
      </trkpt>
      <trkpt lat="49.46722" lon="1.31025">
        <ele>149</ele>
        <time>2017-03-28T14:47:19Z</time>
      </trkpt>
      <trkpt lat="49.46726" lon="1.31032">
        <ele>149</ele>
        <time>2017-03-28T14:47:19Z</time>
      </trkpt>
      <trkpt lat="49.46729" lon="1.31036">
        <ele>149</ele>
        <time>2017-03-28T14:47:19Z</time>
      </trkpt>
      <trkpt lat="49.46733" lon="1.31042">
        <ele>146</ele>
        <time>2017-03-28T14:47:35Z</time>
      </trkpt>
      <trkpt lat="49.46735" lon="1.31047">
        <ele>146</ele>
        <time>2017-03-28T14:47:35Z</time>
      </trkpt>
      <trkpt lat="49.46737" lon="1.31055">
        <ele>146</ele>
        <time>2017-03-28T14:47:35Z</time>
      </trkpt>
      <trkpt lat="49.46741" lon="1.31061">
        <ele>146</ele>
        <time>2017-03-28T14:47:35Z</time>
      </trkpt>
      <trkpt lat="49.46746" lon="1.31066">
        <ele>146</ele>
        <time>2017-03-28T14:47:52Z</time>
      </trkpt>
      <trkpt lat="49.46749" lon="1.31071">
        <ele>146</ele>
        <time>2017-03-28T14:47:52Z</time>
      </trkpt>
      <trkpt lat="49.46752" lon="1.31076">
        <ele>146</ele>
        <time>2017-03-28T14:47:52Z</time>
      </trkpt>
      <trkpt lat="49.46758" lon="1.31082">
        <ele>146</ele>
        <time>2017-03-28T14:47:52Z</time>
      </trkpt>
      <trkpt lat="49.46761" lon="1.31084">
        <ele>146</ele>
        <time>2017-03-28T14:48:07Z</time>
      </trkpt>
      <trkpt lat="49.46765" lon="1.31089">
        <ele>146</ele>
        <time>2017-03-28T14:48:07Z</time>
      </trkpt>
      <trkpt lat="49.4677" lon="1.31095">
        <ele>146</ele>
        <time>2017-03-28T14:48:07Z</time>
      </trkpt>
      <trkpt lat="49.46774" lon="1.311">
        <ele>146</ele>
        <time>2017-03-28T14:48:07Z</time>
      </trkpt>
      <trkpt lat="49.46777" lon="1.31103">
        <ele>146</ele>
        <time>2017-03-28T14:48:23Z</time>
      </trkpt>
      <trkpt lat="49.4678" lon="1.31108">
        <ele>146</ele>
        <time>2017-03-28T14:48:23Z</time>
      </trkpt>
      <trkpt lat="49.46786" lon="1.31115">
        <ele>146</ele>
        <time>2017-03-28T14:48:23Z</time>
      </trkpt>
      <trkpt lat="49.46788" lon="1.31118">
        <ele>146</ele>
        <time>2017-03-28T14:48:23Z</time>
      </trkpt>
      <trkpt lat="49.46792" lon="1.31124">
        <ele>146</ele>
        <time>2017-03-28T14:48:38Z</time>
      </trkpt>
      <trkpt lat="49.46797" lon="1.31129">
        <ele>145</ele>
        <time>2017-03-28T14:48:38Z</time>
      </trkpt>
      <trkpt lat="49.46802" lon="1.31131">
        <ele>145</ele>
        <time>2017-03-28T14:48:38Z</time>
      </trkpt>
      <trkpt lat="49.46805" lon="1.31133">
        <ele>145</ele>
        <time>2017-03-28T14:48:38Z</time>
      </trkpt>
      <trkpt lat="49.46808" lon="1.31138">
        <ele>145</ele>
        <time>2017-03-28T14:48:55Z</time>
      </trkpt>
      <trkpt lat="49.46812" lon="1.31141">
        <ele>145</ele>
        <time>2017-03-28T14:48:55Z</time>
      </trkpt>
      <trkpt lat="49.46816" lon="1.31147">
        <ele>145</ele>
        <time>2017-03-28T14:48:55Z</time>
      </trkpt>
      <trkpt lat="49.46819" lon="1.3115">
        <ele>145</ele>
        <time>2017-03-28T14:48:55Z</time>
      </trkpt>
      <trkpt lat="49.46821" lon="1.31148">
        <ele>145</ele>
        <time>2017-03-28T14:52:03Z</time>
      </trkpt>
      <trkpt lat="49.46822" lon="1.31148">
        <ele>145</ele>
        <time>2017-03-28T14:52:03Z</time>
      </trkpt>
      <trkpt lat="49.46823" lon="1.31149">
        <ele>145</ele>
        <time>2017-03-28T14:52:03Z</time>
      </trkpt>
      <trkpt lat="49.46827" lon="1.31146">
        <ele>145</ele>
        <time>2017-03-28T14:52:03Z</time>
      </trkpt>
      <trkpt lat="49.4683" lon="1.31141">
        <ele>145</ele>
        <time>2017-03-28T14:52:03Z</time>
      </trkpt>
      <trkpt lat="49.46827" lon="1.31154">
        <ele>145</ele>
        <time>2017-03-28T14:53:24Z</time>
      </trkpt>
      <trkpt lat="49.46831" lon="1.31157">
        <ele>145</ele>
        <time>2017-03-28T14:53:24Z</time>
      </trkpt>
      <trkpt lat="49.46838" lon="1.31163">
        <ele>145</ele>
        <time>2017-03-28T14:53:24Z</time>
      </trkpt>
      <trkpt lat="49.46841" lon="1.31166">
        <ele>145</ele>
        <time>2017-03-28T14:53:24Z</time>
      </trkpt>
      <trkpt lat="49.46846" lon="1.31171">
        <ele>145</ele>
        <time>2017-03-28T14:53:24Z</time>
      </trkpt>
      <trkpt lat="49.46849" lon="1.31173">
        <ele>145</ele>
        <time>2017-03-28T14:53:38Z</time>
      </trkpt>
      <trkpt lat="49.46853" lon="1.31177">
        <ele>145</ele>
        <time>2017-03-28T14:53:38Z</time>
      </trkpt>
      <trkpt lat="49.46857" lon="1.3118">
        <ele>145</ele>
        <time>2017-03-28T14:53:38Z</time>
      </trkpt>
      <trkpt lat="49.4686" lon="1.31184">
        <ele>145</ele>
        <time>2017-03-28T14:53:38Z</time>
      </trkpt>
      <trkpt lat="49.46863" lon="1.31189">
        <ele>145</ele>
        <time>2017-03-28T14:53:55Z</time>
      </trkpt>
      <trkpt lat="49.46866" lon="1.31193">
        <ele>145</ele>
        <time>2017-03-28T14:53:55Z</time>
      </trkpt>
      <trkpt lat="49.46868" lon="1.31197">
        <ele>145</ele>
        <time>2017-03-28T14:53:55Z</time>
      </trkpt>
      <trkpt lat="49.46872" lon="1.31202">
        <ele>145</ele>
        <time>2017-03-28T14:53:55Z</time>
      </trkpt>
      <trkpt lat="49.46876" lon="1.31205">
        <ele>148</ele>
        <time>2017-03-28T14:54:11Z</time>
      </trkpt>
      <trkpt lat="49.46882" lon="1.31209">
        <ele>148</ele>
        <time>2017-03-28T14:54:12Z</time>
      </trkpt>
      <trkpt lat="49.46885" lon="1.31213">
        <ele>148</ele>
        <time>2017-03-28T14:54:12Z</time>
      </trkpt>
      <trkpt lat="49.46889" lon="1.31219">
        <ele>148</ele>
        <time>2017-03-28T14:54:12Z</time>
      </trkpt>
      <trkpt lat="49.46892" lon="1.31223">
        <ele>148</ele>
        <time>2017-03-28T14:54:27Z</time>
      </trkpt>
      <trkpt lat="49.46896" lon="1.31227">
        <ele>148</ele>
        <time>2017-03-28T14:54:27Z</time>
      </trkpt>
      <trkpt lat="49.46899" lon="1.31229">
        <ele>148</ele>
        <time>2017-03-28T14:54:27Z</time>
      </trkpt>
      <trkpt lat="49.46901" lon="1.31234">
        <ele>148</ele>
        <time>2017-03-28T14:54:27Z</time>
      </trkpt>
      <trkpt lat="49.46903" lon="1.31239">
        <ele>148</ele>
        <time>2017-03-28T14:54:44Z</time>
      </trkpt>
      <trkpt lat="49.4691" lon="1.31244">
        <ele>148</ele>
        <time>2017-03-28T14:54:44Z</time>
      </trkpt>
      <trkpt lat="49.46913" lon="1.31248">
        <ele>148</ele>
        <time>2017-03-28T14:54:44Z</time>
      </trkpt>
      <trkpt lat="49.46914" lon="1.31256">
        <ele>148</ele>
        <time>2017-03-28T14:54:44Z</time>
      </trkpt>
      <trkpt lat="49.46916" lon="1.31262">
        <ele>148</ele>
        <time>2017-03-28T14:55:00Z</time>
      </trkpt>
      <trkpt lat="49.46919" lon="1.31267">
        <ele>148</ele>
        <time>2017-03-28T14:55:00Z</time>
      </trkpt>
      <trkpt lat="49.46923" lon="1.31274">
        <ele>148</ele>
        <time>2017-03-28T14:55:00Z</time>
      </trkpt>
      <trkpt lat="49.46927" lon="1.31282">
        <ele>148</ele>
        <time>2017-03-28T14:55:00Z</time>
      </trkpt>
      <trkpt lat="49.46929" lon="1.31287">
        <ele>148</ele>
        <time>2017-03-28T14:55:14Z</time>
      </trkpt>
      <trkpt lat="49.46932" lon="1.31291">
        <ele>148</ele>
        <time>2017-03-28T14:55:14Z</time>
      </trkpt>
      <trkpt lat="49.46935" lon="1.31294">
        <ele>147</ele>
        <time>2017-03-28T14:55:14Z</time>
      </trkpt>
      <trkpt lat="49.46938" lon="1.31298">
        <ele>147</ele>
        <time>2017-03-28T14:55:14Z</time>
      </trkpt>
      <trkpt lat="49.46942" lon="1.31305">
        <ele>147</ele>
        <time>2017-03-28T14:55:31Z</time>
      </trkpt>
      <trkpt lat="49.46947" lon="1.31315">
        <ele>147</ele>
        <time>2017-03-28T14:55:31Z</time>
      </trkpt>
      <trkpt lat="49.4695" lon="1.31319">
        <ele>147</ele>
        <time>2017-03-28T14:55:31Z</time>
      </trkpt>
      <trkpt lat="49.46956" lon="1.31322">
        <ele>147</ele>
        <time>2017-03-28T14:55:31Z</time>
      </trkpt>
      <trkpt lat="49.4696" lon="1.31326">
        <ele>148</ele>
        <time>2017-03-28T14:55:54Z</time>
      </trkpt>
      <trkpt lat="49.46961" lon="1.31327">
        <ele>148</ele>
        <time>2017-03-28T14:55:54Z</time>
      </trkpt>
      <trkpt lat="49.46969" lon="1.31345">
        <ele>148</ele>
        <time>2017-03-28T14:55:54Z</time>
      </trkpt>
      <trkpt lat="49.46969" lon="1.31348">
        <ele>148</ele>
        <time>2017-03-28T14:55:54Z</time>
      </trkpt>
      <trkpt lat="49.46969" lon="1.31352">
        <ele>148</ele>
        <time>2017-03-28T14:56:10Z</time>
      </trkpt>
      <trkpt lat="49.4697" lon="1.31357">
        <ele>148</ele>
        <time>2017-03-28T14:56:10Z</time>
      </trkpt>
      <trkpt lat="49.46974" lon="1.31373">
        <ele>148</ele>
        <time>2017-03-28T14:56:10Z</time>
      </trkpt>
      <trkpt lat="49.46976" lon="1.31381">
        <ele>147</ele>
        <time>2017-03-28T14:56:10Z</time>
      </trkpt>
      <trkpt lat="49.46979" lon="1.3139">
        <ele>147</ele>
        <time>2017-03-28T14:56:26Z</time>
      </trkpt>
      <trkpt lat="49.46981" lon="1.31398">
        <ele>147</ele>
        <time>2017-03-28T14:56:26Z</time>
      </trkpt>
      <trkpt lat="49.46983" lon="1.31405">
        <ele>147</ele>
        <time>2017-03-28T14:56:26Z</time>
      </trkpt>
      <trkpt lat="49.46986" lon="1.31411">
        <ele>147</ele>
        <time>2017-03-28T14:56:26Z</time>
      </trkpt>
      <trkpt lat="49.46989" lon="1.31415">
        <ele>147</ele>
        <time>2017-03-28T14:56:42Z</time>
      </trkpt>
      <trkpt lat="49.46993" lon="1.31419">
        <ele>147</ele>
        <time>2017-03-28T14:56:42Z</time>
      </trkpt>
      <trkpt lat="49.46995" lon="1.31426">
        <ele>147</ele>
        <time>2017-03-28T14:56:42Z</time>
      </trkpt>
      <trkpt lat="49.46997" lon="1.31433">
        <ele>147</ele>
        <time>2017-03-28T14:56:42Z</time>
      </trkpt>
      <trkpt lat="49.46999" lon="1.31439">
        <ele>147</ele>
        <time>2017-03-28T14:56:58Z</time>
      </trkpt>
      <trkpt lat="49.47002" lon="1.31446">
        <ele>147</ele>
        <time>2017-03-28T14:56:58Z</time>
      </trkpt>
      <trkpt lat="49.47004" lon="1.31454">
        <ele>147</ele>
        <time>2017-03-28T14:56:58Z</time>
      </trkpt>
      <trkpt lat="49.47007" lon="1.31461">
        <ele>146</ele>
        <time>2017-03-28T14:56:58Z</time>
      </trkpt>
      <trkpt lat="49.47009" lon="1.31468">
        <ele>146</ele>
        <time>2017-03-28T14:57:14Z</time>
      </trkpt>
      <trkpt lat="49.47012" lon="1.31473">
        <ele>146</ele>
        <time>2017-03-28T14:57:14Z</time>
      </trkpt>
      <trkpt lat="49.47014" lon="1.31479">
        <ele>146</ele>
        <time>2017-03-28T14:57:14Z</time>
      </trkpt>
      <trkpt lat="49.47017" lon="1.31484">
        <ele>146</ele>
        <time>2017-03-28T14:57:14Z</time>
      </trkpt>
      <trkpt lat="49.47021" lon="1.3149">
        <ele>146</ele>
        <time>2017-03-28T14:57:30Z</time>
      </trkpt>
      <trkpt lat="49.47025" lon="1.31495">
        <ele>146</ele>
        <time>2017-03-28T14:57:30Z</time>
      </trkpt>
      <trkpt lat="49.47028" lon="1.31501">
        <ele>146</ele>
        <time>2017-03-28T14:57:30Z</time>
      </trkpt>
      <trkpt lat="49.47032" lon="1.31506">
        <ele>146</ele>
        <time>2017-03-28T14:57:30Z</time>
      </trkpt>
      <trkpt lat="49.47036" lon="1.31511">
        <ele>146</ele>
        <time>2017-03-28T14:57:47Z</time>
      </trkpt>
      <trkpt lat="49.47039" lon="1.31516">
        <ele>146</ele>
        <time>2017-03-28T14:57:47Z</time>
      </trkpt>
      <trkpt lat="49.47042" lon="1.3152">
        <ele>147</ele>
        <time>2017-03-28T14:57:47Z</time>
      </trkpt>
      <trkpt lat="49.47046" lon="1.31525">
        <ele>147</ele>
        <time>2017-03-28T14:57:47Z</time>
      </trkpt>
      <trkpt lat="49.47051" lon="1.3153">
        <ele>147</ele>
        <time>2017-03-28T14:58:03Z</time>
      </trkpt>
      <trkpt lat="49.47054" lon="1.31536">
        <ele>147</ele>
        <time>2017-03-28T14:58:03Z</time>
      </trkpt>
      <trkpt lat="49.47056" lon="1.31542">
        <ele>146</ele>
        <time>2017-03-28T14:58:04Z</time>
      </trkpt>
      <trkpt lat="49.47058" lon="1.3155">
        <ele>146</ele>
        <time>2017-03-28T14:58:04Z</time>
      </trkpt>
      <trkpt lat="49.47059" lon="1.31555">
        <ele>146</ele>
        <time>2017-03-28T14:58:18Z</time>
      </trkpt>
      <trkpt lat="49.47062" lon="1.31564">
        <ele>146</ele>
        <time>2017-03-28T14:58:18Z</time>
      </trkpt>
      <trkpt lat="49.47063" lon="1.31569">
        <ele>146</ele>
        <time>2017-03-28T14:58:18Z</time>
      </trkpt>
      <trkpt lat="49.47066" lon="1.31576">
        <ele>146</ele>
        <time>2017-03-28T14:58:18Z</time>
      </trkpt>
      <trkpt lat="49.47068" lon="1.31583">
        <ele>146</ele>
        <time>2017-03-28T14:58:34Z</time>
      </trkpt>
      <trkpt lat="49.4707" lon="1.31591">
        <ele>146</ele>
        <time>2017-03-28T14:58:34Z</time>
      </trkpt>
      <trkpt lat="49.47072" lon="1.31598">
        <ele>146</ele>
        <time>2017-03-28T14:58:34Z</time>
      </trkpt>
      <trkpt lat="49.47073" lon="1.31606">
        <ele>146</ele>
        <time>2017-03-28T14:58:34Z</time>
      </trkpt>
      <trkpt lat="49.47075" lon="1.31612">
        <ele>146</ele>
        <time>2017-03-28T14:58:51Z</time>
      </trkpt>
      <trkpt lat="49.47078" lon="1.31619">
        <ele>146</ele>
        <time>2017-03-28T14:58:51Z</time>
      </trkpt>
      <trkpt lat="49.4708" lon="1.31626">
        <ele>146</ele>
        <time>2017-03-28T14:58:51Z</time>
      </trkpt>
      <trkpt lat="49.47081" lon="1.31633">
        <ele>146</ele>
        <time>2017-03-28T14:58:51Z</time>
      </trkpt>
      <trkpt lat="49.47083" lon="1.3164">
        <ele>146</ele>
        <time>2017-03-28T14:59:06Z</time>
      </trkpt>
      <trkpt lat="49.47086" lon="1.31647">
        <ele>146</ele>
        <time>2017-03-28T14:59:06Z</time>
      </trkpt>
      <trkpt lat="49.47089" lon="1.31653">
        <ele>146</ele>
        <time>2017-03-28T14:59:06Z</time>
      </trkpt>
      <trkpt lat="49.47091" lon="1.3166">
        <ele>146</ele>
        <time>2017-03-28T14:59:06Z</time>
      </trkpt>
      <trkpt lat="49.47093" lon="1.31668">
        <ele>146</ele>
        <time>2017-03-28T14:59:23Z</time>
      </trkpt>
      <trkpt lat="49.47096" lon="1.31676">
        <ele>146</ele>
        <time>2017-03-28T14:59:23Z</time>
      </trkpt>
      <trkpt lat="49.47098" lon="1.31681">
        <ele>146</ele>
        <time>2017-03-28T14:59:23Z</time>
      </trkpt>
      <trkpt lat="49.47101" lon="1.31687">
        <ele>146</ele>
        <time>2017-03-28T14:59:23Z</time>
      </trkpt>
      <trkpt lat="49.47104" lon="1.31692">
        <ele>146</ele>
        <time>2017-03-28T14:59:38Z</time>
      </trkpt>
      <trkpt lat="49.47107" lon="1.31698">
        <ele>146</ele>
        <time>2017-03-28T14:59:38Z</time>
      </trkpt>
      <trkpt lat="49.47109" lon="1.31705">
        <ele>146</ele>
        <time>2017-03-28T14:59:38Z</time>
      </trkpt>
      <trkpt lat="49.47111" lon="1.31712">
        <ele>145</ele>
        <time>2017-03-28T14:59:38Z</time>
      </trkpt>
      <trkpt lat="49.47115" lon="1.31718">
        <ele>145</ele>
        <time>2017-03-28T14:59:55Z</time>
      </trkpt>
      <trkpt lat="49.47118" lon="1.31724">
        <ele>145</ele>
        <time>2017-03-28T14:59:55Z</time>
      </trkpt>
      <trkpt lat="49.47124" lon="1.3173">
        <ele>145</ele>
        <time>2017-03-28T14:59:55Z</time>
      </trkpt>
      <trkpt lat="49.47126" lon="1.31734">
        <ele>138</ele>
        <time>2017-03-28T14:59:55Z</time>
      </trkpt>
      <trkpt lat="49.4713" lon="1.31739">
        <ele>138</ele>
        <time>2017-03-28T15:00:10Z</time>
      </trkpt>
      <trkpt lat="49.47133" lon="1.31746">
        <ele>138</ele>
        <time>2017-03-28T15:00:10Z</time>
      </trkpt>
      <trkpt lat="49.47135" lon="1.31754">
        <ele>138</ele>
        <time>2017-03-28T15:00:10Z</time>
      </trkpt>
      <trkpt lat="49.47138" lon="1.31763">
        <ele>138</ele>
        <time>2017-03-28T15:00:10Z</time>
      </trkpt>
      <trkpt lat="49.4714" lon="1.31769">
        <ele>138</ele>
        <time>2017-03-28T15:00:26Z</time>
      </trkpt>
      <trkpt lat="49.47142" lon="1.31778">
        <ele>138</ele>
        <time>2017-03-28T15:00:26Z</time>
      </trkpt>
      <trkpt lat="49.47142" lon="1.31786">
        <ele>138</ele>
        <time>2017-03-28T15:00:26Z</time>
      </trkpt>
      <trkpt lat="49.47143" lon="1.31792">
        <ele>138</ele>
        <time>2017-03-28T15:00:26Z</time>
      </trkpt>
      <trkpt lat="49.47145" lon="1.31799">
        <ele>138</ele>
        <time>2017-03-28T15:00:42Z</time>
      </trkpt>
      <trkpt lat="49.47146" lon="1.31805">
        <ele>138</ele>
        <time>2017-03-28T15:00:42Z</time>
      </trkpt>
      <trkpt lat="49.47147" lon="1.31812">
        <ele>138</ele>
        <time>2017-03-28T15:00:42Z</time>
      </trkpt>
      <trkpt lat="49.47149" lon="1.31818">
        <ele>138</ele>
        <time>2017-03-28T15:00:42Z</time>
      </trkpt>
      <trkpt lat="49.4715" lon="1.31822">
        <ele>138</ele>
        <time>2017-03-28T15:00:58Z</time>
      </trkpt>
      <trkpt lat="49.47155" lon="1.31826">
        <ele>138</ele>
        <time>2017-03-28T15:00:58Z</time>
      </trkpt>
      <trkpt lat="49.47159" lon="1.31832">
        <ele>138</ele>
        <time>2017-03-28T15:00:58Z</time>
      </trkpt>
      <trkpt lat="49.4716" lon="1.31842">
        <ele>138</ele>
        <time>2017-03-28T15:00:58Z</time>
      </trkpt>
      <trkpt lat="49.47159" lon="1.3185">
        <ele>138</ele>
        <time>2017-03-28T15:01:14Z</time>
      </trkpt>
      <trkpt lat="49.47159" lon="1.31858">
        <ele>138</ele>
        <time>2017-03-28T15:01:14Z</time>
      </trkpt>
      <trkpt lat="49.47159" lon="1.31866">
        <ele>138</ele>
        <time>2017-03-28T15:01:14Z</time>
      </trkpt>
      <trkpt lat="49.47156" lon="1.31876">
        <ele>138</ele>
        <time>2017-03-28T15:01:14Z</time>
      </trkpt>
      <trkpt lat="49.47156" lon="1.31885">
        <ele>138</ele>
        <time>2017-03-28T15:01:30Z</time>
      </trkpt>
      <trkpt lat="49.47157" lon="1.31894">
        <ele>138</ele>
        <time>2017-03-28T15:01:30Z</time>
      </trkpt>
      <trkpt lat="49.47158" lon="1.31902">
        <ele>138</ele>
        <time>2017-03-28T15:01:30Z</time>
      </trkpt>
      <trkpt lat="49.47159" lon="1.3191">
        <ele>138</ele>
        <time>2017-03-28T15:01:30Z</time>
      </trkpt>
      <trkpt lat="49.47159" lon="1.31918">
        <ele>138</ele>
        <time>2017-03-28T15:01:46Z</time>
      </trkpt>
      <trkpt lat="49.4716" lon="1.31926">
        <ele>138</ele>
        <time>2017-03-28T15:01:46Z</time>
      </trkpt>
      <trkpt lat="49.4716" lon="1.31932">
        <ele>138</ele>
        <time>2017-03-28T15:01:46Z</time>
      </trkpt>
      <trkpt lat="49.47159" lon="1.31939">
        <ele>138</ele>
        <time>2017-03-28T15:01:46Z</time>
      </trkpt>
      <trkpt lat="49.47158" lon="1.31948">
        <ele>138</ele>
        <time>2017-03-28T15:02:02Z</time>
      </trkpt>
      <trkpt lat="49.47158" lon="1.31956">
        <ele>138</ele>
        <time>2017-03-28T15:02:02Z</time>
      </trkpt>
      <trkpt lat="49.47159" lon="1.31961">
        <ele>140</ele>
        <time>2017-03-28T15:02:02Z</time>
      </trkpt>
      <trkpt lat="49.47159" lon="1.31967">
        <ele>140</ele>
        <time>2017-03-28T15:02:02Z</time>
      </trkpt>
      <trkpt lat="49.47162" lon="1.31976">
        <ele>140</ele>
        <time>2017-03-28T15:02:18Z</time>
      </trkpt>
      <trkpt lat="49.47164" lon="1.31982">
        <ele>140</ele>
        <time>2017-03-28T15:02:18Z</time>
      </trkpt>
      <trkpt lat="49.47166" lon="1.31989">
        <ele>140</ele>
        <time>2017-03-28T15:02:18Z</time>
      </trkpt>
      <trkpt lat="49.47166" lon="1.31996">
        <ele>140</ele>
        <time>2017-03-28T15:02:18Z</time>
      </trkpt>
      <trkpt lat="49.47166" lon="1.32005">
        <ele>140</ele>
        <time>2017-03-28T15:02:34Z</time>
      </trkpt>
      <trkpt lat="49.47165" lon="1.32013">
        <ele>140</ele>
        <time>2017-03-28T15:02:34Z</time>
      </trkpt>
      <trkpt lat="49.47165" lon="1.3202">
        <ele>140</ele>
        <time>2017-03-28T15:02:34Z</time>
      </trkpt>
      <trkpt lat="49.47169" lon="1.32026">
        <ele>140</ele>
        <time>2017-03-28T15:02:34Z</time>
      </trkpt>
      <trkpt lat="49.47173" lon="1.3203">
        <ele>140</ele>
        <time>2017-03-28T15:02:50Z</time>
      </trkpt>
      <trkpt lat="49.47177" lon="1.32035">
        <ele>140</ele>
        <time>2017-03-28T15:02:50Z</time>
      </trkpt>
      <trkpt lat="49.4718" lon="1.32041">
        <ele>140</ele>
        <time>2017-03-28T15:02:50Z</time>
      </trkpt>
      <trkpt lat="49.47181" lon="1.32048">
        <ele>144</ele>
        <time>2017-03-28T15:02:50Z</time>
      </trkpt>
      <trkpt lat="49.47179" lon="1.32058">
        <ele>144</ele>
        <time>2017-03-28T15:03:06Z</time>
      </trkpt>
      <trkpt lat="49.47178" lon="1.32069">
        <ele>144</ele>
        <time>2017-03-28T15:03:06Z</time>
      </trkpt>
      <trkpt lat="49.47174" lon="1.32079">
        <ele>144</ele>
        <time>2017-03-28T15:03:06Z</time>
      </trkpt>
      <trkpt lat="49.47174" lon="1.32089">
        <ele>144</ele>
        <time>2017-03-28T15:03:06Z</time>
      </trkpt>
      <trkpt lat="49.47174" lon="1.32098">
        <ele>144</ele>
        <time>2017-03-28T15:03:22Z</time>
      </trkpt>
      <trkpt lat="49.47172" lon="1.32103">
        <ele>144</ele>
        <time>2017-03-28T15:03:22Z</time>
      </trkpt>
      <trkpt lat="49.47174" lon="1.32109">
        <ele>144</ele>
        <time>2017-03-28T15:03:22Z</time>
      </trkpt>
      <trkpt lat="49.47177" lon="1.32116">
        <ele>144</ele>
        <time>2017-03-28T15:03:22Z</time>
      </trkpt>
      <trkpt lat="49.47181" lon="1.32124">
        <ele>144</ele>
        <time>2017-03-28T15:03:38Z</time>
      </trkpt>
      <trkpt lat="49.47184" lon="1.32132">
        <ele>146</ele>
        <time>2017-03-28T15:03:38Z</time>
      </trkpt>
      <trkpt lat="49.47182" lon="1.32141">
        <ele>146</ele>
        <time>2017-03-28T15:03:38Z</time>
      </trkpt>
      <trkpt lat="49.4718" lon="1.3215">
        <ele>146</ele>
        <time>2017-03-28T15:03:38Z</time>
      </trkpt>
      <trkpt lat="49.4718" lon="1.32159">
        <ele>146</ele>
        <time>2017-03-28T15:03:56Z</time>
      </trkpt>
      <trkpt lat="49.47179" lon="1.32167">
        <ele>146</ele>
        <time>2017-03-28T15:03:56Z</time>
      </trkpt>
      <trkpt lat="49.47176" lon="1.32173">
        <ele>146</ele>
        <time>2017-03-28T15:03:56Z</time>
      </trkpt>
      <trkpt lat="49.47172" lon="1.32181">
        <ele>146</ele>
        <time>2017-03-28T15:03:56Z</time>
      </trkpt>
      <trkpt lat="49.4717" lon="1.32186">
        <ele>146</ele>
        <time>2017-03-28T15:04:31Z</time>
      </trkpt>
      <trkpt lat="49.47187" lon="1.32245">
        <ele>142</ele>
        <time>2017-03-28T15:04:31Z</time>
      </trkpt>
      <trkpt lat="49.4719" lon="1.32242">
        <ele>142</ele>
        <time>2017-03-28T15:04:31Z</time>
      </trkpt>
      <trkpt lat="49.47191" lon="1.32246">
        <ele>142</ele>
        <time>2017-03-28T15:04:31Z</time>
      </trkpt>
      <trkpt lat="49.47191" lon="1.32251">
        <ele>142</ele>
        <time>2017-03-28T15:04:51Z</time>
      </trkpt>
      <trkpt lat="49.47187" lon="1.3227">
        <ele>142</ele>
        <time>2017-03-28T15:04:51Z</time>
      </trkpt>
      <trkpt lat="49.47187" lon="1.32282">
        <ele>142</ele>
        <time>2017-03-28T15:04:51Z</time>
      </trkpt>
      <trkpt lat="49.47187" lon="1.32289">
        <ele>142</ele>
        <time>2017-03-28T15:04:51Z</time>
      </trkpt>
      <trkpt lat="49.47186" lon="1.32303">
        <ele>133</ele>
        <time>2017-03-28T15:05:07Z</time>
      </trkpt>
      <trkpt lat="49.47186" lon="1.3231">
        <ele>133</ele>
        <time>2017-03-28T15:05:07Z</time>
      </trkpt>
      <trkpt lat="49.47184" lon="1.32318">
        <ele>133</ele>
        <time>2017-03-28T15:05:07Z</time>
      </trkpt>
      <trkpt lat="49.47187" lon="1.32324">
        <ele>133</ele>
        <time>2017-03-28T15:05:07Z</time>
      </trkpt>
      <trkpt lat="49.47186" lon="1.32332">
        <ele>133</ele>
        <time>2017-03-28T15:05:23Z</time>
      </trkpt>
      <trkpt lat="49.47187" lon="1.32341">
        <ele>133</ele>
        <time>2017-03-28T15:05:23Z</time>
      </trkpt>
      <trkpt lat="49.47188" lon="1.32347">
        <ele>133</ele>
        <time>2017-03-28T15:05:23Z</time>
      </trkpt>
      <trkpt lat="49.47193" lon="1.32358">
        <ele>133</ele>
        <time>2017-03-28T15:05:24Z</time>
      </trkpt>
      <trkpt lat="49.47198" lon="1.32365">
        <ele>133</ele>
        <time>2017-03-28T15:05:38Z</time>
      </trkpt>
      <trkpt lat="49.47201" lon="1.32372">
        <ele>133</ele>
        <time>2017-03-28T15:05:38Z</time>
      </trkpt>
      <trkpt lat="49.472" lon="1.3238">
        <ele>121</ele>
        <time>2017-03-28T15:05:38Z</time>
      </trkpt>
      <trkpt lat="49.47197" lon="1.32388">
        <ele>121</ele>
        <time>2017-03-28T15:05:38Z</time>
      </trkpt>
      <trkpt lat="49.47198" lon="1.32395">
        <ele>121</ele>
        <time>2017-03-28T15:05:54Z</time>
      </trkpt>
      <trkpt lat="49.47198" lon="1.32403">
        <ele>121</ele>
        <time>2017-03-28T15:05:54Z</time>
      </trkpt>
      <trkpt lat="49.47204" lon="1.32406">
        <ele>121</ele>
        <time>2017-03-28T15:05:54Z</time>
      </trkpt>
      <trkpt lat="49.47208" lon="1.32408">
        <ele>116</ele>
        <time>2017-03-28T15:05:54Z</time>
      </trkpt>
      <trkpt lat="49.47212" lon="1.3241">
        <ele>116</ele>
        <time>2017-03-28T15:06:10Z</time>
      </trkpt>
      <trkpt lat="49.47215" lon="1.32412">
        <ele>116</ele>
        <time>2017-03-28T15:06:10Z</time>
      </trkpt>
      <trkpt lat="49.47216" lon="1.32421">
        <ele>116</ele>
        <time>2017-03-28T15:06:10Z</time>
      </trkpt>
      <trkpt lat="49.47214" lon="1.32434">
        <ele>116</ele>
        <time>2017-03-28T15:06:10Z</time>
      </trkpt>
      <trkpt lat="49.47214" lon="1.32443">
        <ele>116</ele>
        <time>2017-03-28T15:06:26Z</time>
      </trkpt>
      <trkpt lat="49.47218" lon="1.32451">
        <ele>116</ele>
        <time>2017-03-28T15:06:26Z</time>
      </trkpt>
      <trkpt lat="49.4722" lon="1.32455">
        <ele>116</ele>
        <time>2017-03-28T15:06:26Z</time>
      </trkpt>
      <trkpt lat="49.4722" lon="1.32462">
        <ele>114</ele>
        <time>2017-03-28T15:06:26Z</time>
      </trkpt>
      <trkpt lat="49.47219" lon="1.32471">
        <ele>114</ele>
        <time>2017-03-28T15:06:42Z</time>
      </trkpt>
      <trkpt lat="49.47218" lon="1.3248">
        <ele>114</ele>
        <time>2017-03-28T15:06:42Z</time>
      </trkpt>
      <trkpt lat="49.47218" lon="1.3249">
        <ele>114</ele>
        <time>2017-03-28T15:06:42Z</time>
      </trkpt>
      <trkpt lat="49.47219" lon="1.325">
        <ele>114</ele>
        <time>2017-03-28T15:06:42Z</time>
      </trkpt>
      <trkpt lat="49.4722" lon="1.32508">
        <ele>114</ele>
        <time>2017-03-28T15:06:58Z</time>
      </trkpt>
      <trkpt lat="49.47221" lon="1.32515">
        <ele>114</ele>
        <time>2017-03-28T15:06:58Z</time>
      </trkpt>
      <trkpt lat="49.4722" lon="1.32522">
        <ele>114</ele>
        <time>2017-03-28T15:06:58Z</time>
      </trkpt>
      <trkpt lat="49.47221" lon="1.32528">
        <ele>114</ele>
        <time>2017-03-28T15:06:58Z</time>
      </trkpt>
      <trkpt lat="49.4722" lon="1.32534">
        <ele>114</ele>
        <time>2017-03-28T15:07:14Z</time>
      </trkpt>
      <trkpt lat="49.47221" lon="1.32541">
        <ele>114</ele>
        <time>2017-03-28T15:07:14Z</time>
      </trkpt>
      <trkpt lat="49.47221" lon="1.32549">
        <ele>115</ele>
        <time>2017-03-28T15:07:14Z</time>
      </trkpt>
      <trkpt lat="49.47221" lon="1.32557">
        <ele>115</ele>
        <time>2017-03-28T15:07:14Z</time>
      </trkpt>
      <trkpt lat="49.47223" lon="1.32565">
        <ele>115</ele>
        <time>2017-03-28T15:07:30Z</time>
      </trkpt>
      <trkpt lat="49.47224" lon="1.32573">
        <ele>115</ele>
        <time>2017-03-28T15:07:30Z</time>
      </trkpt>
      <trkpt lat="49.47226" lon="1.32577">
        <ele>115</ele>
        <time>2017-03-28T15:07:30Z</time>
      </trkpt>
      <trkpt lat="49.47227" lon="1.32582">
        <ele>115</ele>
        <time>2017-03-28T15:07:30Z</time>
      </trkpt>
      <trkpt lat="49.47229" lon="1.32589">
        <ele>115</ele>
        <time>2017-03-28T15:07:46Z</time>
      </trkpt>
      <trkpt lat="49.47231" lon="1.32596">
        <ele>115</ele>
        <time>2017-03-28T15:07:46Z</time>
      </trkpt>
      <trkpt lat="49.47233" lon="1.32603">
        <ele>115</ele>
        <time>2017-03-28T15:07:46Z</time>
      </trkpt>
      <trkpt lat="49.47235" lon="1.3261">
        <ele>115</ele>
        <time>2017-03-28T15:07:46Z</time>
      </trkpt>
      <trkpt lat="49.47238" lon="1.32619">
        <ele>115</ele>
        <time>2017-03-28T15:08:04Z</time>
      </trkpt>
      <trkpt lat="49.4724" lon="1.32627">
        <ele>113</ele>
        <time>2017-03-28T15:08:04Z</time>
      </trkpt>
      <trkpt lat="49.4724" lon="1.32634">
        <ele>113</ele>
        <time>2017-03-28T15:08:04Z</time>
      </trkpt>
      <trkpt lat="49.47239" lon="1.32642">
        <ele>113</ele>
        <time>2017-03-28T15:08:04Z</time>
      </trkpt>
      <trkpt lat="49.47238" lon="1.32647">
        <ele>113</ele>
        <time>2017-03-28T15:08:18Z</time>
      </trkpt>
      <trkpt lat="49.47237" lon="1.32655">
        <ele>113</ele>
        <time>2017-03-28T15:08:18Z</time>
      </trkpt>
      <trkpt lat="49.47236" lon="1.3266">
        <ele>113</ele>
        <time>2017-03-28T15:08:18Z</time>
      </trkpt>
      <trkpt lat="49.47235" lon="1.32667">
        <ele>113</ele>
        <time>2017-03-28T15:08:18Z</time>
      </trkpt>
      <trkpt lat="49.47235" lon="1.32675">
        <ele>113</ele>
        <time>2017-03-28T15:08:34Z</time>
      </trkpt>
      <trkpt lat="49.47234" lon="1.32683">
        <ele>113</ele>
        <time>2017-03-28T15:08:34Z</time>
      </trkpt>
      <trkpt lat="49.47234" lon="1.32689">
        <ele>113</ele>
        <time>2017-03-28T15:08:34Z</time>
      </trkpt>
      <trkpt lat="49.47234" lon="1.32698">
        <ele>113</ele>
        <time>2017-03-28T15:08:34Z</time>
      </trkpt>
      <trkpt lat="49.47234" lon="1.32707">
        <ele>113</ele>
        <time>2017-03-28T15:08:51Z</time>
      </trkpt>
      <trkpt lat="49.47234" lon="1.32716">
        <ele>111</ele>
        <time>2017-03-28T15:08:51Z</time>
      </trkpt>
      <trkpt lat="49.47233" lon="1.32726">
        <ele>111</ele>
        <time>2017-03-28T15:08:51Z</time>
      </trkpt>
      <trkpt lat="49.47233" lon="1.32731">
        <ele>111</ele>
        <time>2017-03-28T15:08:51Z</time>
      </trkpt>
      <trkpt lat="49.47233" lon="1.32738">
        <ele>111</ele>
        <time>2017-03-28T15:09:06Z</time>
      </trkpt>
      <trkpt lat="49.47233" lon="1.32746">
        <ele>111</ele>
        <time>2017-03-28T15:09:06Z</time>
      </trkpt>
      <trkpt lat="49.47233" lon="1.32755">
        <ele>111</ele>
        <time>2017-03-28T15:09:06Z</time>
      </trkpt>
      <trkpt lat="49.47233" lon="1.32762">
        <ele>111</ele>
        <time>2017-03-28T15:09:06Z</time>
      </trkpt>
      <trkpt lat="49.47235" lon="1.3277">
        <ele>111</ele>
        <time>2017-03-28T15:09:24Z</time>
      </trkpt>
      <trkpt lat="49.47234" lon="1.32779">
        <ele>111</ele>
        <time>2017-03-28T15:09:24Z</time>
      </trkpt>
      <trkpt lat="49.47233" lon="1.32784">
        <ele>111</ele>
        <time>2017-03-28T15:09:24Z</time>
      </trkpt>
      <trkpt lat="49.47231" lon="1.32794">
        <ele>109</ele>
        <time>2017-03-28T15:09:24Z</time>
      </trkpt>
      <trkpt lat="49.4723" lon="1.328">
        <ele>109</ele>
        <time>2017-03-28T15:09:39Z</time>
      </trkpt>
      <trkpt lat="49.47231" lon="1.32809">
        <ele>109</ele>
        <time>2017-03-28T15:09:39Z</time>
      </trkpt>
      <trkpt lat="49.4723" lon="1.32818">
        <ele>109</ele>
        <time>2017-03-28T15:09:39Z</time>
      </trkpt>
      <trkpt lat="49.47231" lon="1.3283">
        <ele>109</ele>
        <time>2017-03-28T15:09:39Z</time>
      </trkpt>
      <trkpt lat="49.4723" lon="1.32837">
        <ele>109</ele>
        <time>2017-03-28T15:09:54Z</time>
      </trkpt>
      <trkpt lat="49.47229" lon="1.32847">
        <ele>109</ele>
        <time>2017-03-28T15:09:54Z</time>
      </trkpt>
      <trkpt lat="49.4723" lon="1.32855">
        <ele>109</ele>
        <time>2017-03-28T15:09:54Z</time>
      </trkpt>
      <trkpt lat="49.47231" lon="1.32863">
        <ele>109</ele>
        <time>2017-03-28T15:09:54Z</time>
      </trkpt>
      <trkpt lat="49.47232" lon="1.3287">
        <ele>109</ele>
        <time>2017-03-28T15:10:11Z</time>
      </trkpt>
      <trkpt lat="49.47233" lon="1.32877">
        <ele>111</ele>
        <time>2017-03-28T15:10:11Z</time>
      </trkpt>
      <trkpt lat="49.47234" lon="1.32884">
        <ele>111</ele>
        <time>2017-03-28T15:10:11Z</time>
      </trkpt>
      <trkpt lat="49.47232" lon="1.32894">
        <ele>111</ele>
        <time>2017-03-28T15:10:11Z</time>
      </trkpt>
      <trkpt lat="49.47227" lon="1.32905">
        <ele>111</ele>
        <time>2017-03-28T15:10:32Z</time>
      </trkpt>
      <trkpt lat="49.47229" lon="1.32908">
        <ele>111</ele>
        <time>2017-03-28T15:10:32Z</time>
      </trkpt>
      <trkpt lat="49.47229" lon="1.329">
        <ele>111</ele>
        <time>2017-03-28T15:10:32Z</time>
      </trkpt>
      <trkpt lat="49.47229" lon="1.32892">
        <ele>111</ele>
        <time>2017-03-28T15:10:32Z</time>
      </trkpt>
      <trkpt lat="49.47225" lon="1.32922">
        <ele>111</ele>
        <time>2017-03-28T15:10:32Z</time>
      </trkpt>
      <trkpt lat="49.47227" lon="1.3293">
        <ele>111</ele>
        <time>2017-03-28T15:10:46Z</time>
      </trkpt>
      <trkpt lat="49.47229" lon="1.32936">
        <ele>111</ele>
        <time>2017-03-28T15:10:46Z</time>
      </trkpt>
      <trkpt lat="49.47233" lon="1.32942">
        <ele>111</ele>
        <time>2017-03-28T15:10:46Z</time>
      </trkpt>
      <trkpt lat="49.47232" lon="1.32945">
        <ele>111</ele>
        <time>2017-03-28T15:10:46Z</time>
      </trkpt>
      <trkpt lat="49.47231" lon="1.32951">
        <ele>111</ele>
        <time>2017-03-28T15:11:03Z</time>
      </trkpt>
      <trkpt lat="49.47229" lon="1.32958">
        <ele>111</ele>
        <time>2017-03-28T15:11:03Z</time>
      </trkpt>
      <trkpt lat="49.47234" lon="1.32965">
        <ele>113</ele>
        <time>2017-03-28T15:11:03Z</time>
      </trkpt>
      <trkpt lat="49.47239" lon="1.32966">
        <ele>113</ele>
        <time>2017-03-28T15:11:03Z</time>
      </trkpt>
      <trkpt lat="49.47238" lon="1.32973">
        <ele>113</ele>
        <time>2017-03-28T15:11:18Z</time>
      </trkpt>
      <trkpt lat="49.47237" lon="1.32981">
        <ele>113</ele>
        <time>2017-03-28T15:11:18Z</time>
      </trkpt>
      <trkpt lat="49.47237" lon="1.32989">
        <ele>113</ele>
        <time>2017-03-28T15:11:18Z</time>
      </trkpt>
      <trkpt lat="49.47235" lon="1.32995">
        <ele>113</ele>
        <time>2017-03-28T15:11:18Z</time>
      </trkpt>
      <trkpt lat="49.47233" lon="1.32997">
        <ele>113</ele>
        <time>2017-03-28T15:11:36Z</time>
      </trkpt>
      <trkpt lat="49.47235" lon="1.33004">
        <ele>113</ele>
        <time>2017-03-28T15:11:36Z</time>
      </trkpt>
      <trkpt lat="49.47233" lon="1.3301">
        <ele>113</ele>
        <time>2017-03-28T15:11:36Z</time>
      </trkpt>
      <trkpt lat="49.4723" lon="1.33017">
        <ele>113</ele>
        <time>2017-03-28T15:11:36Z</time>
      </trkpt>
      <trkpt lat="49.47232" lon="1.33025">
        <ele>113</ele>
        <time>2017-03-28T15:14:44Z</time>
      </trkpt>
      <trkpt lat="49.47233" lon="1.33031">
        <ele>113</ele>
        <time>2017-03-28T15:14:44Z</time>
      </trkpt>
      <trkpt lat="49.47234" lon="1.33034">
        <ele>113</ele>
        <time>2017-03-28T15:14:44Z</time>
      </trkpt>
      <trkpt lat="49.47233" lon="1.33039">
        <ele>113</ele>
        <time>2017-03-28T15:14:44Z</time>
      </trkpt>
      <trkpt lat="49.47232" lon="1.33047">
        <ele>113</ele>
        <time>2017-03-28T15:14:44Z</time>
      </trkpt>
      <trkpt lat="49.47231" lon="1.33052">
        <ele>113</ele>
        <time>2017-03-28T15:14:58Z</time>
      </trkpt>
      <trkpt lat="49.47231" lon="1.33059">
        <ele>113</ele>
        <time>2017-03-28T15:14:58Z</time>
      </trkpt>
      <trkpt lat="49.47232" lon="1.33066">
        <ele>113</ele>
        <time>2017-03-28T15:14:58Z</time>
      </trkpt>
      <trkpt lat="49.47231" lon="1.33072">
        <ele>113</ele>
        <time>2017-03-28T15:14:58Z</time>
      </trkpt>
      <trkpt lat="49.4723" lon="1.3308">
        <ele>113</ele>
        <time>2017-03-28T15:15:14Z</time>
      </trkpt>
      <trkpt lat="49.47227" lon="1.33086">
        <ele>113</ele>
        <time>2017-03-28T15:15:14Z</time>
      </trkpt>
      <trkpt lat="49.47224" lon="1.3309">
        <ele>113</ele>
        <time>2017-03-28T15:15:14Z</time>
      </trkpt>
      <trkpt lat="49.47223" lon="1.33091">
        <ele>113</ele>
        <time>2017-03-28T15:15:14Z</time>
      </trkpt>
      <trkpt lat="49.47223" lon="1.33091">
        <ele>113</ele>
        <time>2017-03-28T15:15:30Z</time>
      </trkpt>
      <trkpt lat="49.47223" lon="1.33091">
        <ele>113</ele>
        <time>2017-03-28T15:15:30Z</time>
      </trkpt>
      <trkpt lat="49.4722" lon="1.33092">
        <ele>113</ele>
        <time>2017-03-28T15:15:30Z</time>
      </trkpt>
      <trkpt lat="49.47213" lon="1.33097">
        <ele>113</ele>
        <time>2017-03-28T15:15:30Z</time>
      </trkpt>
      <trkpt lat="49.47211" lon="1.33109">
        <ele>113</ele>
        <time>2017-03-28T15:15:46Z</time>
      </trkpt>
      <trkpt lat="49.47208" lon="1.33118">
        <ele>113</ele>
        <time>2017-03-28T15:15:46Z</time>
      </trkpt>
      <trkpt lat="49.47207" lon="1.33129">
        <ele>103</ele>
        <time>2017-03-28T15:15:46Z</time>
      </trkpt>
      <trkpt lat="49.47207" lon="1.33135">
        <ele>103</ele>
        <time>2017-03-28T15:15:46Z</time>
      </trkpt>
      <trkpt lat="49.47208" lon="1.33142">
        <ele>106</ele>
        <time>2017-03-28T15:16:02Z</time>
      </trkpt>
      <trkpt lat="49.47207" lon="1.3315">
        <ele>103</ele>
        <time>2017-03-28T15:16:02Z</time>
      </trkpt>
      <trkpt lat="49.47204" lon="1.33157">
        <ele>103</ele>
        <time>2017-03-28T15:16:02Z</time>
      </trkpt>
      <trkpt lat="49.47201" lon="1.33162">
        <ele>103</ele>
        <time>2017-03-28T15:16:02Z</time>
      </trkpt>
      <trkpt lat="49.47198" lon="1.33167">
        <ele>103</ele>
        <time>2017-03-28T15:16:18Z</time>
      </trkpt>
      <trkpt lat="49.47196" lon="1.33175">
        <ele>103</ele>
        <time>2017-03-28T15:16:18Z</time>
      </trkpt>
      <trkpt lat="49.47194" lon="1.33183">
        <ele>103</ele>
        <time>2017-03-28T15:16:18Z</time>
      </trkpt>
      <trkpt lat="49.47191" lon="1.33187">
        <ele>103</ele>
        <time>2017-03-28T15:16:18Z</time>
      </trkpt>
      <trkpt lat="49.47189" lon="1.33192">
        <ele>103</ele>
        <time>2017-03-28T15:16:34Z</time>
      </trkpt>
      <trkpt lat="49.47184" lon="1.33199">
        <ele>103</ele>
        <time>2017-03-28T15:16:34Z</time>
      </trkpt>
      <trkpt lat="49.47182" lon="1.33202">
        <ele>103</ele>
        <time>2017-03-28T15:16:34Z</time>
      </trkpt>
      <trkpt lat="49.47181" lon="1.33209">
        <ele>98</ele>
        <time>2017-03-28T15:16:34Z</time>
      </trkpt>
      <trkpt lat="49.47179" lon="1.33217">
        <ele>98</ele>
        <time>2017-03-28T15:16:50Z</time>
      </trkpt>
      <trkpt lat="49.47177" lon="1.33227">
        <ele>98</ele>
        <time>2017-03-28T15:16:50Z</time>
      </trkpt>
      <trkpt lat="49.47175" lon="1.33234">
        <ele>98</ele>
        <time>2017-03-28T15:16:50Z</time>
      </trkpt>
      <trkpt lat="49.47174" lon="1.33239">
        <ele>98</ele>
        <time>2017-03-28T15:16:50Z</time>
      </trkpt>
      <trkpt lat="49.47173" lon="1.33245">
        <ele>98</ele>
        <time>2017-03-28T15:17:06Z</time>
      </trkpt>
      <trkpt lat="49.47171" lon="1.33251">
        <ele>98</ele>
        <time>2017-03-28T15:17:06Z</time>
      </trkpt>
      <trkpt lat="49.4717" lon="1.33259">
        <ele>98</ele>
        <time>2017-03-28T15:17:06Z</time>
      </trkpt>
      <trkpt lat="49.47167" lon="1.33264">
        <ele>98</ele>
        <time>2017-03-28T15:17:06Z</time>
      </trkpt>
      <trkpt lat="49.47165" lon="1.3327">
        <ele>98</ele>
        <time>2017-03-28T15:17:23Z</time>
      </trkpt>
      <trkpt lat="49.47164" lon="1.3328">
        <ele>98</ele>
        <time>2017-03-28T15:17:23Z</time>
      </trkpt>
      <trkpt lat="49.47165" lon="1.33289">
        <ele>98</ele>
        <time>2017-03-28T15:17:23Z</time>
      </trkpt>
      <trkpt lat="49.47164" lon="1.33296">
        <ele>92</ele>
        <time>2017-03-28T15:17:23Z</time>
      </trkpt>
      <trkpt lat="49.47162" lon="1.333">
        <ele>92</ele>
        <time>2017-03-28T15:17:39Z</time>
      </trkpt>
      <trkpt lat="49.47159" lon="1.3331">
        <ele>92</ele>
        <time>2017-03-28T15:17:39Z</time>
      </trkpt>
      <trkpt lat="49.47159" lon="1.33315">
        <ele>92</ele>
        <time>2017-03-28T15:17:39Z</time>
      </trkpt>
      <trkpt lat="49.47157" lon="1.33322">
        <ele>92</ele>
        <time>2017-03-28T15:17:39Z</time>
      </trkpt>
      <trkpt lat="49.47156" lon="1.33331">
        <ele>92</ele>
        <time>2017-03-28T15:17:55Z</time>
      </trkpt>
      <trkpt lat="49.47154" lon="1.33338">
        <ele>92</ele>
        <time>2017-03-28T15:17:55Z</time>
      </trkpt>
      <trkpt lat="49.47153" lon="1.33344">
        <ele>92</ele>
        <time>2017-03-28T15:17:55Z</time>
      </trkpt>
      <trkpt lat="49.4715" lon="1.33353">
        <ele>92</ele>
        <time>2017-03-28T15:17:56Z</time>
      </trkpt>
      <trkpt lat="49.47149" lon="1.33357">
        <ele>92</ele>
        <time>2017-03-28T15:18:10Z</time>
      </trkpt>
      <trkpt lat="49.47147" lon="1.33365">
        <ele>92</ele>
        <time>2017-03-28T15:18:10Z</time>
      </trkpt>
      <trkpt lat="49.47145" lon="1.33371">
        <ele>92</ele>
        <time>2017-03-28T15:18:10Z</time>
      </trkpt>
      <trkpt lat="49.47143" lon="1.33378">
        <ele>85</ele>
        <time>2017-03-28T15:18:10Z</time>
      </trkpt>
      <trkpt lat="49.47142" lon="1.33384">
        <ele>85</ele>
        <time>2017-03-28T15:18:26Z</time>
      </trkpt>
      <trkpt lat="49.4714" lon="1.33394">
        <ele>85</ele>
        <time>2017-03-28T15:18:26Z</time>
      </trkpt>
      <trkpt lat="49.47139" lon="1.33401">
        <ele>85</ele>
        <time>2017-03-28T15:18:26Z</time>
      </trkpt>
      <trkpt lat="49.47138" lon="1.33408">
        <ele>85</ele>
        <time>2017-03-28T15:18:26Z</time>
      </trkpt>
      <trkpt lat="49.47137" lon="1.33415">
        <ele>85</ele>
        <time>2017-03-28T15:18:42Z</time>
      </trkpt>
      <trkpt lat="49.47136" lon="1.33419">
        <ele>85</ele>
        <time>2017-03-28T15:18:42Z</time>
      </trkpt>
      <trkpt lat="49.47136" lon="1.3343">
        <ele>85</ele>
        <time>2017-03-28T15:18:42Z</time>
      </trkpt>
      <trkpt lat="49.47134" lon="1.33437">
        <ele>85</ele>
        <time>2017-03-28T15:18:42Z</time>
      </trkpt>
      <trkpt lat="49.47132" lon="1.33446">
        <ele>85</ele>
        <time>2017-03-28T15:19:03Z</time>
      </trkpt>
      <trkpt lat="49.4713" lon="1.33453">
        <ele>85</ele>
        <time>2017-03-28T15:19:03Z</time>
      </trkpt>
      <trkpt lat="49.4713" lon="1.33455">
        <ele>85</ele>
        <time>2017-03-28T15:19:03Z</time>
      </trkpt>
      <trkpt lat="49.47126" lon="1.33473">
        <ele>83</ele>
        <time>2017-03-28T15:19:03Z</time>
      </trkpt>
      <trkpt lat="49.47123" lon="1.33481">
        <ele>85</ele>
        <time>2017-03-28T15:19:19Z</time>
      </trkpt>
      <trkpt lat="49.47122" lon="1.33487">
        <ele>85</ele>
        <time>2017-03-28T15:19:19Z</time>
      </trkpt>
      <trkpt lat="49.47121" lon="1.33493">
        <ele>85</ele>
        <time>2017-03-28T15:19:19Z</time>
      </trkpt>
      <trkpt lat="49.47121" lon="1.33501">
        <ele>85</ele>
        <time>2017-03-28T15:19:19Z</time>
      </trkpt>
      <trkpt lat="49.47121" lon="1.33508">
        <ele>85</ele>
        <time>2017-03-28T15:19:36Z</time>
      </trkpt>
      <trkpt lat="49.47119" lon="1.33515">
        <ele>85</ele>
        <time>2017-03-28T15:19:36Z</time>
      </trkpt>
      <trkpt lat="49.47118" lon="1.33524">
        <ele>85</ele>
        <time>2017-03-28T15:19:36Z</time>
      </trkpt>
      <trkpt lat="49.47115" lon="1.33533">
        <ele>85</ele>
        <time>2017-03-28T15:19:36Z</time>
      </trkpt>
      <trkpt lat="49.47113" lon="1.33539">
        <ele>85</ele>
        <time>2017-03-28T15:19:51Z</time>
      </trkpt>
      <trkpt lat="49.47112" lon="1.33548">
        <ele>84</ele>
        <time>2017-03-28T15:19:51Z</time>
      </trkpt>
      <trkpt lat="49.4711" lon="1.33551">
        <ele>84</ele>
        <time>2017-03-28T15:19:51Z</time>
      </trkpt>
      <trkpt lat="49.47109" lon="1.33553">
        <ele>84</ele>
        <time>2017-03-28T15:19:51Z</time>
      </trkpt>
      <trkpt lat="49.47111" lon="1.33563">
        <ele>84</ele>
        <time>2017-03-28T15:20:06Z</time>
      </trkpt>
      <trkpt lat="49.47111" lon="1.33572">
        <ele>84</ele>
        <time>2017-03-28T15:20:06Z</time>
      </trkpt>
      <trkpt lat="49.47108" lon="1.33581">
        <ele>84</ele>
        <time>2017-03-28T15:20:06Z</time>
      </trkpt>
      <trkpt lat="49.47105" lon="1.33588">
        <ele>84</ele>
        <time>2017-03-28T15:20:06Z</time>
      </trkpt>
      <trkpt lat="49.47103" lon="1.33596">
        <ele>84</ele>
        <time>2017-03-28T15:20:22Z</time>
      </trkpt>
      <trkpt lat="49.471" lon="1.33604">
        <ele>84</ele>
        <time>2017-03-28T15:20:22Z</time>
      </trkpt>
      <trkpt lat="49.47098" lon="1.33614">
        <ele>84</ele>
        <time>2017-03-28T15:20:22Z</time>
      </trkpt>
      <trkpt lat="49.47096" lon="1.33623">
        <ele>84</ele>
        <time>2017-03-28T15:20:22Z</time>
      </trkpt>
      <trkpt lat="49.47092" lon="1.3363">
        <ele>84</ele>
        <time>2017-03-28T15:20:39Z</time>
      </trkpt>
      <trkpt lat="49.47091" lon="1.3364">
        <ele>84</ele>
        <time>2017-03-28T15:20:39Z</time>
      </trkpt>
      <trkpt lat="49.4709" lon="1.33648">
        <ele>84</ele>
        <time>2017-03-28T15:20:40Z</time>
      </trkpt>
      <trkpt lat="49.47088" lon="1.33657">
        <ele>84</ele>
        <time>2017-03-28T15:20:40Z</time>
      </trkpt>
      <trkpt lat="49.47088" lon="1.33663">
        <ele>84</ele>
        <time>2017-03-28T15:20:55Z</time>
      </trkpt>
      <trkpt lat="49.47089" lon="1.33673">
        <ele>84</ele>
        <time>2017-03-28T15:20:55Z</time>
      </trkpt>
      <trkpt lat="49.4709" lon="1.33682">
        <ele>84</ele>
        <time>2017-03-28T15:20:55Z</time>
      </trkpt>
      <trkpt lat="49.47088" lon="1.33692">
        <ele>84</ele>
        <time>2017-03-28T15:20:55Z</time>
      </trkpt>
      <trkpt lat="49.47086" lon="1.33696">
        <ele>84</ele>
        <time>2017-03-28T15:21:11Z</time>
      </trkpt>
      <trkpt lat="49.47084" lon="1.33698">
        <ele>84</ele>
        <time>2017-03-28T15:21:11Z</time>
      </trkpt>
      <trkpt lat="49.47081" lon="1.337">
        <ele>84</ele>
        <time>2017-03-28T15:21:11Z</time>
      </trkpt>
      <trkpt lat="49.47078" lon="1.33706">
        <ele>84</ele>
        <time>2017-03-28T15:21:11Z</time>
      </trkpt>
      <trkpt lat="49.47075" lon="1.33715">
        <ele>87</ele>
        <time>2017-03-28T15:21:28Z</time>
      </trkpt>
      <trkpt lat="49.47071" lon="1.33719">
        <ele>87</ele>
        <time>2017-03-28T15:21:28Z</time>
      </trkpt>
      <trkpt lat="49.47068" lon="1.33719">
        <ele>87</ele>
        <time>2017-03-28T15:21:28Z</time>
      </trkpt>
      <trkpt lat="49.47063" lon="1.33724">
        <ele>87</ele>
        <time>2017-03-28T15:21:28Z</time>
      </trkpt>
      <trkpt lat="49.4706" lon="1.3373">
        <ele>87</ele>
        <time>2017-03-28T15:21:42Z</time>
      </trkpt>
      <trkpt lat="49.47057" lon="1.33738">
        <ele>87</ele>
        <time>2017-03-28T15:21:42Z</time>
      </trkpt>
      <trkpt lat="49.47056" lon="1.33748">
        <ele>87</ele>
        <time>2017-03-28T15:21:42Z</time>
      </trkpt>
      <trkpt lat="49.47053" lon="1.33752">
        <ele>87</ele>
        <time>2017-03-28T15:21:42Z</time>
      </trkpt>
      <trkpt lat="49.47051" lon="1.3376">
        <ele>87</ele>
        <time>2017-03-28T15:21:59Z</time>
      </trkpt>
      <trkpt lat="49.47051" lon="1.33767">
        <ele>87</ele>
        <time>2017-03-28T15:21:59Z</time>
      </trkpt>
      <trkpt lat="49.47048" lon="1.33775">
        <ele>87</ele>
        <time>2017-03-28T15:21:59Z</time>
      </trkpt>
      <trkpt lat="49.47046" lon="1.33783">
        <ele>87</ele>
        <time>2017-03-28T15:21:59Z</time>
      </trkpt>
      <trkpt lat="49.47044" lon="1.33787">
        <ele>87</ele>
        <time>2017-03-28T15:22:14Z</time>
      </trkpt>
      <trkpt lat="49.47041" lon="1.33793">
        <ele>83</ele>
        <time>2017-03-28T15:22:14Z</time>
      </trkpt>
      <trkpt lat="49.47039" lon="1.338">
        <ele>83</ele>
        <time>2017-03-28T15:22:14Z</time>
      </trkpt>
      <trkpt lat="49.47039" lon="1.33809">
        <ele>83</ele>
        <time>2017-03-28T15:22:14Z</time>
      </trkpt>
      <trkpt lat="49.47035" lon="1.33815">
        <ele>83</ele>
        <time>2017-03-28T15:22:31Z</time>
      </trkpt>
      <trkpt lat="49.47033" lon="1.33821">
        <ele>83</ele>
        <time>2017-03-28T15:22:31Z</time>
      </trkpt>
      <trkpt lat="49.47032" lon="1.33826">
        <ele>83</ele>
        <time>2017-03-28T15:22:31Z</time>
      </trkpt>
      <trkpt lat="49.47031" lon="1.33838">
        <ele>83</ele>
        <time>2017-03-28T15:22:31Z</time>
      </trkpt>
      <trkpt lat="49.4703" lon="1.33845">
        <ele>83</ele>
        <time>2017-03-28T15:22:46Z</time>
      </trkpt>
      <trkpt lat="49.47031" lon="1.33852">
        <ele>83</ele>
        <time>2017-03-28T15:22:46Z</time>
      </trkpt>
      <trkpt lat="49.4703" lon="1.33858">
        <ele>83</ele>
        <time>2017-03-28T15:22:46Z</time>
      </trkpt>
      <trkpt lat="49.47029" lon="1.33862">
        <ele>83</ele>
        <time>2017-03-28T15:22:46Z</time>
      </trkpt>
      <trkpt lat="49.47027" lon="1.33866">
        <ele>83</ele>
        <time>2017-03-28T15:23:26Z</time>
      </trkpt>
      <trkpt lat="49.47027" lon="1.33867">
        <ele>83</ele>
        <time>2017-03-28T15:23:26Z</time>
      </trkpt>
      <trkpt lat="49.47027" lon="1.33871">
        <ele>83</ele>
        <time>2017-03-28T15:23:26Z</time>
      </trkpt>
      <trkpt lat="49.47028" lon="1.33876">
        <ele>81</ele>
        <time>2017-03-28T15:23:26Z</time>
      </trkpt>
      <trkpt lat="49.47028" lon="1.33883">
        <ele>81</ele>
        <time>2017-03-28T15:23:26Z</time>
      </trkpt>
      <trkpt lat="49.47029" lon="1.3389">
        <ele>81</ele>
        <time>2017-03-28T15:23:42Z</time>
      </trkpt>
      <trkpt lat="49.47029" lon="1.33893">
        <ele>81</ele>
        <time>2017-03-28T15:23:42Z</time>
      </trkpt>
      <trkpt lat="49.47031" lon="1.33901">
        <ele>81</ele>
        <time>2017-03-28T15:23:42Z</time>
      </trkpt>
      <trkpt lat="49.47033" lon="1.33908">
        <ele>81</ele>
        <time>2017-03-28T15:23:42Z</time>
      </trkpt>
      <trkpt lat="49.47032" lon="1.33916">
        <ele>81</ele>
        <time>2017-03-28T15:23:58Z</time>
      </trkpt>
      <trkpt lat="49.47033" lon="1.33924">
        <ele>81</ele>
        <time>2017-03-28T15:23:58Z</time>
      </trkpt>
      <trkpt lat="49.47034" lon="1.3393">
        <ele>81</ele>
        <time>2017-03-28T15:23:58Z</time>
      </trkpt>
      <trkpt lat="49.47036" lon="1.33937">
        <ele>81</ele>
        <time>2017-03-28T15:23:58Z</time>
      </trkpt>
      <trkpt lat="49.47037" lon="1.33942">
        <ele>81</ele>
        <time>2017-03-28T15:24:18Z</time>
      </trkpt>
      <trkpt lat="49.47037" lon="1.33945">
        <ele>81</ele>
        <time>2017-03-28T15:24:18Z</time>
      </trkpt>
      <trkpt lat="49.47036" lon="1.33954">
        <ele>81</ele>
        <time>2017-03-28T15:24:18Z</time>
      </trkpt>
      <trkpt lat="49.47037" lon="1.33955">
        <ele>81</ele>
        <time>2017-03-28T15:24:18Z</time>
      </trkpt>
      <trkpt lat="49.47038" lon="1.33957">
        <ele>81</ele>
        <time>2017-03-28T15:24:18Z</time>
      </trkpt>
      <trkpt lat="49.47038" lon="1.33956">
        <ele>81</ele>
        <time>2017-03-28T15:25:51Z</time>
      </trkpt>
      <trkpt lat="49.4704" lon="1.3396">
        <ele>79</ele>
        <time>2017-03-28T15:25:51Z</time>
      </trkpt>
      <trkpt lat="49.4704" lon="1.33973">
        <ele>79</ele>
        <time>2017-03-28T15:25:51Z</time>
      </trkpt>
      <trkpt lat="49.47039" lon="1.33981">
        <ele>79</ele>
        <time>2017-03-28T15:25:51Z</time>
      </trkpt>
      <trkpt lat="49.4704" lon="1.33988">
        <ele>79</ele>
        <time>2017-03-28T15:25:51Z</time>
      </trkpt>
      <trkpt lat="49.47046" lon="1.33994">
        <ele>84</ele>
        <time>2017-03-28T15:26:06Z</time>
      </trkpt>
      <trkpt lat="49.4705" lon="1.33995">
        <ele>84</ele>
        <time>2017-03-28T15:26:06Z</time>
      </trkpt>
      <trkpt lat="49.47053" lon="1.33999">
        <ele>84</ele>
        <time>2017-03-28T15:26:06Z</time>
      </trkpt>
      <trkpt lat="49.47053" lon="1.34005">
        <ele>84</ele>
        <time>2017-03-28T15:26:06Z</time>
      </trkpt>
      <trkpt lat="49.47057" lon="1.34008">
        <ele>84</ele>
        <time>2017-03-28T15:26:22Z</time>
      </trkpt>
      <trkpt lat="49.47062" lon="1.34008">
        <ele>84</ele>
        <time>2017-03-28T15:26:22Z</time>
      </trkpt>
      <trkpt lat="49.47065" lon="1.34007">
        <ele>84</ele>
        <time>2017-03-28T15:26:22Z</time>
      </trkpt>
      <trkpt lat="49.47067" lon="1.34014">
        <ele>84</ele>
        <time>2017-03-28T15:26:22Z</time>
      </trkpt>
      <trkpt lat="49.47068" lon="1.3402">
        <ele>84</ele>
        <time>2017-03-28T15:26:39Z</time>
      </trkpt>
      <trkpt lat="49.47069" lon="1.34025">
        <ele>84</ele>
        <time>2017-03-28T15:26:39Z</time>
      </trkpt>
      <trkpt lat="49.47072" lon="1.3403">
        <ele>84</ele>
        <time>2017-03-28T15:26:39Z</time>
      </trkpt>
      <trkpt lat="49.47074" lon="1.34038">
        <ele>84</ele>
        <time>2017-03-28T15:26:39Z</time>
      </trkpt>
      <trkpt lat="49.47076" lon="1.34041">
        <ele>84</ele>
        <time>2017-03-28T15:26:54Z</time>
      </trkpt>
      <trkpt lat="49.47079" lon="1.34042">
        <ele>84</ele>
        <time>2017-03-28T15:26:54Z</time>
      </trkpt>
      <trkpt lat="49.47082" lon="1.34047">
        <ele>80</ele>
        <time>2017-03-28T15:26:54Z</time>
      </trkpt>
      <trkpt lat="49.47085" lon="1.34051">
        <ele>80</ele>
        <time>2017-03-28T15:26:54Z</time>
      </trkpt>
      <trkpt lat="49.47087" lon="1.34058">
        <ele>80</ele>
        <time>2017-03-28T15:27:11Z</time>
      </trkpt>
      <trkpt lat="49.4709" lon="1.34065">
        <ele>80</ele>
        <time>2017-03-28T15:27:11Z</time>
      </trkpt>
      <trkpt lat="49.47093" lon="1.34069">
        <ele>80</ele>
        <time>2017-03-28T15:27:11Z</time>
      </trkpt>
      <trkpt lat="49.47096" lon="1.34075">
        <ele>80</ele>
        <time>2017-03-28T15:27:11Z</time>
      </trkpt>
      <trkpt lat="49.47098" lon="1.34079">
        <ele>80</ele>
        <time>2017-03-28T15:27:26Z</time>
      </trkpt>
      <trkpt lat="49.471" lon="1.34086">
        <ele>80</ele>
        <time>2017-03-28T15:27:26Z</time>
      </trkpt>
      <trkpt lat="49.47101" lon="1.34091">
        <ele>80</ele>
        <time>2017-03-28T15:27:26Z</time>
      </trkpt>
      <trkpt lat="49.47103" lon="1.34098">
        <ele>80</ele>
        <time>2017-03-28T15:27:26Z</time>
      </trkpt>
      <trkpt lat="49.47106" lon="1.34104">
        <ele>80</ele>
        <time>2017-03-28T15:27:42Z</time>
      </trkpt>
      <trkpt lat="49.47108" lon="1.3411">
        <ele>80</ele>
        <time>2017-03-28T15:27:42Z</time>
      </trkpt>
      <trkpt lat="49.47111" lon="1.34117">
        <ele>80</ele>
        <time>2017-03-28T15:27:42Z</time>
      </trkpt>
      <trkpt lat="49.4711" lon="1.34126">
        <ele>77</ele>
        <time>2017-03-28T15:27:42Z</time>
      </trkpt>
      <trkpt lat="49.4711" lon="1.34133">
        <ele>77</ele>
        <time>2017-03-28T15:27:59Z</time>
      </trkpt>
      <trkpt lat="49.47113" lon="1.34141">
        <ele>77</ele>
        <time>2017-03-28T15:27:59Z</time>
      </trkpt>
      <trkpt lat="49.47114" lon="1.34146">
        <ele>77</ele>
        <time>2017-03-28T15:28:00Z</time>
      </trkpt>
      <trkpt lat="49.47114" lon="1.34155">
        <ele>77</ele>
        <time>2017-03-28T15:28:00Z</time>
      </trkpt>
      <trkpt lat="49.47112" lon="1.34159">
        <ele>77</ele>
        <time>2017-03-28T15:28:14Z</time>
      </trkpt>
      <trkpt lat="49.47108" lon="1.34163">
        <ele>77</ele>
        <time>2017-03-28T15:28:14Z</time>
      </trkpt>
      <trkpt lat="49.47103" lon="1.34171">
        <ele>77</ele>
        <time>2017-03-28T15:28:14Z</time>
      </trkpt>
      <trkpt lat="49.471" lon="1.34176">
        <ele>77</ele>
        <time>2017-03-28T15:28:14Z</time>
      </trkpt>
      <trkpt lat="49.47097" lon="1.34182">
        <ele>77</ele>
        <time>2017-03-28T15:28:31Z</time>
      </trkpt>
      <trkpt lat="49.47093" lon="1.34187">
        <ele>77</ele>
        <time>2017-03-28T15:28:31Z</time>
      </trkpt>
      <trkpt lat="49.47091" lon="1.34194">
        <ele>77</ele>
        <time>2017-03-28T15:28:31Z</time>
      </trkpt>
      <trkpt lat="49.47089" lon="1.34199">
        <ele>77</ele>
        <time>2017-03-28T15:28:31Z</time>
      </trkpt>
      <trkpt lat="49.47085" lon="1.34199">
        <ele>77</ele>
        <time>2017-03-28T15:28:50Z</time>
      </trkpt>
      <trkpt lat="49.47082" lon="1.34204">
        <ele>77</ele>
        <time>2017-03-28T15:28:50Z</time>
      </trkpt>
      <trkpt lat="49.47087" lon="1.34208">
        <ele>77</ele>
        <time>2017-03-28T15:28:50Z</time>
      </trkpt>
      <trkpt lat="49.47086" lon="1.34212">
        <ele>76</ele>
        <time>2017-03-28T15:28:50Z</time>
      </trkpt>
      <trkpt lat="49.47084" lon="1.34221">
        <ele>76</ele>
        <time>2017-03-28T15:28:50Z</time>
      </trkpt>
      <trkpt lat="49.47085" lon="1.34227">
        <ele>76</ele>
        <time>2017-03-28T15:29:07Z</time>
      </trkpt>
      <trkpt lat="49.4709" lon="1.34233">
        <ele>76</ele>
        <time>2017-03-28T15:29:07Z</time>
      </trkpt>
      <trkpt lat="49.47096" lon="1.34235">
        <ele>76</ele>
        <time>2017-03-28T15:29:07Z</time>
      </trkpt>
      <trkpt lat="49.47098" lon="1.34236">
        <ele>76</ele>
        <time>2017-03-28T15:29:07Z</time>
      </trkpt>
      <trkpt lat="49.47101" lon="1.3424">
        <ele>76</ele>
        <time>2017-03-28T15:29:22Z</time>
      </trkpt>
      <trkpt lat="49.47103" lon="1.34244">
        <ele>76</ele>
        <time>2017-03-28T15:29:22Z</time>
      </trkpt>
      <trkpt lat="49.47106" lon="1.34249">
        <ele>76</ele>
        <time>2017-03-28T15:29:22Z</time>
      </trkpt>
      <trkpt lat="49.47108" lon="1.34254">
        <ele>76</ele>
        <time>2017-03-28T15:29:22Z</time>
      </trkpt>
      <trkpt lat="49.47111" lon="1.34262">
        <ele>76</ele>
        <time>2017-03-28T15:29:43Z</time>
      </trkpt>
      <trkpt lat="49.47112" lon="1.34266">
        <ele>76</ele>
        <time>2017-03-28T15:29:43Z</time>
      </trkpt>
      <trkpt lat="49.47111" lon="1.3427">
        <ele>76</ele>
        <time>2017-03-28T15:29:43Z</time>
      </trkpt>
      <trkpt lat="49.47108" lon="1.34271">
        <ele>76</ele>
        <time>2017-03-28T15:29:43Z</time>
      </trkpt>
      <trkpt lat="49.47107" lon="1.34275">
        <ele>76</ele>
        <time>2017-03-28T15:29:43Z</time>
      </trkpt>
      <trkpt lat="49.47106" lon="1.34277">
        <ele>76</ele>
        <time>2017-03-28T15:29:58Z</time>
      </trkpt>
      <trkpt lat="49.47104" lon="1.3428">
        <ele>76</ele>
        <time>2017-03-28T15:29:58Z</time>
      </trkpt>
      <trkpt lat="49.47102" lon="1.34285">
        <ele>76</ele>
        <time>2017-03-28T15:29:58Z</time>
      </trkpt>
      <trkpt lat="49.47101" lon="1.3429">
        <ele>76</ele>
        <time>2017-03-28T15:29:58Z</time>
      </trkpt>
      <trkpt lat="49.47097" lon="1.34295">
        <ele>76</ele>
        <time>2017-03-28T15:30:46Z</time>
      </trkpt>
      <trkpt lat="49.47097" lon="1.34294">
        <ele>76</ele>
        <time>2017-03-28T15:30:46Z</time>
      </trkpt>
      <trkpt lat="49.47096" lon="1.34294">
        <ele>76</ele>
        <time>2017-03-28T15:30:46Z</time>
      </trkpt>
      <trkpt lat="49.47095" lon="1.34298">
        <ele>76</ele>
        <time>2017-03-28T15:30:46Z</time>
      </trkpt>
      <trkpt lat="49.4709" lon="1.343">
        <ele>76</ele>
        <time>2017-03-28T15:30:46Z</time>
      </trkpt>
      <trkpt lat="49.47084" lon="1.34301">
        <ele>76</ele>
        <time>2017-03-28T15:31:03Z</time>
      </trkpt>
      <trkpt lat="49.47079" lon="1.34299">
        <ele>76</ele>
        <time>2017-03-28T15:31:03Z</time>
      </trkpt>
      <trkpt lat="49.47074" lon="1.34294">
        <ele>76</ele>
        <time>2017-03-28T15:31:03Z</time>
      </trkpt>
      <trkpt lat="49.47073" lon="1.3429">
        <ele>76</ele>
        <time>2017-03-28T15:31:03Z</time>
      </trkpt>
      <trkpt lat="49.47069" lon="1.34286">
        <ele>76</ele>
        <time>2017-03-28T15:31:19Z</time>
      </trkpt>
      <trkpt lat="49.47063" lon="1.34286">
        <ele>76</ele>
        <time>2017-03-28T15:31:19Z</time>
      </trkpt>
      <trkpt lat="49.4706" lon="1.34286">
        <ele>76</ele>
        <time>2017-03-28T15:31:20Z</time>
      </trkpt>
      <trkpt lat="49.47056" lon="1.3429">
        <ele>76</ele>
        <time>2017-03-28T15:31:20Z</time>
      </trkpt>
      <trkpt lat="49.47053" lon="1.34294">
        <ele>76</ele>
        <time>2017-03-28T15:31:35Z</time>
      </trkpt>
      <trkpt lat="49.47053" lon="1.34301">
        <ele>76</ele>
        <time>2017-03-28T15:31:35Z</time>
      </trkpt>
      <trkpt lat="49.47052" lon="1.34307">
        <ele>76</ele>
        <time>2017-03-28T15:31:35Z</time>
      </trkpt>
      <trkpt lat="49.47049" lon="1.3431">
        <ele>76</ele>
        <time>2017-03-28T15:31:35Z</time>
      </trkpt>
      <trkpt lat="49.47049" lon="1.34311">
        <ele>76</ele>
        <time>2017-03-28T15:31:51Z</time>
      </trkpt>
      <trkpt lat="49.4705" lon="1.34314">
        <ele>76</ele>
        <time>2017-03-28T15:31:51Z</time>
      </trkpt>
      <trkpt lat="49.4705" lon="1.3432">
        <ele>76</ele>
        <time>2017-03-28T15:31:51Z</time>
      </trkpt>
      <trkpt lat="49.47049" lon="1.34327">
        <ele>76</ele>
        <time>2017-03-28T15:31:51Z</time>
      </trkpt>
      <trkpt lat="49.47044" lon="1.3433">
        <ele>76</ele>
        <time>2017-03-28T15:32:08Z</time>
      </trkpt>
      <trkpt lat="49.47039" lon="1.34333">
        <ele>78</ele>
        <time>2017-03-28T15:32:08Z</time>
      </trkpt>
      <trkpt lat="49.47036" lon="1.34336">
        <ele>78</ele>
        <time>2017-03-28T15:32:08Z</time>
      </trkpt>
      <trkpt lat="49.4703" lon="1.3434">
        <ele>78</ele>
        <time>2017-03-28T15:32:08Z</time>
      </trkpt>
      <trkpt lat="49.47026" lon="1.3434">
        <ele>78</ele>
        <time>2017-03-28T15:32:24Z</time>
      </trkpt>
      <trkpt lat="49.47022" lon="1.34345">
        <ele>78</ele>
        <time>2017-03-28T15:32:24Z</time>
      </trkpt>
      <trkpt lat="49.47018" lon="1.34348">
        <ele>78</ele>
        <time>2017-03-28T15:32:24Z</time>
      </trkpt>
      <trkpt lat="49.47014" lon="1.34353">
        <ele>78</ele>
        <time>2017-03-28T15:32:24Z</time>
      </trkpt>
      <trkpt lat="49.47011" lon="1.34357">
        <ele>78</ele>
        <time>2017-03-28T15:32:38Z</time>
      </trkpt>
      <trkpt lat="49.47008" lon="1.34359">
        <ele>78</ele>
        <time>2017-03-28T15:32:38Z</time>
      </trkpt>
      <trkpt lat="49.47004" lon="1.34363">
        <ele>78</ele>
        <time>2017-03-28T15:32:38Z</time>
      </trkpt>
      <trkpt lat="49.47004" lon="1.3437">
        <ele>78</ele>
        <time>2017-03-28T15:32:38Z</time>
      </trkpt>
      <trkpt lat="49.47005" lon="1.34377">
        <ele>80</ele>
        <time>2017-03-28T15:32:54Z</time>
      </trkpt>
      <trkpt lat="49.47005" lon="1.34385">
        <ele>80</ele>
        <time>2017-03-28T15:32:54Z</time>
      </trkpt>
      <trkpt lat="49.47007" lon="1.34391">
        <ele>80</ele>
        <time>2017-03-28T15:32:54Z</time>
      </trkpt>
      <trkpt lat="49.47008" lon="1.34398">
        <ele>80</ele>
        <time>2017-03-28T15:32:54Z</time>
      </trkpt>
      <trkpt lat="49.47009" lon="1.34405">
        <ele>80</ele>
        <time>2017-03-28T15:33:12Z</time>
      </trkpt>
      <trkpt lat="49.47009" lon="1.34415">
        <ele>80</ele>
        <time>2017-03-28T15:33:12Z</time>
      </trkpt>
      <trkpt lat="49.47009" lon="1.34423">
        <ele>80</ele>
        <time>2017-03-28T15:33:12Z</time>
      </trkpt>
      <trkpt lat="49.47008" lon="1.34432">
        <ele>80</ele>
        <time>2017-03-28T15:33:12Z</time>
      </trkpt>
      <trkpt lat="49.47009" lon="1.34438">
        <ele>80</ele>
        <time>2017-03-28T15:33:26Z</time>
      </trkpt>
      <trkpt lat="49.47012" lon="1.34444">
        <ele>80</ele>
        <time>2017-03-28T15:33:26Z</time>
      </trkpt>
      <trkpt lat="49.47017" lon="1.34446">
        <ele>80</ele>
        <time>2017-03-28T15:33:26Z</time>
      </trkpt>
      <trkpt lat="49.47021" lon="1.34452">
        <ele>80</ele>
        <time>2017-03-28T15:33:26Z</time>
      </trkpt>
      <trkpt lat="49.47025" lon="1.34457">
        <ele>80</ele>
        <time>2017-03-28T15:33:42Z</time>
      </trkpt>
      <trkpt lat="49.47028" lon="1.34465">
        <ele>82</ele>
        <time>2017-03-28T15:33:42Z</time>
      </trkpt>
      <trkpt lat="49.47029" lon="1.34471">
        <ele>82</ele>
        <time>2017-03-28T15:33:42Z</time>
      </trkpt>
      <trkpt lat="49.47028" lon="1.34477">
        <ele>82</ele>
        <time>2017-03-28T15:33:42Z</time>
      </trkpt>
      <trkpt lat="49.47029" lon="1.34484">
        <ele>82</ele>
        <time>2017-03-28T15:33:59Z</time>
      </trkpt>
      <trkpt lat="49.47029" lon="1.3449">
        <ele>82</ele>
        <time>2017-03-28T15:33:59Z</time>
      </trkpt>
      <trkpt lat="49.47027" lon="1.34499">
        <ele>82</ele>
        <time>2017-03-28T15:33:59Z</time>
      </trkpt>
      <trkpt lat="49.47025" lon="1.34508">
        <ele>82</ele>
        <time>2017-03-28T15:33:59Z</time>
      </trkpt>
      <trkpt lat="49.47018" lon="1.34516">
        <ele>82</ele>
        <time>2017-03-28T15:34:30Z</time>
      </trkpt>
      <trkpt lat="49.47014" lon="1.34523">
        <ele>82</ele>
        <time>2017-03-28T15:34:30Z</time>
      </trkpt>
      <trkpt lat="49.47013" lon="1.34529">
        <ele>82</ele>
        <time>2017-03-28T15:34:30Z</time>
      </trkpt>
      <trkpt lat="49.47012" lon="1.34534">
        <ele>82</ele>
        <time>2017-03-28T15:34:30Z</time>
      </trkpt>
      <trkpt lat="49.47012" lon="1.34542">
        <ele>82</ele>
        <time>2017-03-28T15:34:30Z</time>
      </trkpt>
      <trkpt lat="49.47012" lon="1.34546">
        <ele>82</ele>
        <time>2017-03-28T15:34:46Z</time>
      </trkpt>
      <trkpt lat="49.47011" lon="1.34553">
        <ele>82</ele>
        <time>2017-03-28T15:34:46Z</time>
      </trkpt>
      <trkpt lat="49.47009" lon="1.34559">
        <ele>82</ele>
        <time>2017-03-28T15:34:46Z</time>
      </trkpt>
      <trkpt lat="49.47006" lon="1.34567">
        <ele>82</ele>
        <time>2017-03-28T15:34:46Z</time>
      </trkpt>
      <trkpt lat="49.47002" lon="1.34575">
        <ele>82</ele>
        <time>2017-03-28T15:35:03Z</time>
      </trkpt>
      <trkpt lat="49.47" lon="1.3458">
        <ele>82</ele>
        <time>2017-03-28T15:35:03Z</time>
      </trkpt>
      <trkpt lat="49.46998" lon="1.34587">
        <ele>82</ele>
        <time>2017-03-28T15:35:03Z</time>
      </trkpt>
      <trkpt lat="49.46994" lon="1.34591">
        <ele>82</ele>
        <time>2017-03-28T15:35:03Z</time>
      </trkpt>
      <trkpt lat="49.46991" lon="1.34598">
        <ele>82</ele>
        <time>2017-03-28T15:35:18Z</time>
      </trkpt>
      <trkpt lat="49.46989" lon="1.34603">
        <ele>82</ele>
        <time>2017-03-28T15:35:18Z</time>
      </trkpt>
      <trkpt lat="49.46985" lon="1.3461">
        <ele>82</ele>
        <time>2017-03-28T15:35:18Z</time>
      </trkpt>
      <trkpt lat="49.46982" lon="1.34615">
        <ele>82</ele>
        <time>2017-03-28T15:35:18Z</time>
      </trkpt>
      <trkpt lat="49.46979" lon="1.3462">
        <ele>82</ele>
        <time>2017-03-28T15:35:34Z</time>
      </trkpt>
      <trkpt lat="49.46975" lon="1.34625">
        <ele>82</ele>
        <time>2017-03-28T15:35:34Z</time>
      </trkpt>
      <trkpt lat="49.46972" lon="1.34628">
        <ele>82</ele>
        <time>2017-03-28T15:35:34Z</time>
      </trkpt>
      <trkpt lat="49.46967" lon="1.34631">
        <ele>82</ele>
        <time>2017-03-28T15:35:34Z</time>
      </trkpt>
      <trkpt lat="49.46963" lon="1.34635">
        <ele>82</ele>
        <time>2017-03-28T15:35:50Z</time>
      </trkpt>
      <trkpt lat="49.46959" lon="1.3464">
        <ele>82</ele>
        <time>2017-03-28T15:35:50Z</time>
      </trkpt>
      <trkpt lat="49.46955" lon="1.34643">
        <ele>83</ele>
        <time>2017-03-28T15:35:50Z</time>
      </trkpt>
      <trkpt lat="49.4695" lon="1.34647">
        <ele>83</ele>
        <time>2017-03-28T15:35:50Z</time>
      </trkpt>
      <trkpt lat="49.46944" lon="1.3465">
        <ele>83</ele>
        <time>2017-03-28T15:36:07Z</time>
      </trkpt>
      <trkpt lat="49.46938" lon="1.34656">
        <ele>83</ele>
        <time>2017-03-28T15:36:07Z</time>
      </trkpt>
      <trkpt lat="49.46934" lon="1.34658">
        <ele>83</ele>
        <time>2017-03-28T15:36:07Z</time>
      </trkpt>
      <trkpt lat="49.46927" lon="1.34661">
        <ele>83</ele>
        <time>2017-03-28T15:36:07Z</time>
      </trkpt>
      <trkpt lat="49.46924" lon="1.34664">
        <ele>83</ele>
        <time>2017-03-28T15:36:23Z</time>
      </trkpt>
      <trkpt lat="49.46919" lon="1.34667">
        <ele>83</ele>
        <time>2017-03-28T15:36:23Z</time>
      </trkpt>
      <trkpt lat="49.46916" lon="1.34669">
        <ele>83</ele>
        <time>2017-03-28T15:36:23Z</time>
      </trkpt>
      <trkpt lat="49.46912" lon="1.34672">
        <ele>83</ele>
        <time>2017-03-28T15:36:23Z</time>
      </trkpt>
      <trkpt lat="49.46907" lon="1.34676">
        <ele>83</ele>
        <time>2017-03-28T15:36:39Z</time>
      </trkpt>
      <trkpt lat="49.46903" lon="1.34682">
        <ele>83</ele>
        <time>2017-03-28T15:36:39Z</time>
      </trkpt>
      <trkpt lat="49.46896" lon="1.34688">
        <ele>83</ele>
        <time>2017-03-28T15:36:39Z</time>
      </trkpt>
      <trkpt lat="49.46893" lon="1.34691">
        <ele>83</ele>
        <time>2017-03-28T15:36:39Z</time>
      </trkpt>
      <trkpt lat="49.46888" lon="1.34697">
        <ele>83</ele>
        <time>2017-03-28T15:36:54Z</time>
      </trkpt>
      <trkpt lat="49.46886" lon="1.347">
        <ele>83</ele>
        <time>2017-03-28T15:36:54Z</time>
      </trkpt>
      <trkpt lat="49.46879" lon="1.34702">
        <ele>83</ele>
        <time>2017-03-28T15:36:54Z</time>
      </trkpt>
      <trkpt lat="49.46876" lon="1.34701">
        <ele>83</ele>
        <time>2017-03-28T15:36:54Z</time>
      </trkpt>
      <trkpt lat="49.46872" lon="1.34704">
        <ele>86</ele>
        <time>2017-03-28T15:37:10Z</time>
      </trkpt>
      <trkpt lat="49.46869" lon="1.34707">
        <ele>86</ele>
        <time>2017-03-28T15:37:10Z</time>
      </trkpt>
      <trkpt lat="49.46865" lon="1.34711">
        <ele>84</ele>
        <time>2017-03-28T15:37:10Z</time>
      </trkpt>
      <trkpt lat="49.46862" lon="1.34718">
        <ele>84</ele>
        <time>2017-03-28T15:37:10Z</time>
      </trkpt>
      <trkpt lat="49.46861" lon="1.34724">
        <ele>84</ele>
        <time>2017-03-28T15:37:26Z</time>
      </trkpt>
      <trkpt lat="49.46861" lon="1.34731">
        <ele>84</ele>
        <time>2017-03-28T15:37:26Z</time>
      </trkpt>
      <trkpt lat="49.46858" lon="1.34737">
        <ele>84</ele>
        <time>2017-03-28T15:37:26Z</time>
      </trkpt>
      <trkpt lat="49.46856" lon="1.34742">
        <ele>84</ele>
        <time>2017-03-28T15:37:26Z</time>
      </trkpt>
      <trkpt lat="49.46853" lon="1.34748">
        <ele>84</ele>
        <time>2017-03-28T15:37:42Z</time>
      </trkpt>
      <trkpt lat="49.4685" lon="1.34754">
        <ele>84</ele>
        <time>2017-03-28T15:37:42Z</time>
      </trkpt>
      <trkpt lat="49.46845" lon="1.34756">
        <ele>84</ele>
        <time>2017-03-28T15:37:42Z</time>
      </trkpt>
      <trkpt lat="49.46843" lon="1.34758">
        <ele>84</ele>
        <time>2017-03-28T15:37:42Z</time>
      </trkpt>
      <trkpt lat="49.46843" lon="1.34757">
        <ele>84</ele>
        <time>2017-03-28T15:38:18Z</time>
      </trkpt>
      <trkpt lat="49.46842" lon="1.34758">
        <ele>84</ele>
        <time>2017-03-28T15:38:18Z</time>
      </trkpt>
      <trkpt lat="49.46838" lon="1.34757">
        <ele>84</ele>
        <time>2017-03-28T15:38:18Z</time>
      </trkpt>
      <trkpt lat="49.46835" lon="1.34758">
        <ele>84</ele>
        <time>2017-03-28T15:38:18Z</time>
      </trkpt>
      <trkpt lat="49.4683" lon="1.34758">
        <ele>84</ele>
        <time>2017-03-28T15:38:18Z</time>
      </trkpt>
      <trkpt lat="49.46826" lon="1.3476">
        <ele>84</ele>
        <time>2017-03-28T15:38:34Z</time>
      </trkpt>
      <trkpt lat="49.46821" lon="1.34759">
        <ele>84</ele>
        <time>2017-03-28T15:38:34Z</time>
      </trkpt>
      <trkpt lat="49.46817" lon="1.34759">
        <ele>84</ele>
        <time>2017-03-28T15:38:34Z</time>
      </trkpt>
      <trkpt lat="49.46813" lon="1.34758">
        <ele>84</ele>
        <time>2017-03-28T15:38:34Z</time>
      </trkpt>
      <trkpt lat="49.46809" lon="1.34757">
        <ele>84</ele>
        <time>2017-03-28T15:38:51Z</time>
      </trkpt>
      <trkpt lat="49.46806" lon="1.34756">
        <ele>84</ele>
        <time>2017-03-28T15:38:51Z</time>
      </trkpt>
      <trkpt lat="49.46802" lon="1.34755">
        <ele>84</ele>
        <time>2017-03-28T15:38:51Z</time>
      </trkpt>
      <trkpt lat="49.46798" lon="1.34753">
        <ele>84</ele>
        <time>2017-03-28T15:38:51Z</time>
      </trkpt>
      <trkpt lat="49.46793" lon="1.34753">
        <ele>84</ele>
        <time>2017-03-28T15:39:07Z</time>
      </trkpt>
      <trkpt lat="49.4679" lon="1.34753">
        <ele>89</ele>
        <time>2017-03-28T15:39:07Z</time>
      </trkpt>
      <trkpt lat="49.46785" lon="1.34752">
        <ele>89</ele>
        <time>2017-03-28T15:39:08Z</time>
      </trkpt>
      <trkpt lat="49.4678" lon="1.34751">
        <ele>89</ele>
        <time>2017-03-28T15:39:08Z</time>
      </trkpt>
      <trkpt lat="49.46777" lon="1.3475">
        <ele>89</ele>
        <time>2017-03-28T15:39:22Z</time>
      </trkpt>
      <trkpt lat="49.46772" lon="1.34748">
        <ele>89</ele>
        <time>2017-03-28T15:39:22Z</time>
      </trkpt>
      <trkpt lat="49.46767" lon="1.34747">
        <ele>89</ele>
        <time>2017-03-28T15:39:22Z</time>
      </trkpt>
      <trkpt lat="49.46763" lon="1.34747">
        <ele>89</ele>
        <time>2017-03-28T15:39:22Z</time>
      </trkpt>
      <trkpt lat="49.46759" lon="1.34746">
        <ele>89</ele>
        <time>2017-03-28T15:39:38Z</time>
      </trkpt>
      <trkpt lat="49.46755" lon="1.34746">
        <ele>89</ele>
        <time>2017-03-28T15:39:38Z</time>
      </trkpt>
      <trkpt lat="49.46751" lon="1.34745">
        <ele>89</ele>
        <time>2017-03-28T15:39:38Z</time>
      </trkpt>
      <trkpt lat="49.46746" lon="1.34743">
        <ele>89</ele>
        <time>2017-03-28T15:39:38Z</time>
      </trkpt>
      <trkpt lat="49.46741" lon="1.34743">
        <ele>89</ele>
        <time>2017-03-28T15:39:56Z</time>
      </trkpt>
      <trkpt lat="49.46737" lon="1.34742">
        <ele>89</ele>
        <time>2017-03-28T15:39:56Z</time>
      </trkpt>
      <trkpt lat="49.46735" lon="1.34741">
        <ele>89</ele>
        <time>2017-03-28T15:39:56Z</time>
      </trkpt>
      <trkpt lat="49.46731" lon="1.34739">
        <ele>89</ele>
        <time>2017-03-28T15:39:56Z</time>
      </trkpt>
      <trkpt lat="49.46728" lon="1.34738">
        <ele>89</ele>
        <time>2017-03-28T15:40:11Z</time>
      </trkpt>
      <trkpt lat="49.46723" lon="1.34737">
        <ele>89</ele>
        <time>2017-03-28T15:40:11Z</time>
      </trkpt>
      <trkpt lat="49.46718" lon="1.34737">
        <ele>89</ele>
        <time>2017-03-28T15:40:11Z</time>
      </trkpt>
      <trkpt lat="49.46715" lon="1.34738">
        <ele>89</ele>
        <time>2017-03-28T15:40:11Z</time>
      </trkpt>
      <trkpt lat="49.4671" lon="1.34737">
        <ele>89</ele>
        <time>2017-03-28T15:40:27Z</time>
      </trkpt>
      <trkpt lat="49.46706" lon="1.34737">
        <ele>94</ele>
        <time>2017-03-28T15:40:27Z</time>
      </trkpt>
      <trkpt lat="49.467" lon="1.34737">
        <ele>94</ele>
        <time>2017-03-28T15:40:27Z</time>
      </trkpt>
      <trkpt lat="49.46696" lon="1.34737">
        <ele>94</ele>
        <time>2017-03-28T15:40:27Z</time>
      </trkpt>
      <trkpt lat="49.46693" lon="1.34736">
        <ele>94</ele>
        <time>2017-03-28T15:40:42Z</time>
      </trkpt>
      <trkpt lat="49.46688" lon="1.34734">
        <ele>94</ele>
        <time>2017-03-28T15:40:42Z</time>
      </trkpt>
      <trkpt lat="49.46686" lon="1.34731">
        <ele>94</ele>
        <time>2017-03-28T15:40:42Z</time>
      </trkpt>
      <trkpt lat="49.46683" lon="1.34729">
        <ele>94</ele>
        <time>2017-03-28T15:40:42Z</time>
      </trkpt>
      <trkpt lat="49.46679" lon="1.34728">
        <ele>94</ele>
        <time>2017-03-28T15:40:58Z</time>
      </trkpt>
      <trkpt lat="49.46676" lon="1.34726">
        <ele>94</ele>
        <time>2017-03-28T15:40:58Z</time>
      </trkpt>
      <trkpt lat="49.46672" lon="1.34723">
        <ele>94</ele>
        <time>2017-03-28T15:40:58Z</time>
      </trkpt>
      <trkpt lat="49.46667" lon="1.3472">
        <ele>94</ele>
        <time>2017-03-28T15:40:58Z</time>
      </trkpt>
      <trkpt lat="49.46663" lon="1.34717">
        <ele>94</ele>
        <time>2017-03-28T15:41:16Z</time>
      </trkpt>
      <trkpt lat="49.4666" lon="1.34713">
        <ele>94</ele>
        <time>2017-03-28T15:41:16Z</time>
      </trkpt>
      <trkpt lat="49.46656" lon="1.3471">
        <ele>94</ele>
        <time>2017-03-28T15:41:16Z</time>
      </trkpt>
      <trkpt lat="49.46651" lon="1.34707">
        <ele>96</ele>
        <time>2017-03-28T15:41:16Z</time>
      </trkpt>
      <trkpt lat="49.46648" lon="1.34705">
        <ele>96</ele>
        <time>2017-03-28T15:41:30Z</time>
      </trkpt>
      <trkpt lat="49.46643" lon="1.34701">
        <ele>96</ele>
        <time>2017-03-28T15:41:30Z</time>
      </trkpt>
      <trkpt lat="49.46638" lon="1.347">
        <ele>96</ele>
        <time>2017-03-28T15:41:30Z</time>
      </trkpt>
      <trkpt lat="49.46635" lon="1.347">
        <ele>96</ele>
        <time>2017-03-28T15:41:30Z</time>
      </trkpt>
      <trkpt lat="49.46631" lon="1.34698">
        <ele>96</ele>
        <time>2017-03-28T15:41:46Z</time>
      </trkpt>
      <trkpt lat="49.46628" lon="1.34697">
        <ele>96</ele>
        <time>2017-03-28T15:41:46Z</time>
      </trkpt>
      <trkpt lat="49.46624" lon="1.34694">
        <ele>106</ele>
        <time>2017-03-28T15:41:46Z</time>
      </trkpt>
      <trkpt lat="49.46619" lon="1.34691">
        <ele>106</ele>
        <time>2017-03-28T15:41:46Z</time>
      </trkpt>
      <trkpt lat="49.46614" lon="1.34689">
        <ele>106</ele>
        <time>2017-03-28T15:42:03Z</time>
      </trkpt>
      <trkpt lat="49.46612" lon="1.34687">
        <ele>106</ele>
        <time>2017-03-28T15:42:03Z</time>
      </trkpt>
      <trkpt lat="49.46607" lon="1.34685">
        <ele>106</ele>
        <time>2017-03-28T15:42:03Z</time>
      </trkpt>
      <trkpt lat="49.46604" lon="1.34683">
        <ele>106</ele>
        <time>2017-03-28T15:42:03Z</time>
      </trkpt>
      <trkpt lat="49.46599" lon="1.34679">
        <ele>106</ele>
        <time>2017-03-28T15:42:18Z</time>
      </trkpt>
      <trkpt lat="49.46597" lon="1.34677">
        <ele>106</ele>
        <time>2017-03-28T15:42:18Z</time>
      </trkpt>
      <trkpt lat="49.46592" lon="1.34673">
        <ele>106</ele>
        <time>2017-03-28T15:42:18Z</time>
      </trkpt>
      <trkpt lat="49.4659" lon="1.34671">
        <ele>106</ele>
        <time>2017-03-28T15:42:18Z</time>
      </trkpt>
      <trkpt lat="49.46586" lon="1.34669">
        <ele>106</ele>
        <time>2017-03-28T15:42:34Z</time>
      </trkpt>
      <trkpt lat="49.46583" lon="1.34668">
        <ele>106</ele>
        <time>2017-03-28T15:42:34Z</time>
      </trkpt>
      <trkpt lat="49.4658" lon="1.34667">
        <ele>106</ele>
        <time>2017-03-28T15:42:34Z</time>
      </trkpt>
      <trkpt lat="49.46577" lon="1.34665">
        <ele>106</ele>
        <time>2017-03-28T15:42:34Z</time>
      </trkpt>
      <trkpt lat="49.46573" lon="1.34662">
        <ele>106</ele>
        <time>2017-03-28T15:42:50Z</time>
      </trkpt>
      <trkpt lat="49.46568" lon="1.34659">
        <ele>106</ele>
        <time>2017-03-28T15:42:50Z</time>
      </trkpt>
      <trkpt lat="49.46563" lon="1.34656">
        <ele>106</ele>
        <time>2017-03-28T15:42:50Z</time>
      </trkpt>
      <trkpt lat="49.4656" lon="1.34654">
        <ele>106</ele>
        <time>2017-03-28T15:42:50Z</time>
      </trkpt>
      <trkpt lat="49.46558" lon="1.34651">
        <ele>106</ele>
        <time>2017-03-28T15:43:06Z</time>
      </trkpt>
      <trkpt lat="49.46555" lon="1.34649">
        <ele>106</ele>
        <time>2017-03-28T15:43:06Z</time>
      </trkpt>
      <trkpt lat="49.46552" lon="1.34649">
        <ele>106</ele>
        <time>2017-03-28T15:43:06Z</time>
      </trkpt>
      <trkpt lat="49.46547" lon="1.34647">
        <ele>106</ele>
        <time>2017-03-28T15:43:06Z</time>
      </trkpt>
      <trkpt lat="49.46543" lon="1.34645">
        <ele>106</ele>
        <time>2017-03-28T15:43:26Z</time>
      </trkpt>
      <trkpt lat="49.4654" lon="1.34643">
        <ele>121</ele>
        <time>2017-03-28T15:43:26Z</time>
      </trkpt>
      <trkpt lat="49.46536" lon="1.34641">
        <ele>121</ele>
        <time>2017-03-28T15:43:26Z</time>
      </trkpt>
      <trkpt lat="49.46535" lon="1.3464">
        <ele>121</ele>
        <time>2017-03-28T15:43:26Z</time>
      </trkpt>
      <trkpt lat="49.46532" lon="1.34638">
        <ele>121</ele>
        <time>2017-03-28T15:43:26Z</time>
      </trkpt>
      <trkpt lat="49.46529" lon="1.34635">
        <ele>121</ele>
        <time>2017-03-28T15:43:44Z</time>
      </trkpt>
      <trkpt lat="49.46524" lon="1.34633">
        <ele>121</ele>
        <time>2017-03-28T15:43:44Z</time>
      </trkpt>
      <trkpt lat="49.46521" lon="1.34632">
        <ele>121</ele>
        <time>2017-03-28T15:43:44Z</time>
      </trkpt>
      <trkpt lat="49.46518" lon="1.34632">
        <ele>121</ele>
        <time>2017-03-28T15:43:44Z</time>
      </trkpt>
      <trkpt lat="49.46515" lon="1.3463">
        <ele>121</ele>
        <time>2017-03-28T15:43:59Z</time>
      </trkpt>
      <trkpt lat="49.46511" lon="1.34627">
        <ele>121</ele>
        <time>2017-03-28T15:43:59Z</time>
      </trkpt>
      <trkpt lat="49.46508" lon="1.34626">
        <ele>121</ele>
        <time>2017-03-28T15:43:59Z</time>
      </trkpt>
      <trkpt lat="49.46505" lon="1.34625">
        <ele>121</ele>
        <time>2017-03-28T15:43:59Z</time>
      </trkpt>
      <trkpt lat="49.46504" lon="1.34623">
        <ele>127</ele>
        <time>2017-03-28T15:44:18Z</time>
      </trkpt>
      <trkpt lat="49.46503" lon="1.3462">
        <ele>127</ele>
        <time>2017-03-28T15:44:18Z</time>
      </trkpt>
      <trkpt lat="49.465" lon="1.34618">
        <ele>127</ele>
        <time>2017-03-28T15:44:18Z</time>
      </trkpt>
      <trkpt lat="49.46498" lon="1.34616">
        <ele>127</ele>
        <time>2017-03-28T15:44:18Z</time>
      </trkpt>
      <trkpt lat="49.46495" lon="1.34614">
        <ele>127</ele>
        <time>2017-03-28T15:44:18Z</time>
      </trkpt>
      <trkpt lat="49.46493" lon="1.34611">
        <ele>127</ele>
        <time>2017-03-28T15:44:39Z</time>
      </trkpt>
      <trkpt lat="49.46492" lon="1.34609">
        <ele>127</ele>
        <time>2017-03-28T15:44:39Z</time>
      </trkpt>
      <trkpt lat="49.46489" lon="1.34607">
        <ele>127</ele>
        <time>2017-03-28T15:44:39Z</time>
      </trkpt>
      <trkpt lat="49.46487" lon="1.34604">
        <ele>127</ele>
        <time>2017-03-28T15:44:39Z</time>
      </trkpt>
      <trkpt lat="49.46483" lon="1.34603">
        <ele>127</ele>
        <time>2017-03-28T15:44:39Z</time>
      </trkpt>
      <trkpt lat="49.46479" lon="1.346">
        <ele>127</ele>
        <time>2017-03-28T15:44:55Z</time>
      </trkpt>
      <trkpt lat="49.46476" lon="1.34597">
        <ele>127</ele>
        <time>2017-03-28T15:44:55Z</time>
      </trkpt>
      <trkpt lat="49.46472" lon="1.34593">
        <ele>127</ele>
        <time>2017-03-28T15:44:55Z</time>
      </trkpt>
      <trkpt lat="49.4647" lon="1.34591">
        <ele>127</ele>
        <time>2017-03-28T15:44:56Z</time>
      </trkpt>
      <trkpt lat="49.46467" lon="1.3459">
        <ele>127</ele>
        <time>2017-03-28T15:45:14Z</time>
      </trkpt>
      <trkpt lat="49.46464" lon="1.34589">
        <ele>127</ele>
        <time>2017-03-28T15:45:14Z</time>
      </trkpt>
      <trkpt lat="49.46461" lon="1.34588">
        <ele>127</ele>
        <time>2017-03-28T15:45:14Z</time>
      </trkpt>
      <trkpt lat="49.46459" lon="1.34586">
        <ele>127</ele>
        <time>2017-03-28T15:45:14Z</time>
      </trkpt>
      <trkpt lat="49.46457" lon="1.34584">
        <ele>132</ele>
        <time>2017-03-28T15:45:14Z</time>
      </trkpt>
      <trkpt lat="49.46454" lon="1.34583">
        <ele>132</ele>
        <time>2017-03-28T15:45:32Z</time>
      </trkpt>
      <trkpt lat="49.4645" lon="1.3458">
        <ele>132</ele>
        <time>2017-03-28T15:45:32Z</time>
      </trkpt>
      <trkpt lat="49.46446" lon="1.34577">
        <ele>132</ele>
        <time>2017-03-28T15:45:32Z</time>
      </trkpt>
      <trkpt lat="49.46441" lon="1.34574">
        <ele>132</ele>
        <time>2017-03-28T15:45:32Z</time>
      </trkpt>
      <trkpt lat="49.46437" lon="1.34571">
        <ele>132</ele>
        <time>2017-03-28T15:45:47Z</time>
      </trkpt>
      <trkpt lat="49.46435" lon="1.3457">
        <ele>132</ele>
        <time>2017-03-28T15:45:47Z</time>
      </trkpt>
      <trkpt lat="49.46432" lon="1.34568">
        <ele>132</ele>
        <time>2017-03-28T15:45:47Z</time>
      </trkpt>
      <trkpt lat="49.46427" lon="1.34565">
        <ele>132</ele>
        <time>2017-03-28T15:45:47Z</time>
      </trkpt>
      <trkpt lat="49.46423" lon="1.34563">
        <ele>132</ele>
        <time>2017-03-28T15:46:03Z</time>
      </trkpt>
      <trkpt lat="49.46421" lon="1.34562">
        <ele>132</ele>
        <time>2017-03-28T15:46:03Z</time>
      </trkpt>
      <trkpt lat="49.46415" lon="1.34558">
        <ele>132</ele>
        <time>2017-03-28T15:46:03Z</time>
      </trkpt>
      <trkpt lat="49.46411" lon="1.34557">
        <ele>132</ele>
        <time>2017-03-28T15:46:03Z</time>
      </trkpt>
      <trkpt lat="49.46408" lon="1.34555">
        <ele>132</ele>
        <time>2017-03-28T15:46:20Z</time>
      </trkpt>
      <trkpt lat="49.46403" lon="1.3455">
        <ele>132</ele>
        <time>2017-03-28T15:46:20Z</time>
      </trkpt>
      <trkpt lat="49.464" lon="1.34548">
        <ele>132</ele>
        <time>2017-03-28T15:46:20Z</time>
      </trkpt>
      <trkpt lat="49.46395" lon="1.34545">
        <ele>132</ele>
        <time>2017-03-28T15:46:20Z</time>
      </trkpt>
      <trkpt lat="49.46392" lon="1.34543">
        <ele>132</ele>
        <time>2017-03-28T15:46:35Z</time>
      </trkpt>
      <trkpt lat="49.4639" lon="1.34542">
        <ele>131</ele>
        <time>2017-03-28T15:46:35Z</time>
      </trkpt>
      <trkpt lat="49.46385" lon="1.34536">
        <ele>131</ele>
        <time>2017-03-28T15:46:35Z</time>
      </trkpt>
      <trkpt lat="49.46381" lon="1.34532">
        <ele>131</ele>
        <time>2017-03-28T15:46:35Z</time>
      </trkpt>
      <trkpt lat="49.46377" lon="1.34529">
        <ele>131</ele>
        <time>2017-03-28T15:46:51Z</time>
      </trkpt>
      <trkpt lat="49.46375" lon="1.34527">
        <ele>137</ele>
        <time>2017-03-28T15:46:51Z</time>
      </trkpt>
      <trkpt lat="49.4637" lon="1.34525">
        <ele>137</ele>
        <time>2017-03-28T15:46:51Z</time>
      </trkpt>
      <trkpt lat="49.46367" lon="1.34524">
        <ele>137</ele>
        <time>2017-03-28T15:46:51Z</time>
      </trkpt>
      <trkpt lat="49.46364" lon="1.34521">
        <ele>137</ele>
        <time>2017-03-28T15:47:07Z</time>
      </trkpt>
      <trkpt lat="49.46359" lon="1.34519">
        <ele>137</ele>
        <time>2017-03-28T15:47:07Z</time>
      </trkpt>
      <trkpt lat="49.46354" lon="1.34516">
        <ele>137</ele>
        <time>2017-03-28T15:47:07Z</time>
      </trkpt>
      <trkpt lat="49.46349" lon="1.34512">
        <ele>137</ele>
        <time>2017-03-28T15:47:07Z</time>
      </trkpt>
      <trkpt lat="49.46344" lon="1.34509">
        <ele>137</ele>
        <time>2017-03-28T15:47:23Z</time>
      </trkpt>
      <trkpt lat="49.46342" lon="1.34508">
        <ele>137</ele>
        <time>2017-03-28T15:47:23Z</time>
      </trkpt>
      <trkpt lat="49.46336" lon="1.34505">
        <ele>137</ele>
        <time>2017-03-28T15:47:23Z</time>
      </trkpt>
      <trkpt lat="49.46333" lon="1.34502">
        <ele>137</ele>
        <time>2017-03-28T15:47:23Z</time>
      </trkpt>
      <trkpt lat="49.46327" lon="1.34499">
        <ele>137</ele>
        <time>2017-03-28T15:47:39Z</time>
      </trkpt>
      <trkpt lat="49.46323" lon="1.34497">
        <ele>137</ele>
        <time>2017-03-28T15:47:39Z</time>
      </trkpt>
      <trkpt lat="49.4632" lon="1.34494">
        <ele>137</ele>
        <time>2017-03-28T15:47:39Z</time>
      </trkpt>
      <trkpt lat="49.46316" lon="1.34491">
        <ele>137</ele>
        <time>2017-03-28T15:47:39Z</time>
      </trkpt>
      <trkpt lat="49.46312" lon="1.34488">
        <ele>137</ele>
        <time>2017-03-28T15:47:56Z</time>
      </trkpt>
      <trkpt lat="49.46307" lon="1.34484">
        <ele>137</ele>
        <time>2017-03-28T15:47:56Z</time>
      </trkpt>
      <trkpt lat="49.46301" lon="1.34479">
        <ele>137</ele>
        <time>2017-03-28T15:47:56Z</time>
      </trkpt>
      <trkpt lat="49.46296" lon="1.34476">
        <ele>137</ele>
        <time>2017-03-28T15:47:56Z</time>
      </trkpt>
      <trkpt lat="49.46292" lon="1.34472">
        <ele>137</ele>
        <time>2017-03-28T15:48:12Z</time>
      </trkpt>
      <trkpt lat="49.4629" lon="1.3447">
        <ele>139</ele>
        <time>2017-03-28T15:48:12Z</time>
      </trkpt>
      <trkpt lat="49.46286" lon="1.34466">
        <ele>139</ele>
        <time>2017-03-28T15:48:12Z</time>
      </trkpt>
      <trkpt lat="49.46282" lon="1.34463">
        <ele>139</ele>
        <time>2017-03-28T15:48:12Z</time>
      </trkpt>
      <trkpt lat="49.4628" lon="1.34457">
        <ele>137</ele>
        <time>2017-03-28T15:50:55Z</time>
      </trkpt>
      <trkpt lat="49.4628" lon="1.34455">
        <ele>137</ele>
        <time>2017-03-28T15:50:55Z</time>
      </trkpt>
      <trkpt lat="49.46276" lon="1.34453">
        <ele>137</ele>
        <time>2017-03-28T15:50:55Z</time>
      </trkpt>
      <trkpt lat="49.46273" lon="1.3445">
        <ele>137</ele>
        <time>2017-03-28T15:50:55Z</time>
      </trkpt>
      <trkpt lat="49.4627" lon="1.34449">
        <ele>137</ele>
        <time>2017-03-28T15:50:55Z</time>
      </trkpt>
      <trkpt lat="49.46265" lon="1.34447">
        <ele>137</ele>
        <time>2017-03-28T15:51:11Z</time>
      </trkpt>
      <trkpt lat="49.46262" lon="1.34445">
        <ele>137</ele>
        <time>2017-03-28T15:51:11Z</time>
      </trkpt>
      <trkpt lat="49.46256" lon="1.34446">
        <ele>137</ele>
        <time>2017-03-28T15:51:11Z</time>
      </trkpt>
      <trkpt lat="49.46251" lon="1.34445">
        <ele>137</ele>
        <time>2017-03-28T15:51:11Z</time>
      </trkpt>
      <trkpt lat="49.46247" lon="1.34442">
        <ele>137</ele>
        <time>2017-03-28T15:51:27Z</time>
      </trkpt>
      <trkpt lat="49.46244" lon="1.3444">
        <ele>137</ele>
        <time>2017-03-28T15:51:27Z</time>
      </trkpt>
      <trkpt lat="49.46241" lon="1.34434">
        <ele>137</ele>
        <time>2017-03-28T15:51:27Z</time>
      </trkpt>
      <trkpt lat="49.46239" lon="1.3443">
        <ele>137</ele>
        <time>2017-03-28T15:51:27Z</time>
      </trkpt>
      <trkpt lat="49.46235" lon="1.34425">
        <ele>137</ele>
        <time>2017-03-28T15:51:42Z</time>
      </trkpt>
      <trkpt lat="49.46233" lon="1.34421">
        <ele>137</ele>
        <time>2017-03-28T15:51:42Z</time>
      </trkpt>
      <trkpt lat="49.46228" lon="1.34416">
        <ele>137</ele>
        <time>2017-03-28T15:51:42Z</time>
      </trkpt>
      <trkpt lat="49.46226" lon="1.34412">
        <ele>137</ele>
        <time>2017-03-28T15:51:42Z</time>
      </trkpt>
      <trkpt lat="49.46223" lon="1.34408">
        <ele>137</ele>
        <time>2017-03-28T15:52:00Z</time>
      </trkpt>
      <trkpt lat="49.46219" lon="1.34402">
        <ele>137</ele>
        <time>2017-03-28T15:52:00Z</time>
      </trkpt>
      <trkpt lat="49.46216" lon="1.34399">
        <ele>137</ele>
        <time>2017-03-28T15:52:00Z</time>
      </trkpt>
      <trkpt lat="49.46212" lon="1.34394">
        <ele>137</ele>
        <time>2017-03-28T15:52:00Z</time>
      </trkpt>
      <trkpt lat="49.46209" lon="1.3439">
        <ele>137</ele>
        <time>2017-03-28T15:52:16Z</time>
      </trkpt>
      <trkpt lat="49.46206" lon="1.34384">
        <ele>140</ele>
        <time>2017-03-28T15:52:16Z</time>
      </trkpt>
      <trkpt lat="49.462" lon="1.34378">
        <ele>140</ele>
        <time>2017-03-28T15:52:16Z</time>
      </trkpt>
      <trkpt lat="49.46197" lon="1.34373">
        <ele>140</ele>
        <time>2017-03-28T15:52:16Z</time>
      </trkpt>
      <trkpt lat="49.46193" lon="1.34372">
        <ele>140</ele>
        <time>2017-03-28T15:52:30Z</time>
      </trkpt>
      <trkpt lat="49.46188" lon="1.34368">
        <ele>140</ele>
        <time>2017-03-28T15:52:30Z</time>
      </trkpt>
      <trkpt lat="49.46185" lon="1.34364">
        <ele>140</ele>
        <time>2017-03-28T15:52:30Z</time>
      </trkpt>
      <trkpt lat="49.46182" lon="1.34362">
        <ele>140</ele>
        <time>2017-03-28T15:52:30Z</time>
      </trkpt>
      <trkpt lat="49.46178" lon="1.34359">
        <ele>140</ele>
        <time>2017-03-28T15:52:46Z</time>
      </trkpt>
      <trkpt lat="49.46175" lon="1.34356">
        <ele>140</ele>
        <time>2017-03-28T15:52:46Z</time>
      </trkpt>
      <trkpt lat="49.46172" lon="1.34352">
        <ele>140</ele>
        <time>2017-03-28T15:52:46Z</time>
      </trkpt>
      <trkpt lat="49.46168" lon="1.34347">
        <ele>140</ele>
        <time>2017-03-28T15:52:46Z</time>
      </trkpt>
      <trkpt lat="49.46164" lon="1.34343">
        <ele>140</ele>
        <time>2017-03-28T15:53:02Z</time>
      </trkpt>
      <trkpt lat="49.4616" lon="1.34339">
        <ele>140</ele>
        <time>2017-03-28T15:53:02Z</time>
      </trkpt>
      <trkpt lat="49.46155" lon="1.34335">
        <ele>140</ele>
        <time>2017-03-28T15:53:02Z</time>
      </trkpt>
      <trkpt lat="49.4615" lon="1.34332">
        <ele>140</ele>
        <time>2017-03-28T15:53:02Z</time>
      </trkpt>
      <trkpt lat="49.46146" lon="1.34328">
        <ele>140</ele>
        <time>2017-03-28T15:53:18Z</time>
      </trkpt>
      <trkpt lat="49.46143" lon="1.34324">
        <ele>140</ele>
        <time>2017-03-28T15:53:18Z</time>
      </trkpt>
      <trkpt lat="49.46139" lon="1.34321">
        <ele>140</ele>
        <time>2017-03-28T15:53:18Z</time>
      </trkpt>
      <trkpt lat="49.46134" lon="1.34317">
        <ele>140</ele>
        <time>2017-03-28T15:53:18Z</time>
      </trkpt>
      <trkpt lat="49.46131" lon="1.34312">
        <ele>140</ele>
        <time>2017-03-28T15:53:34Z</time>
      </trkpt>
      <trkpt lat="49.46127" lon="1.34308">
        <ele>140</ele>
        <time>2017-03-28T15:53:34Z</time>
      </trkpt>
      <trkpt lat="49.46123" lon="1.34305">
        <ele>140</ele>
        <time>2017-03-28T15:53:34Z</time>
      </trkpt>
      <trkpt lat="49.46119" lon="1.34301">
        <ele>140</ele>
        <time>2017-03-28T15:53:34Z</time>
      </trkpt>
      <trkpt lat="49.46115" lon="1.34297">
        <ele>140</ele>
        <time>2017-03-28T15:53:50Z</time>
      </trkpt>
      <trkpt lat="49.46111" lon="1.34293">
        <ele>140</ele>
        <time>2017-03-28T15:53:50Z</time>
      </trkpt>
      <trkpt lat="49.46107" lon="1.3429">
        <ele>141</ele>
        <time>2017-03-28T15:53:50Z</time>
      </trkpt>
      <trkpt lat="49.46101" lon="1.34286">
        <ele>141</ele>
        <time>2017-03-28T15:53:50Z</time>
      </trkpt>
      <trkpt lat="49.46097" lon="1.34281">
        <ele>141</ele>
        <time>2017-03-28T15:54:06Z</time>
      </trkpt>
      <trkpt lat="49.46094" lon="1.34278">
        <ele>141</ele>
        <time>2017-03-28T15:54:06Z</time>
      </trkpt>
      <trkpt lat="49.46091" lon="1.34275">
        <ele>141</ele>
        <time>2017-03-28T15:54:06Z</time>
      </trkpt>
      <trkpt lat="49.46087" lon="1.34271">
        <ele>141</ele>
        <time>2017-03-28T15:54:06Z</time>
      </trkpt>
      <trkpt lat="49.46084" lon="1.34268">
        <ele>141</ele>
        <time>2017-03-28T15:54:22Z</time>
      </trkpt>
      <trkpt lat="49.46081" lon="1.34265">
        <ele>141</ele>
        <time>2017-03-28T15:54:22Z</time>
      </trkpt>
      <trkpt lat="49.46077" lon="1.3426">
        <ele>141</ele>
        <time>2017-03-28T15:54:22Z</time>
      </trkpt>
      <trkpt lat="49.46074" lon="1.34255">
        <ele>141</ele>
        <time>2017-03-28T15:54:22Z</time>
      </trkpt>
      <trkpt lat="49.46071" lon="1.34249">
        <ele>141</ele>
        <time>2017-03-28T15:54:38Z</time>
      </trkpt>
      <trkpt lat="49.46068" lon="1.34242">
        <ele>141</ele>
        <time>2017-03-28T15:54:38Z</time>
      </trkpt>
      <trkpt lat="49.46066" lon="1.34236">
        <ele>141</ele>
        <time>2017-03-28T15:54:38Z</time>
      </trkpt>
      <trkpt lat="49.46064" lon="1.34231">
        <ele>141</ele>
        <time>2017-03-28T15:54:38Z</time>
      </trkpt>
      <trkpt lat="49.46062" lon="1.34227">
        <ele>141</ele>
        <time>2017-03-28T15:54:54Z</time>
      </trkpt>
      <trkpt lat="49.4606" lon="1.34221">
        <ele>141</ele>
        <time>2017-03-28T15:54:54Z</time>
      </trkpt>
      <trkpt lat="49.46057" lon="1.34215">
        <ele>141</ele>
        <time>2017-03-28T15:54:54Z</time>
      </trkpt>
      <trkpt lat="49.46055" lon="1.34209">
        <ele>141</ele>
        <time>2017-03-28T15:54:54Z</time>
      </trkpt>
      <trkpt lat="49.46054" lon="1.34203">
        <ele>141</ele>
        <time>2017-03-28T15:55:10Z</time>
      </trkpt>
      <trkpt lat="49.46052" lon="1.34197">
        <ele>141</ele>
        <time>2017-03-28T15:55:10Z</time>
      </trkpt>
      <trkpt lat="49.4605" lon="1.34191">
        <ele>141</ele>
        <time>2017-03-28T15:55:10Z</time>
      </trkpt>
      <trkpt lat="49.46048" lon="1.34185">
        <ele>141</ele>
        <time>2017-03-28T15:55:10Z</time>
      </trkpt>
      <trkpt lat="49.46045" lon="1.34178">
        <ele>141</ele>
        <time>2017-03-28T15:55:26Z</time>
      </trkpt>
      <trkpt lat="49.46043" lon="1.34172">
        <ele>141</ele>
        <time>2017-03-28T15:55:26Z</time>
      </trkpt>
      <trkpt lat="49.46041" lon="1.34165">
        <ele>141</ele>
        <time>2017-03-28T15:55:26Z</time>
      </trkpt>
      <trkpt lat="49.46039" lon="1.34159">
        <ele>141</ele>
        <time>2017-03-28T15:55:26Z</time>
      </trkpt>
      <trkpt lat="49.46036" lon="1.34153">
        <ele>141</ele>
        <time>2017-03-28T15:55:42Z</time>
      </trkpt>
      <trkpt lat="49.46034" lon="1.34147">
        <ele>141</ele>
        <time>2017-03-28T15:55:42Z</time>
      </trkpt>
      <trkpt lat="49.46031" lon="1.34142">
        <ele>141</ele>
        <time>2017-03-28T15:55:42Z</time>
      </trkpt>
      <trkpt lat="49.46029" lon="1.34137">
        <ele>141</ele>
        <time>2017-03-28T15:55:42Z</time>
      </trkpt>
      <trkpt lat="49.46027" lon="1.34131">
        <ele>141</ele>
        <time>2017-03-28T15:55:58Z</time>
      </trkpt>
      <trkpt lat="49.46025" lon="1.34124">
        <ele>141</ele>
        <time>2017-03-28T15:55:58Z</time>
      </trkpt>
      <trkpt lat="49.46023" lon="1.34116">
        <ele>141</ele>
        <time>2017-03-28T15:55:58Z</time>
      </trkpt>
      <trkpt lat="49.46021" lon="1.34109">
        <ele>141</ele>
        <time>2017-03-28T15:55:58Z</time>
      </trkpt>
      <trkpt lat="49.46018" lon="1.34103">
        <ele>141</ele>
        <time>2017-03-28T15:56:14Z</time>
      </trkpt>
      <trkpt lat="49.46015" lon="1.34096">
        <ele>141</ele>
        <time>2017-03-28T15:56:14Z</time>
      </trkpt>
      <trkpt lat="49.46013" lon="1.34089">
        <ele>141</ele>
        <time>2017-03-28T15:56:14Z</time>
      </trkpt>
      <trkpt lat="49.4601" lon="1.34084">
        <ele>141</ele>
        <time>2017-03-28T15:56:14Z</time>
      </trkpt>
      <trkpt lat="49.46008" lon="1.3408">
        <ele>141</ele>
        <time>2017-03-28T15:56:30Z</time>
      </trkpt>
      <trkpt lat="49.46005" lon="1.34073">
        <ele>141</ele>
        <time>2017-03-28T15:56:30Z</time>
      </trkpt>
      <trkpt lat="49.46003" lon="1.34067">
        <ele>141</ele>
        <time>2017-03-28T15:56:30Z</time>
      </trkpt>
      <trkpt lat="49.46001" lon="1.34061">
        <ele>141</ele>
        <time>2017-03-28T15:56:30Z</time>
      </trkpt>
      <trkpt lat="49.45998" lon="1.34054">
        <ele>141</ele>
        <time>2017-03-28T15:56:46Z</time>
      </trkpt>
      <trkpt lat="49.45996" lon="1.34049">
        <ele>141</ele>
        <time>2017-03-28T15:56:46Z</time>
      </trkpt>
      <trkpt lat="49.45993" lon="1.34043">
        <ele>141</ele>
        <time>2017-03-28T15:56:46Z</time>
      </trkpt>
      <trkpt lat="49.4599" lon="1.34037">
        <ele>141</ele>
        <time>2017-03-28T15:56:46Z</time>
      </trkpt>
      <trkpt lat="49.45987" lon="1.3403">
        <ele>141</ele>
        <time>2017-03-28T15:57:03Z</time>
      </trkpt>
      <trkpt lat="49.45986" lon="1.34025">
        <ele>141</ele>
        <time>2017-03-28T15:57:03Z</time>
      </trkpt>
      <trkpt lat="49.45982" lon="1.34017">
        <ele>141</ele>
        <time>2017-03-28T15:57:03Z</time>
      </trkpt>
      <trkpt lat="49.45981" lon="1.34013">
        <ele>141</ele>
        <time>2017-03-28T15:57:03Z</time>
      </trkpt>
      <trkpt lat="49.45978" lon="1.34006">
        <ele>141</ele>
        <time>2017-03-28T15:57:18Z</time>
      </trkpt>
      <trkpt lat="49.45976" lon="1.34002">
        <ele>141</ele>
        <time>2017-03-28T15:57:18Z</time>
      </trkpt>
      <trkpt lat="49.45973" lon="1.33995">
        <ele>141</ele>
        <time>2017-03-28T15:57:18Z</time>
      </trkpt>
      <trkpt lat="49.4597" lon="1.33989">
        <ele>141</ele>
        <time>2017-03-28T15:57:18Z</time>
      </trkpt>
      <trkpt lat="49.45967" lon="1.33983">
        <ele>141</ele>
        <time>2017-03-28T15:57:34Z</time>
      </trkpt>
      <trkpt lat="49.45963" lon="1.33978">
        <ele>141</ele>
        <time>2017-03-28T15:57:34Z</time>
      </trkpt>
      <trkpt lat="49.45958" lon="1.33974">
        <ele>140</ele>
        <time>2017-03-28T15:57:34Z</time>
      </trkpt>
      <trkpt lat="49.45954" lon="1.33974">
        <ele>140</ele>
        <time>2017-03-28T15:57:34Z</time>
      </trkpt>
      <trkpt lat="49.45949" lon="1.33973">
        <ele>140</ele>
        <time>2017-03-28T15:57:52Z</time>
      </trkpt>
      <trkpt lat="49.45942" lon="1.33971">
        <ele>140</ele>
        <time>2017-03-28T15:57:52Z</time>
      </trkpt>
      <trkpt lat="49.45938" lon="1.33969">
        <ele>140</ele>
        <time>2017-03-28T15:57:52Z</time>
      </trkpt>
      <trkpt lat="49.45934" lon="1.33967">
        <ele>140</ele>
        <time>2017-03-28T15:57:52Z</time>
      </trkpt>
      <trkpt lat="49.45931" lon="1.33966">
        <ele>140</ele>
        <time>2017-03-28T15:58:06Z</time>
      </trkpt>
      <trkpt lat="49.45925" lon="1.33964">
        <ele>140</ele>
        <time>2017-03-28T15:58:06Z</time>
      </trkpt>
      <trkpt lat="49.4592" lon="1.33963">
        <ele>140</ele>
        <time>2017-03-28T15:58:06Z</time>
      </trkpt>
      <trkpt lat="49.45915" lon="1.33961">
        <ele>140</ele>
        <time>2017-03-28T15:58:06Z</time>
      </trkpt>
      <trkpt lat="49.45911" lon="1.33959">
        <ele>140</ele>
        <time>2017-03-28T15:58:22Z</time>
      </trkpt>
      <trkpt lat="49.45908" lon="1.33958">
        <ele>141</ele>
        <time>2017-03-28T15:58:22Z</time>
      </trkpt>
      <trkpt lat="49.45905" lon="1.33957">
        <ele>141</ele>
        <time>2017-03-28T15:58:22Z</time>
      </trkpt>
      <trkpt lat="49.45902" lon="1.33955">
        <ele>141</ele>
        <time>2017-03-28T15:58:22Z</time>
      </trkpt>
      <trkpt lat="49.45896" lon="1.33951">
        <ele>141</ele>
        <time>2017-03-28T15:58:38Z</time>
      </trkpt>
      <trkpt lat="49.45893" lon="1.3395">
        <ele>141</ele>
        <time>2017-03-28T15:58:38Z</time>
      </trkpt>
      <trkpt lat="49.45888" lon="1.33947">
        <ele>141</ele>
        <time>2017-03-28T15:58:38Z</time>
      </trkpt>
      <trkpt lat="49.45884" lon="1.33946">
        <ele>141</ele>
        <time>2017-03-28T15:58:38Z</time>
      </trkpt>
      <trkpt lat="49.45881" lon="1.33944">
        <ele>141</ele>
        <time>2017-03-28T15:58:54Z</time>
      </trkpt>
      <trkpt lat="49.45878" lon="1.33943">
        <ele>141</ele>
        <time>2017-03-28T15:58:54Z</time>
      </trkpt>
      <trkpt lat="49.45876" lon="1.33941">
        <ele>141</ele>
        <time>2017-03-28T15:58:54Z</time>
      </trkpt>
      <trkpt lat="49.4587" lon="1.33942">
        <ele>142</ele>
        <time>2017-03-28T15:58:54Z</time>
      </trkpt>
      <trkpt lat="49.45866" lon="1.33942">
        <ele>142</ele>
        <time>2017-03-28T15:59:10Z</time>
      </trkpt>
      <trkpt lat="49.45864" lon="1.33948">
        <ele>142</ele>
        <time>2017-03-28T15:59:10Z</time>
      </trkpt>
      <trkpt lat="49.45866" lon="1.33954">
        <ele>142</ele>
        <time>2017-03-28T15:59:10Z</time>
      </trkpt>
      <trkpt lat="49.45869" lon="1.3396">
        <ele>140</ele>
        <time>2017-03-28T15:59:10Z</time>
      </trkpt>
      <trkpt lat="49.45872" lon="1.33968">
        <ele>140</ele>
        <time>2017-03-28T15:59:26Z</time>
      </trkpt>
      <trkpt lat="49.45873" lon="1.33975">
        <ele>140</ele>
        <time>2017-03-28T15:59:26Z</time>
      </trkpt>
      <trkpt lat="49.45876" lon="1.33982">
        <ele>140</ele>
        <time>2017-03-28T15:59:26Z</time>
      </trkpt>
      <trkpt lat="49.45879" lon="1.33988">
        <ele>140</ele>
        <time>2017-03-28T15:59:26Z</time>
      </trkpt>
      <trkpt lat="49.45881" lon="1.33994">
        <ele>140</ele>
        <time>2017-03-28T15:59:42Z</time>
      </trkpt>
      <trkpt lat="49.45883" lon="1.34001">
        <ele>140</ele>
        <time>2017-03-28T15:59:42Z</time>
      </trkpt>
      <trkpt lat="49.45885" lon="1.34007">
        <ele>140</ele>
        <time>2017-03-28T15:59:42Z</time>
      </trkpt>
      <trkpt lat="49.45887" lon="1.34013">
        <ele>140</ele>
        <time>2017-03-28T15:59:42Z</time>
      </trkpt>
      <trkpt lat="49.4589" lon="1.34018">
        <ele>140</ele>
        <time>2017-03-28T15:59:58Z</time>
      </trkpt>
      <trkpt lat="49.45892" lon="1.34023">
        <ele>140</ele>
        <time>2017-03-28T15:59:58Z</time>
      </trkpt>
      <trkpt lat="49.45893" lon="1.3403">
        <ele>140</ele>
        <time>2017-03-28T15:59:58Z</time>
      </trkpt>
      <trkpt lat="49.45894" lon="1.34037">
        <ele>140</ele>
        <time>2017-03-28T15:59:58Z</time>
      </trkpt>
      <trkpt lat="49.45896" lon="1.34041">
        <ele>140</ele>
        <time>2017-03-28T16:00:14Z</time>
      </trkpt>
      <trkpt lat="49.45897" lon="1.34048">
        <ele>138</ele>
        <time>2017-03-28T16:00:14Z</time>
      </trkpt>
      <trkpt lat="49.45899" lon="1.34055">
        <ele>138</ele>
        <time>2017-03-28T16:00:14Z</time>
      </trkpt>
      <trkpt lat="49.459" lon="1.34063">
        <ele>138</ele>
        <time>2017-03-28T16:00:14Z</time>
      </trkpt>
      <trkpt lat="49.45901" lon="1.3407">
        <ele>138</ele>
        <time>2017-03-28T16:00:30Z</time>
      </trkpt>
      <trkpt lat="49.45902" lon="1.34076">
        <ele>138</ele>
        <time>2017-03-28T16:00:30Z</time>
      </trkpt>
      <trkpt lat="49.45902" lon="1.34083">
        <ele>138</ele>
        <time>2017-03-28T16:00:30Z</time>
      </trkpt>
      <trkpt lat="49.45903" lon="1.3409">
        <ele>138</ele>
        <time>2017-03-28T16:00:30Z</time>
      </trkpt>
      <trkpt lat="49.45904" lon="1.34098">
        <ele>138</ele>
        <time>2017-03-28T16:00:46Z</time>
      </trkpt>
      <trkpt lat="49.45905" lon="1.34105">
        <ele>138</ele>
        <time>2017-03-28T16:00:46Z</time>
      </trkpt>
      <trkpt lat="49.45906" lon="1.34111">
        <ele>138</ele>
        <time>2017-03-28T16:00:46Z</time>
      </trkpt>
      <trkpt lat="49.45907" lon="1.34118">
        <ele>138</ele>
        <time>2017-03-28T16:00:46Z</time>
      </trkpt>
      <trkpt lat="49.45908" lon="1.34125">
        <ele>138</ele>
        <time>2017-03-28T16:01:04Z</time>
      </trkpt>
      <trkpt lat="49.4591" lon="1.34131">
        <ele>139</ele>
        <time>2017-03-28T16:01:04Z</time>
      </trkpt>
      <trkpt lat="49.45912" lon="1.34138">
        <ele>139</ele>
        <time>2017-03-28T16:01:04Z</time>
      </trkpt>
      <trkpt lat="49.45914" lon="1.34145">
        <ele>139</ele>
        <time>2017-03-28T16:01:04Z</time>
      </trkpt>
      <trkpt lat="49.45916" lon="1.34149">
        <ele>139</ele>
        <time>2017-03-28T16:01:18Z</time>
      </trkpt>
      <trkpt lat="49.45917" lon="1.34155">
        <ele>139</ele>
        <time>2017-03-28T16:01:18Z</time>
      </trkpt>
      <trkpt lat="49.45918" lon="1.34163">
        <ele>139</ele>
        <time>2017-03-28T16:01:18Z</time>
      </trkpt>
      <trkpt lat="49.45919" lon="1.3417">
        <ele>139</ele>
        <time>2017-03-28T16:01:18Z</time>
      </trkpt>
      <trkpt lat="49.45919" lon="1.34176">
        <ele>139</ele>
        <time>2017-03-28T16:01:36Z</time>
      </trkpt>
      <trkpt lat="49.45918" lon="1.34183">
        <ele>139</ele>
        <time>2017-03-28T16:01:36Z</time>
      </trkpt>
      <trkpt lat="49.45916" lon="1.3419">
        <ele>139</ele>
        <time>2017-03-28T16:01:36Z</time>
      </trkpt>
      <trkpt lat="49.45914" lon="1.34197">
        <ele>139</ele>
        <time>2017-03-28T16:01:36Z</time>
      </trkpt>
      <trkpt lat="49.45912" lon="1.34199">
        <ele>139</ele>
        <time>2017-03-28T16:01:51Z</time>
      </trkpt>
      <trkpt lat="49.45907" lon="1.34204">
        <ele>139</ele>
        <time>2017-03-28T16:01:51Z</time>
      </trkpt>
      <trkpt lat="49.45905" lon="1.34207">
        <ele>139</ele>
        <time>2017-03-28T16:01:51Z</time>
      </trkpt>
      <trkpt lat="49.45903" lon="1.34212">
        <ele>141</ele>
        <time>2017-03-28T16:01:51Z</time>
      </trkpt>
      <trkpt lat="49.45898" lon="1.34217">
        <ele>141</ele>
        <time>2017-03-28T16:02:06Z</time>
      </trkpt>
      <trkpt lat="49.45896" lon="1.3422">
        <ele>141</ele>
        <time>2017-03-28T16:02:06Z</time>
      </trkpt>
      <trkpt lat="49.45893" lon="1.34226">
        <ele>141</ele>
        <time>2017-03-28T16:02:06Z</time>
      </trkpt>
      <trkpt lat="49.45891" lon="1.34233">
        <ele>141</ele>
        <time>2017-03-28T16:02:06Z</time>
      </trkpt>
      <trkpt lat="49.45889" lon="1.34239">
        <ele>141</ele>
        <time>2017-03-28T16:02:23Z</time>
      </trkpt>
      <trkpt lat="49.45887" lon="1.34244">
        <ele>141</ele>
        <time>2017-03-28T16:02:23Z</time>
      </trkpt>
      <trkpt lat="49.45885" lon="1.3425">
        <ele>141</ele>
        <time>2017-03-28T16:02:23Z</time>
      </trkpt>
      <trkpt lat="49.45884" lon="1.34257">
        <ele>141</ele>
        <time>2017-03-28T16:02:23Z</time>
      </trkpt>
      <trkpt lat="49.45881" lon="1.34265">
        <ele>141</ele>
        <time>2017-03-28T16:02:38Z</time>
      </trkpt>
      <trkpt lat="49.45879" lon="1.34269">
        <ele>141</ele>
        <time>2017-03-28T16:02:38Z</time>
      </trkpt>
      <trkpt lat="49.45875" lon="1.34278">
        <ele>141</ele>
        <time>2017-03-28T16:02:38Z</time>
      </trkpt>
      <trkpt lat="49.45873" lon="1.34281">
        <ele>139</ele>
        <time>2017-03-28T16:02:38Z</time>
      </trkpt>
      <trkpt lat="49.45871" lon="1.34287">
        <ele>139</ele>
        <time>2017-03-28T16:02:55Z</time>
      </trkpt>
      <trkpt lat="49.45869" lon="1.34293">
        <ele>139</ele>
        <time>2017-03-28T16:02:55Z</time>
      </trkpt>
      <trkpt lat="49.45866" lon="1.34296">
        <ele>139</ele>
        <time>2017-03-28T16:02:55Z</time>
      </trkpt>
      <trkpt lat="49.45863" lon="1.34302">
        <ele>139</ele>
        <time>2017-03-28T16:02:55Z</time>
      </trkpt>
      <trkpt lat="49.4586" lon="1.34307">
        <ele>139</ele>
        <time>2017-03-28T16:03:10Z</time>
      </trkpt>
      <trkpt lat="49.45857" lon="1.34311">
        <ele>139</ele>
        <time>2017-03-28T16:03:10Z</time>
      </trkpt>
      <trkpt lat="49.45853" lon="1.34314">
        <ele>139</ele>
        <time>2017-03-28T16:03:10Z</time>
      </trkpt>
      <trkpt lat="49.45849" lon="1.34311">
        <ele>139</ele>
        <time>2017-03-28T16:03:10Z</time>
      </trkpt>
      <trkpt lat="49.45847" lon="1.34309">
        <ele>139</ele>
        <time>2017-03-28T16:13:55Z</time>
      </trkpt>
      <trkpt lat="49.45842" lon="1.34309">
        <ele>139</ele>
        <time>2017-03-28T16:13:55Z</time>
      </trkpt>
      <trkpt lat="49.45838" lon="1.34314">
        <ele>139</ele>
        <time>2017-03-28T16:13:55Z</time>
      </trkpt>
      <trkpt lat="49.45836" lon="1.34311">
        <ele>139</ele>
        <time>2017-03-28T16:13:55Z</time>
      </trkpt>
      <trkpt lat="49.45834" lon="1.34308">
        <ele>139</ele>
        <time>2017-03-28T16:13:55Z</time>
      </trkpt>
      <trkpt lat="49.45834" lon="1.34308">
        <ele>139</ele>
        <time>2017-03-28T16:14:11Z</time>
      </trkpt>
      <trkpt lat="49.45834" lon="1.34308">
        <ele>139</ele>
        <time>2017-03-28T16:14:11Z</time>
      </trkpt>
      <trkpt lat="49.4583" lon="1.34304">
        <ele>139</ele>
        <time>2017-03-28T16:14:11Z</time>
      </trkpt>
      <trkpt lat="49.45828" lon="1.34298">
        <ele>139</ele>
        <time>2017-03-28T16:14:11Z</time>
      </trkpt>
      <trkpt lat="49.45823" lon="1.34293">
        <ele>139</ele>
        <time>2017-03-28T16:14:28Z</time>
      </trkpt>
      <trkpt lat="49.45821" lon="1.34289">
        <ele>139</ele>
        <time>2017-03-28T16:14:28Z</time>
      </trkpt>
      <trkpt lat="49.45822" lon="1.34281">
        <ele>139</ele>
        <time>2017-03-28T16:14:28Z</time>
      </trkpt>
      <trkpt lat="49.45819" lon="1.34274">
        <ele>139</ele>
        <time>2017-03-28T16:14:28Z</time>
      </trkpt>
      <trkpt lat="49.45817" lon="1.3427">
        <ele>139</ele>
        <time>2017-03-28T16:14:42Z</time>
      </trkpt>
      <trkpt lat="49.45815" lon="1.34264">
        <ele>139</ele>
        <time>2017-03-28T16:14:42Z</time>
      </trkpt>
      <trkpt lat="49.45814" lon="1.34257">
        <ele>139</ele>
        <time>2017-03-28T16:14:42Z</time>
      </trkpt>
      <trkpt lat="49.45812" lon="1.34253">
        <ele>139</ele>
        <time>2017-03-28T16:14:42Z</time>
      </trkpt>
      <trkpt lat="49.45811" lon="1.34247">
        <ele>139</ele>
        <time>2017-03-28T16:14:59Z</time>
      </trkpt>
      <trkpt lat="49.45807" lon="1.34239">
        <ele>139</ele>
        <time>2017-03-28T16:14:59Z</time>
      </trkpt>
      <trkpt lat="49.45799" lon="1.34238">
        <ele>139</ele>
        <time>2017-03-28T16:14:59Z</time>
      </trkpt>
      <trkpt lat="49.45795" lon="1.34241">
        <ele>139</ele>
        <time>2017-03-28T16:14:59Z</time>
      </trkpt>
      <trkpt lat="49.45792" lon="1.34244">
        <ele>139</ele>
        <time>2017-03-28T16:15:14Z</time>
      </trkpt>
      <trkpt lat="49.45789" lon="1.34247">
        <ele>133</ele>
        <time>2017-03-28T16:15:14Z</time>
      </trkpt>
      <trkpt lat="49.45786" lon="1.34251">
        <ele>133</ele>
        <time>2017-03-28T16:15:14Z</time>
      </trkpt>
      <trkpt lat="49.45783" lon="1.34257">
        <ele>133</ele>
        <time>2017-03-28T16:15:14Z</time>
      </trkpt>
      <trkpt lat="49.45781" lon="1.34263">
        <ele>133</ele>
        <time>2017-03-28T16:15:30Z</time>
      </trkpt>
      <trkpt lat="49.45777" lon="1.34269">
        <ele>133</ele>
        <time>2017-03-28T16:15:30Z</time>
      </trkpt>
      <trkpt lat="49.45773" lon="1.34274">
        <ele>133</ele>
        <time>2017-03-28T16:15:30Z</time>
      </trkpt>
      <trkpt lat="49.4577" lon="1.34279">
        <ele>133</ele>
        <time>2017-03-28T16:15:30Z</time>
      </trkpt>
      <trkpt lat="49.45765" lon="1.34286">
        <ele>133</ele>
        <time>2017-03-28T16:15:46Z</time>
      </trkpt>
      <trkpt lat="49.45762" lon="1.3429">
        <ele>133</ele>
        <time>2017-03-28T16:15:46Z</time>
      </trkpt>
      <trkpt lat="49.45758" lon="1.34296">
        <ele>131</ele>
        <time>2017-03-28T16:15:46Z</time>
      </trkpt>
      <trkpt lat="49.45755" lon="1.34303">
        <ele>131</ele>
        <time>2017-03-28T16:15:46Z</time>
      </trkpt>
      <trkpt lat="49.4575" lon="1.3431">
        <ele>131</ele>
        <time>2017-03-28T16:16:03Z</time>
      </trkpt>
      <trkpt lat="49.45747" lon="1.34314">
        <ele>131</ele>
        <time>2017-03-28T16:16:03Z</time>
      </trkpt>
      <trkpt lat="49.45743" lon="1.34321">
        <ele>131</ele>
        <time>2017-03-28T16:16:03Z</time>
      </trkpt>
      <trkpt lat="49.45741" lon="1.34325">
        <ele>131</ele>
        <time>2017-03-28T16:16:03Z</time>
      </trkpt>
      <trkpt lat="49.45738" lon="1.3433">
        <ele>131</ele>
        <time>2017-03-28T16:16:18Z</time>
      </trkpt>
      <trkpt lat="49.45733" lon="1.34338">
        <ele>131</ele>
        <time>2017-03-28T16:16:18Z</time>
      </trkpt>
      <trkpt lat="49.45729" lon="1.34343">
        <ele>131</ele>
        <time>2017-03-28T16:16:18Z</time>
      </trkpt>
      <trkpt lat="49.45725" lon="1.3435">
        <ele>131</ele>
        <time>2017-03-28T16:16:18Z</time>
      </trkpt>
      <trkpt lat="49.45722" lon="1.34355">
        <ele>131</ele>
        <time>2017-03-28T16:16:36Z</time>
      </trkpt>
      <trkpt lat="49.45719" lon="1.34361">
        <ele>131</ele>
        <time>2017-03-28T16:16:36Z</time>
      </trkpt>
      <trkpt lat="49.45716" lon="1.34366">
        <ele>131</ele>
        <time>2017-03-28T16:16:36Z</time>
      </trkpt>
      <trkpt lat="49.45712" lon="1.34374">
        <ele>131</ele>
        <time>2017-03-28T16:16:36Z</time>
      </trkpt>
      <trkpt lat="49.45709" lon="1.34378">
        <ele>130</ele>
        <time>2017-03-28T16:16:50Z</time>
      </trkpt>
      <trkpt lat="49.45704" lon="1.34386">
        <ele>122</ele>
        <time>2017-03-28T16:16:50Z</time>
      </trkpt>
      <trkpt lat="49.45701" lon="1.3439">
        <ele>122</ele>
        <time>2017-03-28T16:16:50Z</time>
      </trkpt>
      <trkpt lat="49.45698" lon="1.34395">
        <ele>122</ele>
        <time>2017-03-28T16:16:50Z</time>
      </trkpt>
      <trkpt lat="49.45694" lon="1.34402">
        <ele>122</ele>
        <time>2017-03-28T16:17:07Z</time>
      </trkpt>
      <trkpt lat="49.45691" lon="1.34407">
        <ele>122</ele>
        <time>2017-03-28T16:17:07Z</time>
      </trkpt>
      <trkpt lat="49.45688" lon="1.34413">
        <ele>122</ele>
        <time>2017-03-28T16:17:07Z</time>
      </trkpt>
      <trkpt lat="49.45683" lon="1.34418">
        <ele>122</ele>
        <time>2017-03-28T16:17:07Z</time>
      </trkpt>
      <trkpt lat="49.4568" lon="1.34421">
        <ele>122</ele>
        <time>2017-03-28T16:17:24Z</time>
      </trkpt>
      <trkpt lat="49.45675" lon="1.34428">
        <ele>122</ele>
        <time>2017-03-28T16:17:24Z</time>
      </trkpt>
      <trkpt lat="49.45672" lon="1.34433">
        <ele>122</ele>
        <time>2017-03-28T16:17:24Z</time>
      </trkpt>
      <trkpt lat="49.45667" lon="1.3444">
        <ele>122</ele>
        <time>2017-03-28T16:17:24Z</time>
      </trkpt>
      <trkpt lat="49.45664" lon="1.34445">
        <ele>122</ele>
        <time>2017-03-28T16:17:39Z</time>
      </trkpt>
      <trkpt lat="49.4566" lon="1.3445">
        <ele>122</ele>
        <time>2017-03-28T16:17:39Z</time>
      </trkpt>
      <trkpt lat="49.45656" lon="1.34456">
        <ele>122</ele>
        <time>2017-03-28T16:17:39Z</time>
      </trkpt>
      <trkpt lat="49.45653" lon="1.3446">
        <ele>125</ele>
        <time>2017-03-28T16:17:39Z</time>
      </trkpt>
      <trkpt lat="49.45649" lon="1.34466">
        <ele>125</ele>
        <time>2017-03-28T16:17:54Z</time>
      </trkpt>
      <trkpt lat="49.45646" lon="1.34469">
        <ele>125</ele>
        <time>2017-03-28T16:17:54Z</time>
      </trkpt>
      <trkpt lat="49.45642" lon="1.3447">
        <ele>125</ele>
        <time>2017-03-28T16:17:54Z</time>
      </trkpt>
      <trkpt lat="49.45638" lon="1.34468">
        <ele>125</ele>
        <time>2017-03-28T16:17:54Z</time>
      </trkpt>
      <trkpt lat="49.45633" lon="1.34464">
        <ele>125</ele>
        <time>2017-03-28T16:18:11Z</time>
      </trkpt>
      <trkpt lat="49.45631" lon="1.34461">
        <ele>125</ele>
        <time>2017-03-28T16:18:11Z</time>
      </trkpt>
      <trkpt lat="49.45628" lon="1.34456">
        <ele>122</ele>
        <time>2017-03-28T16:18:11Z</time>
      </trkpt>
      <trkpt lat="49.45627" lon="1.34451">
        <ele>122</ele>
        <time>2017-03-28T16:18:11Z</time>
      </trkpt>
      <trkpt lat="49.45623" lon="1.34442">
        <ele>131</ele>
        <time>2017-03-28T16:18:27Z</time>
      </trkpt>
      <trkpt lat="49.4562" lon="1.34437">
        <ele>131</ele>
        <time>2017-03-28T16:18:27Z</time>
      </trkpt>
      <trkpt lat="49.45617" lon="1.3443">
        <ele>131</ele>
        <time>2017-03-28T16:18:27Z</time>
      </trkpt>
      <trkpt lat="49.45615" lon="1.34425">
        <ele>131</ele>
        <time>2017-03-28T16:18:27Z</time>
      </trkpt>
      <trkpt lat="49.45611" lon="1.34415">
        <ele>131</ele>
        <time>2017-03-28T16:18:42Z</time>
      </trkpt>
      <trkpt lat="49.45609" lon="1.34412">
        <ele>131</ele>
        <time>2017-03-28T16:18:42Z</time>
      </trkpt>
      <trkpt lat="49.45607" lon="1.34408">
        <ele>131</ele>
        <time>2017-03-28T16:18:42Z</time>
      </trkpt>
      <trkpt lat="49.45605" lon="1.34402">
        <ele>131</ele>
        <time>2017-03-28T16:18:42Z</time>
      </trkpt>
      <trkpt lat="49.45603" lon="1.34394">
        <ele>131</ele>
        <time>2017-03-28T16:18:58Z</time>
      </trkpt>
      <trkpt lat="49.45602" lon="1.34388">
        <ele>131</ele>
        <time>2017-03-28T16:18:58Z</time>
      </trkpt>
      <trkpt lat="49.456" lon="1.34381">
        <ele>131</ele>
        <time>2017-03-28T16:18:58Z</time>
      </trkpt>
      <trkpt lat="49.45598" lon="1.34375">
        <ele>126</ele>
        <time>2017-03-28T16:18:58Z</time>
      </trkpt>
      <trkpt lat="49.45594" lon="1.34369">
        <ele>126</ele>
        <time>2017-03-28T16:19:14Z</time>
      </trkpt>
      <trkpt lat="49.45591" lon="1.34362">
        <ele>126</ele>
        <time>2017-03-28T16:19:14Z</time>
      </trkpt>
      <trkpt lat="49.45588" lon="1.34357">
        <ele>126</ele>
        <time>2017-03-28T16:19:14Z</time>
      </trkpt>
      <trkpt lat="49.45586" lon="1.34351">
        <ele>126</ele>
        <time>2017-03-28T16:19:14Z</time>
      </trkpt>
      <trkpt lat="49.45583" lon="1.34345">
        <ele>126</ele>
        <time>2017-03-28T16:19:31Z</time>
      </trkpt>
      <trkpt lat="49.45581" lon="1.34338">
        <ele>126</ele>
        <time>2017-03-28T16:19:31Z</time>
      </trkpt>
      <trkpt lat="49.45577" lon="1.34329">
        <ele>126</ele>
        <time>2017-03-28T16:19:31Z</time>
      </trkpt>
      <trkpt lat="49.45575" lon="1.34325">
        <ele>126</ele>
        <time>2017-03-28T16:19:31Z</time>
      </trkpt>
      <trkpt lat="49.45572" lon="1.34318">
        <ele>126</ele>
        <time>2017-03-28T16:19:46Z</time>
      </trkpt>
      <trkpt lat="49.45569" lon="1.34314">
        <ele>126</ele>
        <time>2017-03-28T16:19:46Z</time>
      </trkpt>
      <trkpt lat="49.45564" lon="1.34307">
        <ele>126</ele>
        <time>2017-03-28T16:19:46Z</time>
      </trkpt>
      <trkpt lat="49.45562" lon="1.34301">
        <ele>126</ele>
        <time>2017-03-28T16:19:46Z</time>
      </trkpt>
      <trkpt lat="49.45559" lon="1.34293">
        <ele>126</ele>
        <time>2017-03-28T16:20:02Z</time>
      </trkpt>
      <trkpt lat="49.45556" lon="1.34286">
        <ele>128</ele>
        <time>2017-03-28T16:20:02Z</time>
      </trkpt>
      <trkpt lat="49.45552" lon="1.34281">
        <ele>128</ele>
        <time>2017-03-28T16:20:02Z</time>
      </trkpt>
      <trkpt lat="49.45551" lon="1.34275">
        <ele>128</ele>
        <time>2017-03-28T16:20:02Z</time>
      </trkpt>
      <trkpt lat="49.4555" lon="1.3427">
        <ele>128</ele>
        <time>2017-03-28T16:20:18Z</time>
      </trkpt>
      <trkpt lat="49.45548" lon="1.34264">
        <ele>128</ele>
        <time>2017-03-28T16:20:18Z</time>
      </trkpt>
      <trkpt lat="49.45545" lon="1.34258">
        <ele>128</ele>
        <time>2017-03-28T16:20:18Z</time>
      </trkpt>
      <trkpt lat="49.45541" lon="1.34252">
        <ele>134</ele>
        <time>2017-03-28T16:20:18Z</time>
      </trkpt>
      <trkpt lat="49.45538" lon="1.34245">
        <ele>134</ele>
        <time>2017-03-28T16:20:35Z</time>
      </trkpt>
      <trkpt lat="49.45536" lon="1.34237">
        <ele>134</ele>
        <time>2017-03-28T16:20:35Z</time>
      </trkpt>
      <trkpt lat="49.45535" lon="1.34229">
        <ele>134</ele>
        <time>2017-03-28T16:20:35Z</time>
      </trkpt>
      <trkpt lat="49.45534" lon="1.34224">
        <ele>134</ele>
        <time>2017-03-28T16:20:35Z</time>
      </trkpt>
      <trkpt lat="49.45531" lon="1.34215">
        <ele>134</ele>
        <time>2017-03-28T16:20:50Z</time>
      </trkpt>
      <trkpt lat="49.45528" lon="1.34209">
        <ele>134</ele>
        <time>2017-03-28T16:20:50Z</time>
      </trkpt>
      <trkpt lat="49.45526" lon="1.34204">
        <ele>131</ele>
        <time>2017-03-28T16:20:50Z</time>
      </trkpt>
      <trkpt lat="49.45524" lon="1.34198">
        <ele>131</ele>
        <time>2017-03-28T16:20:50Z</time>
      </trkpt>
      <trkpt lat="49.45522" lon="1.34192">
        <ele>131</ele>
        <time>2017-03-28T16:21:07Z</time>
      </trkpt>
      <trkpt lat="49.45518" lon="1.34186">
        <ele>131</ele>
        <time>2017-03-28T16:21:07Z</time>
      </trkpt>
      <trkpt lat="49.45516" lon="1.34182">
        <ele>131</ele>
        <time>2017-03-28T16:21:07Z</time>
      </trkpt>
      <trkpt lat="49.45514" lon="1.34175">
        <ele>131</ele>
        <time>2017-03-28T16:21:07Z</time>
      </trkpt>
      <trkpt lat="49.45514" lon="1.34168">
        <ele>131</ele>
        <time>2017-03-28T16:21:22Z</time>
      </trkpt>
      <trkpt lat="49.45513" lon="1.34161">
        <ele>131</ele>
        <time>2017-03-28T16:21:22Z</time>
      </trkpt>
      <trkpt lat="49.45511" lon="1.34153">
        <ele>131</ele>
        <time>2017-03-28T16:21:22Z</time>
      </trkpt>
      <trkpt lat="49.4551" lon="1.34145">
        <ele>131</ele>
        <time>2017-03-28T16:21:22Z</time>
      </trkpt>
      <trkpt lat="49.45509" lon="1.34139">
        <ele>131</ele>
        <time>2017-03-28T16:21:38Z</time>
      </trkpt>
      <trkpt lat="49.45508" lon="1.34131">
        <ele>131</ele>
        <time>2017-03-28T16:21:38Z</time>
      </trkpt>
      <trkpt lat="49.45507" lon="1.34127">
        <ele>131</ele>
        <time>2017-03-28T16:21:38Z</time>
      </trkpt>
      <trkpt lat="49.45506" lon="1.34119">
        <ele>132</ele>
        <time>2017-03-28T16:21:38Z</time>
      </trkpt>
      <trkpt lat="49.45505" lon="1.34112">
        <ele>132</ele>
        <time>2017-03-28T16:21:55Z</time>
      </trkpt>
      <trkpt lat="49.45504" lon="1.34101">
        <ele>132</ele>
        <time>2017-03-28T16:21:55Z</time>
      </trkpt>
      <trkpt lat="49.45504" lon="1.34094">
        <ele>132</ele>
        <time>2017-03-28T16:21:55Z</time>
      </trkpt>
      <trkpt lat="49.45504" lon="1.34089">
        <ele>132</ele>
        <time>2017-03-28T16:21:55Z</time>
      </trkpt>
      <trkpt lat="49.45503" lon="1.34079">
        <ele>132</ele>
        <time>2017-03-28T16:22:12Z</time>
      </trkpt>
      <trkpt lat="49.45503" lon="1.34073">
        <ele>132</ele>
        <time>2017-03-28T16:22:12Z</time>
      </trkpt>
      <trkpt lat="49.45504" lon="1.34065">
        <ele>132</ele>
        <time>2017-03-28T16:22:12Z</time>
      </trkpt>
      <trkpt lat="49.45505" lon="1.34058">
        <ele>132</ele>
        <time>2017-03-28T16:22:12Z</time>
      </trkpt>
      <trkpt lat="49.45505" lon="1.34052">
        <ele>132</ele>
        <time>2017-03-28T16:22:26Z</time>
      </trkpt>
      <trkpt lat="49.45505" lon="1.34043">
        <ele>132</ele>
        <time>2017-03-28T16:22:26Z</time>
      </trkpt>
      <trkpt lat="49.45505" lon="1.34036">
        <ele>134</ele>
        <time>2017-03-28T16:22:26Z</time>
      </trkpt>
      <trkpt lat="49.45504" lon="1.34028">
        <ele>134</ele>
        <time>2017-03-28T16:22:26Z</time>
      </trkpt>
      <trkpt lat="49.45503" lon="1.34018">
        <ele>134</ele>
        <time>2017-03-28T16:22:44Z</time>
      </trkpt>
      <trkpt lat="49.45503" lon="1.34013">
        <ele>134</ele>
        <time>2017-03-28T16:22:44Z</time>
      </trkpt>
      <trkpt lat="49.45501" lon="1.34006">
        <ele>134</ele>
        <time>2017-03-28T16:22:44Z</time>
      </trkpt>
      <trkpt lat="49.455" lon="1.33998">
        <ele>134</ele>
        <time>2017-03-28T16:22:44Z</time>
      </trkpt>
      <trkpt lat="49.455" lon="1.33992">
        <ele>134</ele>
        <time>2017-03-28T16:22:58Z</time>
      </trkpt>
      <trkpt lat="49.45499" lon="1.33981">
        <ele>134</ele>
        <time>2017-03-28T16:22:58Z</time>
      </trkpt>
      <trkpt lat="49.45498" lon="1.33975">
        <ele>134</ele>
        <time>2017-03-28T16:22:58Z</time>
      </trkpt>
      <trkpt lat="49.45498" lon="1.33968">
        <ele>134</ele>
        <time>2017-03-28T16:22:58Z</time>
      </trkpt>
      <trkpt lat="49.45498" lon="1.33961">
        <ele>134</ele>
        <time>2017-03-28T16:23:16Z</time>
      </trkpt>
      <trkpt lat="49.45498" lon="1.33955">
        <ele>134</ele>
        <time>2017-03-28T16:23:16Z</time>
      </trkpt>
      <trkpt lat="49.45497" lon="1.33948">
        <ele>134</ele>
        <time>2017-03-28T16:23:16Z</time>
      </trkpt>
      <trkpt lat="49.45497" lon="1.33939">
        <ele>134</ele>
        <time>2017-03-28T16:23:16Z</time>
      </trkpt>
      <trkpt lat="49.45496" lon="1.33933">
        <ele>134</ele>
        <time>2017-03-28T16:23:30Z</time>
      </trkpt>
      <trkpt lat="49.45496" lon="1.33925">
        <ele>134</ele>
        <time>2017-03-28T16:23:30Z</time>
      </trkpt>
      <trkpt lat="49.45495" lon="1.33917">
        <ele>134</ele>
        <time>2017-03-28T16:23:30Z</time>
      </trkpt>
      <trkpt lat="49.45494" lon="1.33909">
        <ele>134</ele>
        <time>2017-03-28T16:23:30Z</time>
      </trkpt>
      <trkpt lat="49.45494" lon="1.33901">
        <ele>134</ele>
        <time>2017-03-28T16:23:47Z</time>
      </trkpt>
      <trkpt lat="49.45493" lon="1.33893">
        <ele>134</ele>
        <time>2017-03-28T16:23:47Z</time>
      </trkpt>
      <trkpt lat="49.45492" lon="1.33885">
        <ele>134</ele>
        <time>2017-03-28T16:23:47Z</time>
      </trkpt>
      <trkpt lat="49.45492" lon="1.33876">
        <ele>134</ele>
        <time>2017-03-28T16:23:47Z</time>
      </trkpt>
      <trkpt lat="49.45491" lon="1.33868">
        <ele>134</ele>
        <time>2017-03-28T16:24:03Z</time>
      </trkpt>
      <trkpt lat="49.4549" lon="1.33863">
        <ele>134</ele>
        <time>2017-03-28T16:24:03Z</time>
      </trkpt>
      <trkpt lat="49.45489" lon="1.33852">
        <ele>134</ele>
        <time>2017-03-28T16:24:03Z</time>
      </trkpt>
      <trkpt lat="49.45489" lon="1.33845">
        <ele>134</ele>
        <time>2017-03-28T16:24:03Z</time>
      </trkpt>
      <trkpt lat="49.45489" lon="1.33838">
        <ele>134</ele>
        <time>2017-03-28T16:24:19Z</time>
      </trkpt>
      <trkpt lat="49.45489" lon="1.3383">
        <ele>134</ele>
        <time>2017-03-28T16:24:19Z</time>
      </trkpt>
      <trkpt lat="49.45488" lon="1.33823">
        <ele>134</ele>
        <time>2017-03-28T16:24:19Z</time>
      </trkpt>
      <trkpt lat="49.45486" lon="1.33814">
        <ele>134</ele>
        <time>2017-03-28T16:24:19Z</time>
      </trkpt>
      <trkpt lat="49.45487" lon="1.33817">
        <ele>134</ele>
        <time>2017-03-28T16:28:19Z</time>
      </trkpt>
      <trkpt lat="49.45483" lon="1.33815">
        <ele>134</ele>
        <time>2017-03-28T16:28:19Z</time>
      </trkpt>
      <trkpt lat="49.45478" lon="1.33814">
        <ele>134</ele>
        <time>2017-03-28T16:28:19Z</time>
      </trkpt>
      <trkpt lat="49.45474" lon="1.33816">
        <ele>134</ele>
        <time>2017-03-28T16:28:19Z</time>
      </trkpt>
      <trkpt lat="49.45469" lon="1.33816">
        <ele>134</ele>
        <time>2017-03-28T16:28:19Z</time>
      </trkpt>
      <trkpt lat="49.45464" lon="1.33818">
        <ele>134</ele>
        <time>2017-03-28T16:28:34Z</time>
      </trkpt>
      <trkpt lat="49.4546" lon="1.33819">
        <ele>134</ele>
        <time>2017-03-28T16:28:34Z</time>
      </trkpt>
      <trkpt lat="49.45454" lon="1.33819">
        <ele>138</ele>
        <time>2017-03-28T16:28:34Z</time>
      </trkpt>
      <trkpt lat="49.45452" lon="1.3382">
        <ele>138</ele>
        <time>2017-03-28T16:28:34Z</time>
      </trkpt>
      <trkpt lat="49.45447" lon="1.3382">
        <ele>138</ele>
        <time>2017-03-28T16:28:50Z</time>
      </trkpt>
      <trkpt lat="49.45442" lon="1.33822">
        <ele>138</ele>
        <time>2017-03-28T16:28:50Z</time>
      </trkpt>
      <trkpt lat="49.45437" lon="1.33822">
        <ele>138</ele>
        <time>2017-03-28T16:28:50Z</time>
      </trkpt>
      <trkpt lat="49.45433" lon="1.33825">
        <ele>138</ele>
        <time>2017-03-28T16:28:50Z</time>
      </trkpt>
      <trkpt lat="49.45429" lon="1.33827">
        <ele>138</ele>
        <time>2017-03-28T16:29:06Z</time>
      </trkpt>
      <trkpt lat="49.45427" lon="1.33827">
        <ele>138</ele>
        <time>2017-03-28T16:29:06Z</time>
      </trkpt>
      <trkpt lat="49.45423" lon="1.33827">
        <ele>138</ele>
        <time>2017-03-28T16:29:06Z</time>
      </trkpt>
      <trkpt lat="49.45419" lon="1.33829">
        <ele>138</ele>
        <time>2017-03-28T16:29:06Z</time>
      </trkpt>
      <trkpt lat="49.45415" lon="1.33828">
        <ele>138</ele>
        <time>2017-03-28T16:29:22Z</time>
      </trkpt>
      <trkpt lat="49.45411" lon="1.3383">
        <ele>138</ele>
        <time>2017-03-28T16:29:22Z</time>
      </trkpt>
      <trkpt lat="49.45407" lon="1.3383">
        <ele>138</ele>
        <time>2017-03-28T16:29:22Z</time>
      </trkpt>
      <trkpt lat="49.45402" lon="1.33831">
        <ele>138</ele>
        <time>2017-03-28T16:29:22Z</time>
      </trkpt>
      <trkpt lat="49.45398" lon="1.33834">
        <ele>138</ele>
        <time>2017-03-28T16:29:38Z</time>
      </trkpt>
      <trkpt lat="49.45394" lon="1.33835">
        <ele>138</ele>
        <time>2017-03-28T16:29:38Z</time>
      </trkpt>
      <trkpt lat="49.45389" lon="1.33836">
        <ele>138</ele>
        <time>2017-03-28T16:29:38Z</time>
      </trkpt>
      <trkpt lat="49.45385" lon="1.33835">
        <ele>138</ele>
        <time>2017-03-28T16:29:38Z</time>
      </trkpt>
      <trkpt lat="49.4538" lon="1.33834">
        <ele>138</ele>
        <time>2017-03-28T16:29:56Z</time>
      </trkpt>
      <trkpt lat="49.45376" lon="1.33835">
        <ele>138</ele>
        <time>2017-03-28T16:29:56Z</time>
      </trkpt>
      <trkpt lat="49.45371" lon="1.33836">
        <ele>143</ele>
        <time>2017-03-28T16:29:56Z</time>
      </trkpt>
      <trkpt lat="49.45365" lon="1.33838">
        <ele>143</ele>
        <time>2017-03-28T16:29:56Z</time>
      </trkpt>
      <trkpt lat="49.4536" lon="1.33839">
        <ele>143</ele>
        <time>2017-03-28T16:30:10Z</time>
      </trkpt>
      <trkpt lat="49.45355" lon="1.3384">
        <ele>143</ele>
        <time>2017-03-28T16:30:10Z</time>
      </trkpt>
      <trkpt lat="49.45352" lon="1.3384">
        <ele>143</ele>
        <time>2017-03-28T16:30:10Z</time>
      </trkpt>
      <trkpt lat="49.45349" lon="1.33841">
        <ele>143</ele>
        <time>2017-03-28T16:30:10Z</time>
      </trkpt>
      <trkpt lat="49.45344" lon="1.33842">
        <ele>143</ele>
        <time>2017-03-28T16:30:26Z</time>
      </trkpt>
      <trkpt lat="49.45339" lon="1.33843">
        <ele>143</ele>
        <time>2017-03-28T16:30:26Z</time>
      </trkpt>
      <trkpt lat="49.45335" lon="1.33845">
        <ele>143</ele>
        <time>2017-03-28T16:30:26Z</time>
      </trkpt>
      <trkpt lat="49.45331" lon="1.33846">
        <ele>143</ele>
        <time>2017-03-28T16:30:26Z</time>
      </trkpt>
      <trkpt lat="49.45326" lon="1.33846">
        <ele>143</ele>
        <time>2017-03-28T16:30:42Z</time>
      </trkpt>
      <trkpt lat="49.45323" lon="1.33847">
        <ele>143</ele>
        <time>2017-03-28T16:30:42Z</time>
      </trkpt>
      <trkpt lat="49.45318" lon="1.33847">
        <ele>143</ele>
        <time>2017-03-28T16:30:42Z</time>
      </trkpt>
      <trkpt lat="49.45313" lon="1.33848">
        <ele>143</ele>
        <time>2017-03-28T16:30:42Z</time>
      </trkpt>
      <trkpt lat="49.4531" lon="1.33851">
        <ele>143</ele>
        <time>2017-03-28T16:30:58Z</time>
      </trkpt>
      <trkpt lat="49.45306" lon="1.33854">
        <ele>143</ele>
        <time>2017-03-28T16:30:58Z</time>
      </trkpt>
      <trkpt lat="49.45301" lon="1.33856">
        <ele>143</ele>
        <time>2017-03-28T16:30:58Z</time>
      </trkpt>
      <trkpt lat="49.45297" lon="1.33857">
        <ele>143</ele>
        <time>2017-03-28T16:30:58Z</time>
      </trkpt>
      <trkpt lat="49.45293" lon="1.33859">
        <ele>143</ele>
        <time>2017-03-28T16:31:14Z</time>
      </trkpt>
      <trkpt lat="49.45288" lon="1.33859">
        <ele>145</ele>
        <time>2017-03-28T16:31:14Z</time>
      </trkpt>
      <trkpt lat="49.45283" lon="1.3386">
        <ele>145</ele>
        <time>2017-03-28T16:31:14Z</time>
      </trkpt>
      <trkpt lat="49.45278" lon="1.33862">
        <ele>145</ele>
        <time>2017-03-28T16:31:14Z</time>
      </trkpt>
      <trkpt lat="49.45274" lon="1.33863">
        <ele>145</ele>
        <time>2017-03-28T16:31:30Z</time>
      </trkpt>
      <trkpt lat="49.45269" lon="1.33865">
        <ele>145</ele>
        <time>2017-03-28T16:31:30Z</time>
      </trkpt>
      <trkpt lat="49.45263" lon="1.33865">
        <ele>145</ele>
        <time>2017-03-28T16:31:30Z</time>
      </trkpt>
      <trkpt lat="49.45258" lon="1.33866">
        <ele>145</ele>
        <time>2017-03-28T16:31:30Z</time>
      </trkpt>
      <trkpt lat="49.45253" lon="1.33866">
        <ele>145</ele>
        <time>2017-03-28T16:31:46Z</time>
      </trkpt>
      <trkpt lat="49.45247" lon="1.33867">
        <ele>145</ele>
        <time>2017-03-28T16:31:46Z</time>
      </trkpt>
      <trkpt lat="49.45244" lon="1.33867">
        <ele>145</ele>
        <time>2017-03-28T16:31:46Z</time>
      </trkpt>
      <trkpt lat="49.45239" lon="1.33869">
        <ele>145</ele>
        <time>2017-03-28T16:31:46Z</time>
      </trkpt>
      <trkpt lat="49.45233" lon="1.33869">
        <ele>145</ele>
        <time>2017-03-28T16:32:03Z</time>
      </trkpt>
      <trkpt lat="49.45227" lon="1.33869">
        <ele>145</ele>
        <time>2017-03-28T16:32:03Z</time>
      </trkpt>
      <trkpt lat="49.45222" lon="1.3387">
        <ele>145</ele>
        <time>2017-03-28T16:32:03Z</time>
      </trkpt>
      <trkpt lat="49.45214" lon="1.33872">
        <ele>145</ele>
        <time>2017-03-28T16:32:03Z</time>
      </trkpt>
      <trkpt lat="49.4521" lon="1.33872">
        <ele>145</ele>
        <time>2017-03-28T16:32:19Z</time>
      </trkpt>
      <trkpt lat="49.45204" lon="1.33875">
        <ele>144</ele>
        <time>2017-03-28T16:32:19Z</time>
      </trkpt>
      <trkpt lat="49.452" lon="1.33875">
        <ele>144</ele>
        <time>2017-03-28T16:32:19Z</time>
      </trkpt>
      <trkpt lat="49.45195" lon="1.33876">
        <ele>145</ele>
        <time>2017-03-28T16:32:19Z</time>
      </trkpt>
      <trkpt lat="49.45191" lon="1.33877">
        <ele>145</ele>
        <time>2017-03-28T16:32:35Z</time>
      </trkpt>
      <trkpt lat="49.45186" lon="1.33878">
        <ele>145</ele>
        <time>2017-03-28T16:32:35Z</time>
      </trkpt>
      <trkpt lat="49.45181" lon="1.3388">
        <ele>145</ele>
        <time>2017-03-28T16:32:35Z</time>
      </trkpt>
      <trkpt lat="49.45177" lon="1.33881">
        <ele>145</ele>
        <time>2017-03-28T16:32:35Z</time>
      </trkpt>
      <trkpt lat="49.45172" lon="1.33881">
        <ele>145</ele>
        <time>2017-03-28T16:32:50Z</time>
      </trkpt>
      <trkpt lat="49.45167" lon="1.33883">
        <ele>145</ele>
        <time>2017-03-28T16:32:50Z</time>
      </trkpt>
      <trkpt lat="49.45162" lon="1.33884">
        <ele>145</ele>
        <time>2017-03-28T16:32:50Z</time>
      </trkpt>
      <trkpt lat="49.45157" lon="1.33888">
        <ele>145</ele>
        <time>2017-03-28T16:32:50Z</time>
      </trkpt>
      <trkpt lat="49.4515" lon="1.3389">
        <ele>145</ele>
        <time>2017-03-28T16:33:07Z</time>
      </trkpt>
      <trkpt lat="49.45146" lon="1.3389">
        <ele>145</ele>
        <time>2017-03-28T16:33:07Z</time>
      </trkpt>
      <trkpt lat="49.45142" lon="1.33893">
        <ele>145</ele>
        <time>2017-03-28T16:33:07Z</time>
      </trkpt>
      <trkpt lat="49.45139" lon="1.33896">
        <ele>145</ele>
        <time>2017-03-28T16:33:07Z</time>
      </trkpt>
      <trkpt lat="49.45134" lon="1.339">
        <ele>145</ele>
        <time>2017-03-28T16:33:23Z</time>
      </trkpt>
      <trkpt lat="49.45129" lon="1.33903">
        <ele>145</ele>
        <time>2017-03-28T16:33:23Z</time>
      </trkpt>
      <trkpt lat="49.45125" lon="1.33904">
        <ele>145</ele>
        <time>2017-03-28T16:33:23Z</time>
      </trkpt>
      <trkpt lat="49.45119" lon="1.33908">
        <ele>143</ele>
        <time>2017-03-28T16:33:23Z</time>
      </trkpt>
      <trkpt lat="49.45115" lon="1.33911">
        <ele>143</ele>
        <time>2017-03-28T16:33:38Z</time>
      </trkpt>
      <trkpt lat="49.4511" lon="1.33914">
        <ele>143</ele>
        <time>2017-03-28T16:33:38Z</time>
      </trkpt>
      <trkpt lat="49.45106" lon="1.3392">
        <ele>143</ele>
        <time>2017-03-28T16:33:38Z</time>
      </trkpt>
      <trkpt lat="49.45103" lon="1.3392">
        <ele>143</ele>
        <time>2017-03-28T16:33:38Z</time>
      </trkpt>
      <trkpt lat="49.45104" lon="1.33921">
        <ele>143</ele>
        <time>2017-03-28T16:33:55Z</time>
      </trkpt>
      <trkpt lat="49.45104" lon="1.33921">
        <ele>143</ele>
        <time>2017-03-28T16:33:55Z</time>
      </trkpt>
      <trkpt lat="49.45099" lon="1.33922">
        <ele>143</ele>
        <time>2017-03-28T16:33:55Z</time>
      </trkpt>
      <trkpt lat="49.45094" lon="1.33923">
        <ele>143</ele>
        <time>2017-03-28T16:33:55Z</time>
      </trkpt>
      <trkpt lat="49.4509" lon="1.33928">
        <ele>143</ele>
        <time>2017-03-28T16:34:12Z</time>
      </trkpt>
      <trkpt lat="49.45087" lon="1.33932">
        <ele>143</ele>
        <time>2017-03-28T16:34:12Z</time>
      </trkpt>
      <trkpt lat="49.45082" lon="1.33936">
        <ele>143</ele>
        <time>2017-03-28T16:34:12Z</time>
      </trkpt>
      <trkpt lat="49.45081" lon="1.3394">
        <ele>143</ele>
        <time>2017-03-28T16:34:12Z</time>
      </trkpt>
      <trkpt lat="49.45077" lon="1.33943">
        <ele>143</ele>
        <time>2017-03-28T16:35:46Z</time>
      </trkpt>
      <trkpt lat="49.45076" lon="1.33944">
        <ele>143</ele>
        <time>2017-03-28T16:35:46Z</time>
      </trkpt>
      <trkpt lat="49.45076" lon="1.33944">
        <ele>143</ele>
        <time>2017-03-28T16:35:46Z</time>
      </trkpt>
      <trkpt lat="49.45076" lon="1.33944">
        <ele>143</ele>
        <time>2017-03-28T16:35:46Z</time>
      </trkpt>
      <trkpt lat="49.45071" lon="1.33943">
        <ele>143</ele>
        <time>2017-03-28T16:35:46Z</time>
      </trkpt>
      <trkpt lat="49.45067" lon="1.33947">
        <ele>143</ele>
        <time>2017-03-28T16:36:02Z</time>
      </trkpt>
      <trkpt lat="49.45063" lon="1.33951">
        <ele>143</ele>
        <time>2017-03-28T16:36:02Z</time>
      </trkpt>
      <trkpt lat="49.45059" lon="1.33956">
        <ele>143</ele>
        <time>2017-03-28T16:36:02Z</time>
      </trkpt>
      <trkpt lat="49.45055" lon="1.3396">
        <ele>146</ele>
        <time>2017-03-28T16:36:02Z</time>
      </trkpt>
      <trkpt lat="49.45051" lon="1.33964">
        <ele>146</ele>
        <time>2017-03-28T16:36:18Z</time>
      </trkpt>
      <trkpt lat="49.45047" lon="1.33968">
        <ele>146</ele>
        <time>2017-03-28T16:36:18Z</time>
      </trkpt>
      <trkpt lat="49.45042" lon="1.33972">
        <ele>146</ele>
        <time>2017-03-28T16:36:18Z</time>
      </trkpt>
      <trkpt lat="49.45038" lon="1.33977">
        <ele>141</ele>
        <time>2017-03-28T16:36:18Z</time>
      </trkpt>
      <trkpt lat="49.45033" lon="1.3398">
        <ele>141</ele>
        <time>2017-03-28T16:36:36Z</time>
      </trkpt>
      <trkpt lat="49.45027" lon="1.33984">
        <ele>141</ele>
        <time>2017-03-28T16:36:36Z</time>
      </trkpt>
      <trkpt lat="49.45024" lon="1.33987">
        <ele>141</ele>
        <time>2017-03-28T16:36:36Z</time>
      </trkpt>
      <trkpt lat="49.45018" lon="1.33993">
        <ele>141</ele>
        <time>2017-03-28T16:36:36Z</time>
      </trkpt>
      <trkpt lat="49.45015" lon="1.33996">
        <ele>141</ele>
        <time>2017-03-28T16:36:50Z</time>
      </trkpt>
      <trkpt lat="49.45011" lon="1.34001">
        <ele>141</ele>
        <time>2017-03-28T16:36:50Z</time>
      </trkpt>
      <trkpt lat="49.45007" lon="1.34003">
        <ele>141</ele>
        <time>2017-03-28T16:36:50Z</time>
      </trkpt>
      <trkpt lat="49.45003" lon="1.34005">
        <ele>141</ele>
        <time>2017-03-28T16:36:50Z</time>
      </trkpt>
      <trkpt lat="49.44999" lon="1.34008">
        <ele>141</ele>
        <time>2017-03-28T16:37:07Z</time>
      </trkpt>
      <trkpt lat="49.44995" lon="1.34006">
        <ele>141</ele>
        <time>2017-03-28T16:37:07Z</time>
      </trkpt>
      <trkpt lat="49.44994" lon="1.33999">
        <ele>141</ele>
        <time>2017-03-28T16:37:07Z</time>
      </trkpt>
      <trkpt lat="49.44993" lon="1.33992">
        <ele>141</ele>
        <time>2017-03-28T16:37:07Z</time>
      </trkpt>
      <trkpt lat="49.44992" lon="1.33987">
        <ele>141</ele>
        <time>2017-03-28T16:37:22Z</time>
      </trkpt>
      <trkpt lat="49.44991" lon="1.33981">
        <ele>141</ele>
        <time>2017-03-28T16:37:22Z</time>
      </trkpt>
      <trkpt lat="49.44989" lon="1.33973">
        <ele>141</ele>
        <time>2017-03-28T16:37:22Z</time>
      </trkpt>
      <trkpt lat="49.44988" lon="1.33967">
        <ele>141</ele>
        <time>2017-03-28T16:37:22Z</time>
      </trkpt>
      <trkpt lat="49.44986" lon="1.33961">
        <ele>141</ele>
        <time>2017-03-28T16:37:38Z</time>
      </trkpt>
      <trkpt lat="49.44985" lon="1.33953">
        <ele>140</ele>
        <time>2017-03-28T16:37:38Z</time>
      </trkpt>
      <trkpt lat="49.44984" lon="1.33946">
        <ele>140</ele>
        <time>2017-03-28T16:37:38Z</time>
      </trkpt>
      <trkpt lat="49.44981" lon="1.33939">
        <ele>140</ele>
        <time>2017-03-28T16:37:38Z</time>
      </trkpt>
      <trkpt lat="49.44979" lon="1.33931">
        <ele>140</ele>
        <time>2017-03-28T16:37:55Z</time>
      </trkpt>
      <trkpt lat="49.44977" lon="1.33923">
        <ele>140</ele>
        <time>2017-03-28T16:37:55Z</time>
      </trkpt>
      <trkpt lat="49.44975" lon="1.33915">
        <ele>140</ele>
        <time>2017-03-28T16:37:55Z</time>
      </trkpt>
      <trkpt lat="49.44973" lon="1.33909">
        <ele>140</ele>
        <time>2017-03-28T16:37:55Z</time>
      </trkpt>
      <trkpt lat="49.44972" lon="1.33899">
        <ele>140</ele>
        <time>2017-03-28T16:38:11Z</time>
      </trkpt>
      <trkpt lat="49.44971" lon="1.33893">
        <ele>140</ele>
        <time>2017-03-28T16:38:11Z</time>
      </trkpt>
      <trkpt lat="49.4497" lon="1.33885">
        <ele>140</ele>
        <time>2017-03-28T16:38:11Z</time>
      </trkpt>
      <trkpt lat="49.44968" lon="1.3388">
        <ele>140</ele>
        <time>2017-03-28T16:38:11Z</time>
      </trkpt>
      <trkpt lat="49.44966" lon="1.3387">
        <ele>142</ele>
        <time>2017-03-28T16:38:27Z</time>
      </trkpt>
      <trkpt lat="49.44967" lon="1.33864">
        <ele>142</ele>
        <time>2017-03-28T16:38:27Z</time>
      </trkpt>
      <trkpt lat="49.44966" lon="1.33854">
        <ele>142</ele>
        <time>2017-03-28T16:38:27Z</time>
      </trkpt>
      <trkpt lat="49.44964" lon="1.33846">
        <ele>142</ele>
        <time>2017-03-28T16:38:27Z</time>
      </trkpt>
      <trkpt lat="49.44963" lon="1.33839">
        <ele>142</ele>
        <time>2017-03-28T16:38:44Z</time>
      </trkpt>
      <trkpt lat="49.44961" lon="1.33831">
        <ele>142</ele>
        <time>2017-03-28T16:38:44Z</time>
      </trkpt>
      <trkpt lat="49.4496" lon="1.33822">
        <ele>142</ele>
        <time>2017-03-28T16:38:44Z</time>
      </trkpt>
      <trkpt lat="49.44957" lon="1.33813">
        <ele>144</ele>
        <time>2017-03-28T16:38:44Z</time>
      </trkpt>
      <trkpt lat="49.44956" lon="1.33808">
        <ele>144</ele>
        <time>2017-03-28T16:38:59Z</time>
      </trkpt>
      <trkpt lat="49.44955" lon="1.338">
        <ele>144</ele>
        <time>2017-03-28T16:38:59Z</time>
      </trkpt>
      <trkpt lat="49.44954" lon="1.33795">
        <ele>144</ele>
        <time>2017-03-28T16:38:59Z</time>
      </trkpt>
      <trkpt lat="49.44952" lon="1.33786">
        <ele>144</ele>
        <time>2017-03-28T16:39:00Z</time>
      </trkpt>
      <trkpt lat="49.44951" lon="1.33781">
        <ele>144</ele>
        <time>2017-03-28T16:39:15Z</time>
      </trkpt>
      <trkpt lat="49.4495" lon="1.33774">
        <ele>144</ele>
        <time>2017-03-28T16:39:15Z</time>
      </trkpt>
      <trkpt lat="49.44949" lon="1.33766">
        <ele>144</ele>
        <time>2017-03-28T16:39:15Z</time>
      </trkpt>
      <trkpt lat="49.44947" lon="1.33758">
        <ele>144</ele>
        <time>2017-03-28T16:39:15Z</time>
      </trkpt>
      <trkpt lat="49.44946" lon="1.33747">
        <ele>144</ele>
        <time>2017-03-28T16:39:30Z</time>
      </trkpt>
      <trkpt lat="49.44945" lon="1.33743">
        <ele>144</ele>
        <time>2017-03-28T16:39:30Z</time>
      </trkpt>
      <trkpt lat="49.44944" lon="1.33735">
        <ele>144</ele>
        <time>2017-03-28T16:39:30Z</time>
      </trkpt>
      <trkpt lat="49.44943" lon="1.33726">
        <ele>144</ele>
        <time>2017-03-28T16:39:30Z</time>
      </trkpt>
      <trkpt lat="49.44942" lon="1.33717">
        <ele>144</ele>
        <time>2017-03-28T16:39:48Z</time>
      </trkpt>
      <trkpt lat="49.44941" lon="1.3371">
        <ele>144</ele>
        <time>2017-03-28T16:39:48Z</time>
      </trkpt>
      <trkpt lat="49.4494" lon="1.33702">
        <ele>144</ele>
        <time>2017-03-28T16:39:48Z</time>
      </trkpt>
      <trkpt lat="49.44938" lon="1.33694">
        <ele>144</ele>
        <time>2017-03-28T16:39:48Z</time>
      </trkpt>
      <trkpt lat="49.44938" lon="1.33688">
        <ele>144</ele>
        <time>2017-03-28T16:40:03Z</time>
      </trkpt>
      <trkpt lat="49.44936" lon="1.33678">
        <ele>144</ele>
        <time>2017-03-28T16:40:03Z</time>
      </trkpt>
      <trkpt lat="49.44935" lon="1.33669">
        <ele>144</ele>
        <time>2017-03-28T16:40:03Z</time>
      </trkpt>
      <trkpt lat="49.44935" lon="1.33662">
        <ele>144</ele>
        <time>2017-03-28T16:40:03Z</time>
      </trkpt>
      <trkpt lat="49.44931" lon="1.33648">
        <ele>144</ele>
        <time>2017-03-28T16:40:31Z</time>
      </trkpt>
      <trkpt lat="49.44931" lon="1.33647">
        <ele>144</ele>
        <time>2017-03-28T16:40:31Z</time>
      </trkpt>
      <trkpt lat="49.44931" lon="1.33647">
        <ele>144</ele>
        <time>2017-03-28T16:40:31Z</time>
      </trkpt>
      <trkpt lat="49.4493" lon="1.33646">
        <ele>144</ele>
        <time>2017-03-28T16:40:31Z</time>
      </trkpt>
      <trkpt lat="49.44929" lon="1.33639">
        <ele>144</ele>
        <time>2017-03-28T16:40:31Z</time>
      </trkpt>
      <trkpt lat="49.44927" lon="1.33629">
        <ele>144</ele>
        <time>2017-03-28T16:40:47Z</time>
      </trkpt>
      <trkpt lat="49.44926" lon="1.33623">
        <ele>145</ele>
        <time>2017-03-28T16:40:47Z</time>
      </trkpt>
      <trkpt lat="49.44926" lon="1.33613">
        <ele>145</ele>
        <time>2017-03-28T16:40:47Z</time>
      </trkpt>
      <trkpt lat="49.44925" lon="1.33607">
        <ele>145</ele>
        <time>2017-03-28T16:40:47Z</time>
      </trkpt>
      <trkpt lat="49.44923" lon="1.33594">
        <ele>145</ele>
        <time>2017-03-28T16:41:02Z</time>
      </trkpt>
      <trkpt lat="49.44922" lon="1.33589">
        <ele>145</ele>
        <time>2017-03-28T16:41:02Z</time>
      </trkpt>
      <trkpt lat="49.4492" lon="1.33582">
        <ele>145</ele>
        <time>2017-03-28T16:41:02Z</time>
      </trkpt>
      <trkpt lat="49.44919" lon="1.33574">
        <ele>145</ele>
        <time>2017-03-28T16:41:02Z</time>
      </trkpt>
      <trkpt lat="49.44918" lon="1.33567">
        <ele>145</ele>
        <time>2017-03-28T16:41:18Z</time>
      </trkpt>
      <trkpt lat="49.44917" lon="1.33557">
        <ele>145</ele>
        <time>2017-03-28T16:41:18Z</time>
      </trkpt>
      <trkpt lat="49.44917" lon="1.33551">
        <ele>145</ele>
        <time>2017-03-28T16:41:18Z</time>
      </trkpt>
      <trkpt lat="49.44916" lon="1.33542">
        <ele>145</ele>
        <time>2017-03-28T16:41:18Z</time>
      </trkpt>
      <trkpt lat="49.44915" lon="1.33534">
        <ele>145</ele>
        <time>2017-03-28T16:41:34Z</time>
      </trkpt>
      <trkpt lat="49.44914" lon="1.33525">
        <ele>145</ele>
        <time>2017-03-28T16:41:34Z</time>
      </trkpt>
      <trkpt lat="49.44913" lon="1.33518">
        <ele>145</ele>
        <time>2017-03-28T16:41:34Z</time>
      </trkpt>
      <trkpt lat="49.44913" lon="1.33512">
        <ele>145</ele>
        <time>2017-03-28T16:41:34Z</time>
      </trkpt>
      <trkpt lat="49.44913" lon="1.33499">
        <ele>145</ele>
        <time>2017-03-28T16:41:50Z</time>
      </trkpt>
      <trkpt lat="49.44913" lon="1.33491">
        <ele>145</ele>
        <time>2017-03-28T16:41:50Z</time>
      </trkpt>
      <trkpt lat="49.44912" lon="1.33482">
        <ele>145</ele>
        <time>2017-03-28T16:41:50Z</time>
      </trkpt>
      <trkpt lat="49.44912" lon="1.33473">
        <ele>145</ele>
        <time>2017-03-28T16:41:50Z</time>
      </trkpt>
      <trkpt lat="49.44911" lon="1.33465">
        <ele>145</ele>
        <time>2017-03-28T16:42:06Z</time>
      </trkpt>
      <trkpt lat="49.44911" lon="1.33458">
        <ele>146</ele>
        <time>2017-03-28T16:42:06Z</time>
      </trkpt>
      <trkpt lat="49.44911" lon="1.33447">
        <ele>146</ele>
        <time>2017-03-28T16:42:06Z</time>
      </trkpt>
      <trkpt lat="49.44911" lon="1.33441">
        <ele>146</ele>
        <time>2017-03-28T16:42:06Z</time>
      </trkpt>
      <trkpt lat="49.44912" lon="1.3343">
        <ele>146</ele>
        <time>2017-03-28T16:42:23Z</time>
      </trkpt>
      <trkpt lat="49.44912" lon="1.33423">
        <ele>146</ele>
        <time>2017-03-28T16:42:23Z</time>
      </trkpt>
      <trkpt lat="49.44912" lon="1.33414">
        <ele>146</ele>
        <time>2017-03-28T16:42:23Z</time>
      </trkpt>
      <trkpt lat="49.44912" lon="1.33407">
        <ele>146</ele>
        <time>2017-03-28T16:42:23Z</time>
      </trkpt>
      <trkpt lat="49.44909" lon="1.33396">
        <ele>146</ele>
        <time>2017-03-28T16:42:46Z</time>
      </trkpt>
      <trkpt lat="49.44909" lon="1.33393">
        <ele>146</ele>
        <time>2017-03-28T16:42:46Z</time>
      </trkpt>
      <trkpt lat="49.44909" lon="1.33393">
        <ele>146</ele>
        <time>2017-03-28T16:42:46Z</time>
      </trkpt>
      <trkpt lat="49.44909" lon="1.33389">
        <ele>146</ele>
        <time>2017-03-28T16:42:46Z</time>
      </trkpt>
      <trkpt lat="49.44909" lon="1.33382">
        <ele>146</ele>
        <time>2017-03-28T16:42:46Z</time>
      </trkpt>
      <trkpt lat="49.44909" lon="1.33375">
        <ele>146</ele>
        <time>2017-03-28T16:43:03Z</time>
      </trkpt>
      <trkpt lat="49.44908" lon="1.33369">
        <ele>146</ele>
        <time>2017-03-28T16:43:03Z</time>
      </trkpt>
      <trkpt lat="49.44908" lon="1.33359">
        <ele>146</ele>
        <time>2017-03-28T16:43:03Z</time>
      </trkpt>
      <trkpt lat="49.44908" lon="1.33353">
        <ele>146</ele>
        <time>2017-03-28T16:43:03Z</time>
      </trkpt>
      <trkpt lat="49.44907" lon="1.33347">
        <ele>146</ele>
        <time>2017-03-28T16:43:18Z</time>
      </trkpt>
      <trkpt lat="49.44906" lon="1.33342">
        <ele>146</ele>
        <time>2017-03-28T16:43:18Z</time>
      </trkpt>
      <trkpt lat="49.44907" lon="1.33331">
        <ele>146</ele>
        <time>2017-03-28T16:43:18Z</time>
      </trkpt>
      <trkpt lat="49.44907" lon="1.33326">
        <ele>146</ele>
        <time>2017-03-28T16:43:18Z</time>
      </trkpt>
      <trkpt lat="49.44906" lon="1.3332">
        <ele>146</ele>
        <time>2017-03-28T16:43:34Z</time>
      </trkpt>
      <trkpt lat="49.44905" lon="1.33311">
        <ele>146</ele>
        <time>2017-03-28T16:43:34Z</time>
      </trkpt>
      <trkpt lat="49.44904" lon="1.33304">
        <ele>146</ele>
        <time>2017-03-28T16:43:34Z</time>
      </trkpt>
      <trkpt lat="49.44904" lon="1.33298">
        <ele>146</ele>
        <time>2017-03-28T16:43:34Z</time>
      </trkpt>
      <trkpt lat="49.44904" lon="1.33291">
        <ele>146</ele>
        <time>2017-03-28T16:43:51Z</time>
      </trkpt>
      <trkpt lat="49.44905" lon="1.33283">
        <ele>146</ele>
        <time>2017-03-28T16:43:51Z</time>
      </trkpt>
      <trkpt lat="49.44905" lon="1.33275">
        <ele>146</ele>
        <time>2017-03-28T16:43:51Z</time>
      </trkpt>
      <trkpt lat="49.44905" lon="1.33266">
        <ele>146</ele>
        <time>2017-03-28T16:43:51Z</time>
      </trkpt>
      <trkpt lat="49.44905" lon="1.33256">
        <ele>146</ele>
        <time>2017-03-28T16:44:08Z</time>
      </trkpt>
      <trkpt lat="49.44906" lon="1.3325">
        <ele>146</ele>
        <time>2017-03-28T16:44:08Z</time>
      </trkpt>
      <trkpt lat="49.44906" lon="1.3324">
        <ele>146</ele>
        <time>2017-03-28T16:44:08Z</time>
      </trkpt>
      <trkpt lat="49.44906" lon="1.33233">
        <ele>146</ele>
        <time>2017-03-28T16:44:08Z</time>
      </trkpt>
      <trkpt lat="49.44906" lon="1.33228">
        <ele>146</ele>
        <time>2017-03-28T16:44:40Z</time>
      </trkpt>
      <trkpt lat="49.44907" lon="1.33221">
        <ele>146</ele>
        <time>2017-03-28T16:44:40Z</time>
      </trkpt>
      <trkpt lat="49.44906" lon="1.33212">
        <ele>146</ele>
        <time>2017-03-28T16:44:40Z</time>
      </trkpt>
      <trkpt lat="49.44907" lon="1.33203">
        <ele>147</ele>
        <time>2017-03-28T16:44:40Z</time>
      </trkpt>
      <trkpt lat="49.44907" lon="1.33199">
        <ele>147</ele>
        <time>2017-03-28T16:44:40Z</time>
      </trkpt>
      <trkpt lat="49.44908" lon="1.33194">
        <ele>147</ele>
        <time>2017-03-28T16:44:55Z</time>
      </trkpt>
      <trkpt lat="49.44908" lon="1.33187">
        <ele>147</ele>
        <time>2017-03-28T16:44:55Z</time>
      </trkpt>
      <trkpt lat="49.44909" lon="1.33182">
        <ele>147</ele>
        <time>2017-03-28T16:44:55Z</time>
      </trkpt>
      <trkpt lat="49.4491" lon="1.33171">
        <ele>147</ele>
        <time>2017-03-28T16:44:56Z</time>
      </trkpt>
      <trkpt lat="49.44914" lon="1.33169">
        <ele>147</ele>
        <time>2017-03-28T16:45:22Z</time>
      </trkpt>
      <trkpt lat="49.44915" lon="1.33164">
        <ele>147</ele>
        <time>2017-03-28T16:45:22Z</time>
      </trkpt>
      <trkpt lat="49.44916" lon="1.33156">
        <ele>147</ele>
        <time>2017-03-28T16:45:22Z</time>
      </trkpt>
      <trkpt lat="49.44917" lon="1.33148">
        <ele>147</ele>
        <time>2017-03-28T16:45:22Z</time>
      </trkpt>
      <trkpt lat="49.44917" lon="1.33141">
        <ele>147</ele>
        <time>2017-03-28T16:45:22Z</time>
      </trkpt>
      <trkpt lat="49.44918" lon="1.33135">
        <ele>147</ele>
        <time>2017-03-28T16:45:38Z</time>
      </trkpt>
      <trkpt lat="49.44918" lon="1.33128">
        <ele>147</ele>
        <time>2017-03-28T16:45:38Z</time>
      </trkpt>
      <trkpt lat="49.44917" lon="1.33122">
        <ele>147</ele>
        <time>2017-03-28T16:45:38Z</time>
      </trkpt>
      <trkpt lat="49.44917" lon="1.33116">
        <ele>147</ele>
        <time>2017-03-28T16:45:38Z</time>
      </trkpt>
      <trkpt lat="49.44918" lon="1.33107">
        <ele>147</ele>
        <time>2017-03-28T16:45:54Z</time>
      </trkpt>
      <trkpt lat="49.44919" lon="1.33097">
        <ele>147</ele>
        <time>2017-03-28T16:45:54Z</time>
      </trkpt>
      <trkpt lat="49.44919" lon="1.33088">
        <ele>147</ele>
        <time>2017-03-28T16:45:54Z</time>
      </trkpt>
      <trkpt lat="49.44918" lon="1.33079">
        <ele>147</ele>
        <time>2017-03-28T16:45:54Z</time>
      </trkpt>
      <trkpt lat="49.44917" lon="1.33071">
        <ele>147</ele>
        <time>2017-03-28T16:46:10Z</time>
      </trkpt>
      <trkpt lat="49.44918" lon="1.33063">
        <ele>147</ele>
        <time>2017-03-28T16:46:10Z</time>
      </trkpt>
      <trkpt lat="49.44918" lon="1.33056">
        <ele>147</ele>
        <time>2017-03-28T16:46:10Z</time>
      </trkpt>
      <trkpt lat="49.44919" lon="1.33047">
        <ele>147</ele>
        <time>2017-03-28T16:46:10Z</time>
      </trkpt>
      <trkpt lat="49.44919" lon="1.33039">
        <ele>148</ele>
        <time>2017-03-28T16:46:28Z</time>
      </trkpt>
      <trkpt lat="49.44919" lon="1.33033">
        <ele>148</ele>
        <time>2017-03-28T16:46:28Z</time>
      </trkpt>
      <trkpt lat="49.4492" lon="1.33024">
        <ele>148</ele>
        <time>2017-03-28T16:46:28Z</time>
      </trkpt>
      <trkpt lat="49.4492" lon="1.33016">
        <ele>148</ele>
        <time>2017-03-28T16:46:28Z</time>
      </trkpt>
      <trkpt lat="49.4492" lon="1.33011">
        <ele>148</ele>
        <time>2017-03-28T16:46:42Z</time>
      </trkpt>
      <trkpt lat="49.44919" lon="1.32999">
        <ele>148</ele>
        <time>2017-03-28T16:46:42Z</time>
      </trkpt>
      <trkpt lat="49.44918" lon="1.32994">
        <ele>148</ele>
        <time>2017-03-28T16:46:42Z</time>
      </trkpt>
      <trkpt lat="49.44917" lon="1.32985">
        <ele>148</ele>
        <time>2017-03-28T16:46:42Z</time>
      </trkpt>
      <trkpt lat="49.44916" lon="1.32974">
        <ele>148</ele>
        <time>2017-03-28T16:46:59Z</time>
      </trkpt>
      <trkpt lat="49.44916" lon="1.32969">
        <ele>148</ele>
        <time>2017-03-28T16:46:59Z</time>
      </trkpt>
      <trkpt lat="49.44917" lon="1.32963">
        <ele>148</ele>
        <time>2017-03-28T16:46:59Z</time>
      </trkpt>
      <trkpt lat="49.44919" lon="1.32955">
        <ele>148</ele>
        <time>2017-03-28T16:46:59Z</time>
      </trkpt>
      <trkpt lat="49.4492" lon="1.32947">
        <ele>148</ele>
        <time>2017-03-28T16:47:16Z</time>
      </trkpt>
      <trkpt lat="49.4492" lon="1.32941">
        <ele>148</ele>
        <time>2017-03-28T16:47:16Z</time>
      </trkpt>
      <trkpt lat="49.4492" lon="1.32932">
        <ele>148</ele>
        <time>2017-03-28T16:47:16Z</time>
      </trkpt>
      <trkpt lat="49.4492" lon="1.32924">
        <ele>148</ele>
        <time>2017-03-28T16:47:16Z</time>
      </trkpt>
      <trkpt lat="49.4492" lon="1.32916">
        <ele>148</ele>
        <time>2017-03-28T16:47:31Z</time>
      </trkpt>
      <trkpt lat="49.4492" lon="1.3291">
        <ele>148</ele>
        <time>2017-03-28T16:47:31Z</time>
      </trkpt>
      <trkpt lat="49.44921" lon="1.32901">
        <ele>148</ele>
        <time>2017-03-28T16:47:31Z</time>
      </trkpt>
      <trkpt lat="49.44921" lon="1.32894">
        <ele>148</ele>
        <time>2017-03-28T16:47:31Z</time>
      </trkpt>
      <trkpt lat="49.44921" lon="1.32889">
        <ele>148</ele>
        <time>2017-03-28T16:47:46Z</time>
      </trkpt>
      <trkpt lat="49.4492" lon="1.32882">
        <ele>148</ele>
        <time>2017-03-28T16:47:46Z</time>
      </trkpt>
      <trkpt lat="49.4492" lon="1.32876">
        <ele>148</ele>
        <time>2017-03-28T16:47:46Z</time>
      </trkpt>
      <trkpt lat="49.4492" lon="1.32868">
        <ele>147</ele>
        <time>2017-03-28T16:47:46Z</time>
      </trkpt>
      <trkpt lat="49.44921" lon="1.3286">
        <ele>147</ele>
        <time>2017-03-28T16:48:04Z</time>
      </trkpt>
      <trkpt lat="49.44922" lon="1.32849">
        <ele>147</ele>
        <time>2017-03-28T16:48:04Z</time>
      </trkpt>
      <trkpt lat="49.44922" lon="1.32843">
        <ele>147</ele>
        <time>2017-03-28T16:48:04Z</time>
      </trkpt>
      <trkpt lat="49.44923" lon="1.32833">
        <ele>147</ele>
        <time>2017-03-28T16:48:04Z</time>
      </trkpt>
      <trkpt lat="49.44924" lon="1.32829">
        <ele>147</ele>
        <time>2017-03-28T16:48:20Z</time>
      </trkpt>
      <trkpt lat="49.44924" lon="1.32821">
        <ele>147</ele>
        <time>2017-03-28T16:48:20Z</time>
      </trkpt>
      <trkpt lat="49.44923" lon="1.32812">
        <ele>147</ele>
        <time>2017-03-28T16:48:20Z</time>
      </trkpt>
      <trkpt lat="49.44923" lon="1.32805">
        <ele>147</ele>
        <time>2017-03-28T16:48:20Z</time>
      </trkpt>
      <trkpt lat="49.44923" lon="1.32799">
        <ele>147</ele>
        <time>2017-03-28T16:48:34Z</time>
      </trkpt>
      <trkpt lat="49.44924" lon="1.32791">
        <ele>145</ele>
        <time>2017-03-28T16:48:34Z</time>
      </trkpt>
      <trkpt lat="49.44925" lon="1.32784">
        <ele>145</ele>
        <time>2017-03-28T16:48:34Z</time>
      </trkpt>
      <trkpt lat="49.44926" lon="1.32777">
        <ele>145</ele>
        <time>2017-03-28T16:48:34Z</time>
      </trkpt>
      <trkpt lat="49.44926" lon="1.3277">
        <ele>145</ele>
        <time>2017-03-28T16:48:51Z</time>
      </trkpt>
      <trkpt lat="49.44927" lon="1.32762">
        <ele>145</ele>
        <time>2017-03-28T16:48:51Z</time>
      </trkpt>
      <trkpt lat="49.44927" lon="1.32752">
        <ele>145</ele>
        <time>2017-03-28T16:48:51Z</time>
      </trkpt>
      <trkpt lat="49.44929" lon="1.32746">
        <ele>145</ele>
        <time>2017-03-28T16:48:51Z</time>
      </trkpt>
      <trkpt lat="49.4493" lon="1.32741">
        <ele>145</ele>
        <time>2017-03-28T16:49:06Z</time>
      </trkpt>
      <trkpt lat="49.44931" lon="1.32732">
        <ele>145</ele>
        <time>2017-03-28T16:49:06Z</time>
      </trkpt>
      <trkpt lat="49.44931" lon="1.32726">
        <ele>145</ele>
        <time>2017-03-28T16:49:06Z</time>
      </trkpt>
      <trkpt lat="49.4493" lon="1.32718">
        <ele>145</ele>
        <time>2017-03-28T16:49:06Z</time>
      </trkpt>
      <trkpt lat="49.44929" lon="1.32712">
        <ele>145</ele>
        <time>2017-03-28T16:49:30Z</time>
      </trkpt>
      <trkpt lat="49.44931" lon="1.32703">
        <ele>145</ele>
        <time>2017-03-28T16:49:30Z</time>
      </trkpt>
      <trkpt lat="49.44929" lon="1.32691">
        <ele>145</ele>
        <time>2017-03-28T16:49:30Z</time>
      </trkpt>
      <trkpt lat="49.44929" lon="1.3269">
        <ele>145</ele>
        <time>2017-03-28T16:49:30Z</time>
      </trkpt>
      <trkpt lat="49.44931" lon="1.32689">
        <ele>145</ele>
        <time>2017-03-28T16:49:46Z</time>
      </trkpt>
      <trkpt lat="49.44937" lon="1.3266">
        <ele>145</ele>
        <time>2017-03-28T16:49:46Z</time>
      </trkpt>
      <trkpt lat="49.44937" lon="1.32653">
        <ele>145</ele>
        <time>2017-03-28T16:49:46Z</time>
      </trkpt>
      <trkpt lat="49.44935" lon="1.32647">
        <ele>145</ele>
        <time>2017-03-28T16:49:46Z</time>
      </trkpt>
      <trkpt lat="49.44937" lon="1.32641">
        <ele>145</ele>
        <time>2017-03-28T16:50:02Z</time>
      </trkpt>
      <trkpt lat="49.44936" lon="1.32634">
        <ele>145</ele>
        <time>2017-03-28T16:50:02Z</time>
      </trkpt>
      <trkpt lat="49.44936" lon="1.32626">
        <ele>145</ele>
        <time>2017-03-28T16:50:02Z</time>
      </trkpt>
      <trkpt lat="49.44938" lon="1.32617">
        <ele>145</ele>
        <time>2017-03-28T16:50:02Z</time>
      </trkpt>
      <trkpt lat="49.44939" lon="1.32612">
        <ele>145</ele>
        <time>2017-03-28T16:50:20Z</time>
      </trkpt>
      <trkpt lat="49.4494" lon="1.32603">
        <ele>145</ele>
        <time>2017-03-28T16:50:20Z</time>
      </trkpt>
      <trkpt lat="49.44942" lon="1.32596">
        <ele>145</ele>
        <time>2017-03-28T16:50:20Z</time>
      </trkpt>
      <trkpt lat="49.44942" lon="1.32587">
        <ele>145</ele>
        <time>2017-03-28T16:50:20Z</time>
      </trkpt>
      <trkpt lat="49.44943" lon="1.32582">
        <ele>145</ele>
        <time>2017-03-28T16:50:36Z</time>
      </trkpt>
      <trkpt lat="49.44944" lon="1.32572">
        <ele>145</ele>
        <time>2017-03-28T16:50:36Z</time>
      </trkpt>
      <trkpt lat="49.44945" lon="1.32565">
        <ele>145</ele>
        <time>2017-03-28T16:50:36Z</time>
      </trkpt>
      <trkpt lat="49.44946" lon="1.32552">
        <ele>145</ele>
        <time>2017-03-28T16:50:36Z</time>
      </trkpt>
      <trkpt lat="49.44947" lon="1.32546">
        <ele>145</ele>
        <time>2017-03-28T16:50:50Z</time>
      </trkpt>
      <trkpt lat="49.44948" lon="1.32536">
        <ele>144</ele>
        <time>2017-03-28T16:50:50Z</time>
      </trkpt>
      <trkpt lat="49.44949" lon="1.32528">
        <ele>144</ele>
        <time>2017-03-28T16:50:50Z</time>
      </trkpt>
      <trkpt lat="49.44949" lon="1.32521">
        <ele>144</ele>
        <time>2017-03-28T16:50:50Z</time>
      </trkpt>
      <trkpt lat="49.44949" lon="1.32512">
        <ele>144</ele>
        <time>2017-03-28T16:51:08Z</time>
      </trkpt>
      <trkpt lat="49.4495" lon="1.32507">
        <ele>144</ele>
        <time>2017-03-28T16:51:08Z</time>
      </trkpt>
      <trkpt lat="49.44952" lon="1.32497">
        <ele>144</ele>
        <time>2017-03-28T16:51:08Z</time>
      </trkpt>
      <trkpt lat="49.44952" lon="1.32491">
        <ele>144</ele>
        <time>2017-03-28T16:51:08Z</time>
      </trkpt>
      <trkpt lat="49.44953" lon="1.32484">
        <ele>144</ele>
        <time>2017-03-28T16:51:23Z</time>
      </trkpt>
      <trkpt lat="49.44955" lon="1.32474">
        <ele>144</ele>
        <time>2017-03-28T16:51:23Z</time>
      </trkpt>
      <trkpt lat="49.44955" lon="1.32469">
        <ele>144</ele>
        <time>2017-03-28T16:51:23Z</time>
      </trkpt>
      <trkpt lat="49.44956" lon="1.3246">
        <ele>144</ele>
        <time>2017-03-28T16:51:23Z</time>
      </trkpt>
      <trkpt lat="49.44957" lon="1.32451">
        <ele>143</ele>
        <time>2017-03-28T16:51:39Z</time>
      </trkpt>
      <trkpt lat="49.44957" lon="1.32446">
        <ele>143</ele>
        <time>2017-03-28T16:51:39Z</time>
      </trkpt>
      <trkpt lat="49.44959" lon="1.32437">
        <ele>145</ele>
        <time>2017-03-28T16:51:39Z</time>
      </trkpt>
      <trkpt lat="49.44961" lon="1.32429">
        <ele>145</ele>
        <time>2017-03-28T16:51:39Z</time>
      </trkpt>
      <trkpt lat="49.44962" lon="1.32422">
        <ele>145</ele>
        <time>2017-03-28T16:51:54Z</time>
      </trkpt>
      <trkpt lat="49.44963" lon="1.32414">
        <ele>145</ele>
        <time>2017-03-28T16:51:54Z</time>
      </trkpt>
      <trkpt lat="49.44964" lon="1.32406">
        <ele>145</ele>
        <time>2017-03-28T16:51:54Z</time>
      </trkpt>
      <trkpt lat="49.44966" lon="1.32404">
        <ele>145</ele>
        <time>2017-03-28T16:51:54Z</time>
      </trkpt>
      <trkpt lat="49.44968" lon="1.32394">
        <ele>145</ele>
        <time>2017-03-28T16:52:10Z</time>
      </trkpt>
      <trkpt lat="49.4497" lon="1.3239">
        <ele>145</ele>
        <time>2017-03-28T16:52:10Z</time>
      </trkpt>
      <trkpt lat="49.44971" lon="1.32383">
        <ele>145</ele>
        <time>2017-03-28T16:52:10Z</time>
      </trkpt>
      <trkpt lat="49.44972" lon="1.32376">
        <ele>145</ele>
        <time>2017-03-28T16:52:10Z</time>
      </trkpt>
      <trkpt lat="49.44972" lon="1.32367">
        <ele>145</ele>
        <time>2017-03-28T16:52:27Z</time>
      </trkpt>
      <trkpt lat="49.44972" lon="1.32359">
        <ele>145</ele>
        <time>2017-03-28T16:52:28Z</time>
      </trkpt>
      <trkpt lat="49.44972" lon="1.32354">
        <ele>145</ele>
        <time>2017-03-28T16:52:28Z</time>
      </trkpt>
      <trkpt lat="49.4497" lon="1.32348">
        <ele>145</ele>
        <time>2017-03-28T16:52:28Z</time>
      </trkpt>
      <trkpt lat="49.4497" lon="1.32343">
        <ele>145</ele>
        <time>2017-03-28T16:52:43Z</time>
      </trkpt>
      <trkpt lat="49.44973" lon="1.32333">
        <ele>145</ele>
        <time>2017-03-28T16:52:43Z</time>
      </trkpt>
      <trkpt lat="49.44975" lon="1.32327">
        <ele>145</ele>
        <time>2017-03-28T16:52:43Z</time>
      </trkpt>
      <trkpt lat="49.44976" lon="1.3232">
        <ele>145</ele>
        <time>2017-03-28T16:52:43Z</time>
      </trkpt>
      <trkpt lat="49.44976" lon="1.32311">
        <ele>145</ele>
        <time>2017-03-28T16:52:59Z</time>
      </trkpt>
      <trkpt lat="49.44975" lon="1.32305">
        <ele>145</ele>
        <time>2017-03-28T16:52:59Z</time>
      </trkpt>
      <trkpt lat="49.44974" lon="1.32296">
        <ele>145</ele>
        <time>2017-03-28T16:52:59Z</time>
      </trkpt>
      <trkpt lat="49.44974" lon="1.32289">
        <ele>144</ele>
        <time>2017-03-28T16:52:59Z</time>
      </trkpt>
      <trkpt lat="49.44974" lon="1.32282">
        <ele>144</ele>
        <time>2017-03-28T16:53:14Z</time>
      </trkpt>
      <trkpt lat="49.44975" lon="1.32276">
        <ele>144</ele>
        <time>2017-03-28T16:53:14Z</time>
      </trkpt>
      <trkpt lat="49.44975" lon="1.32269">
        <ele>144</ele>
        <time>2017-03-28T16:53:14Z</time>
      </trkpt>
      <trkpt lat="49.44974" lon="1.32259">
        <ele>144</ele>
        <time>2017-03-28T16:53:14Z</time>
      </trkpt>
      <trkpt lat="49.44975" lon="1.32253">
        <ele>144</ele>
        <time>2017-03-28T16:53:30Z</time>
      </trkpt>
      <trkpt lat="49.44976" lon="1.32245">
        <ele>144</ele>
        <time>2017-03-28T16:53:30Z</time>
      </trkpt>
      <trkpt lat="49.44976" lon="1.32237">
        <ele>144</ele>
        <time>2017-03-28T16:53:30Z</time>
      </trkpt>
      <trkpt lat="49.44976" lon="1.32228">
        <ele>144</ele>
        <time>2017-03-28T16:53:30Z</time>
      </trkpt>
      <trkpt lat="49.44977" lon="1.32221">
        <ele>144</ele>
        <time>2017-03-28T16:53:46Z</time>
      </trkpt>
      <trkpt lat="49.44977" lon="1.32212">
        <ele>144</ele>
        <time>2017-03-28T16:53:46Z</time>
      </trkpt>
      <trkpt lat="49.44977" lon="1.32206">
        <ele>144</ele>
        <time>2017-03-28T16:53:46Z</time>
      </trkpt>
      <trkpt lat="49.44977" lon="1.32199">
        <ele>144</ele>
        <time>2017-03-28T16:53:46Z</time>
      </trkpt>
      <trkpt lat="49.44977" lon="1.32191">
        <ele>144</ele>
        <time>2017-03-28T16:54:02Z</time>
      </trkpt>
      <trkpt lat="49.44977" lon="1.32185">
        <ele>144</ele>
        <time>2017-03-28T16:54:02Z</time>
      </trkpt>
      <trkpt lat="49.44976" lon="1.32178">
        <ele>144</ele>
        <time>2017-03-28T16:54:02Z</time>
      </trkpt>
      <trkpt lat="49.44977" lon="1.32172">
        <ele>144</ele>
        <time>2017-03-28T16:54:02Z</time>
      </trkpt>
      <trkpt lat="49.44978" lon="1.32165">
        <ele>144</ele>
        <time>2017-03-28T16:54:19Z</time>
      </trkpt>
      <trkpt lat="49.44977" lon="1.32158">
        <ele>144</ele>
        <time>2017-03-28T16:54:19Z</time>
      </trkpt>
      <trkpt lat="49.44977" lon="1.3215">
        <ele>144</ele>
        <time>2017-03-28T16:54:19Z</time>
      </trkpt>
      <trkpt lat="49.44977" lon="1.32142">
        <ele>144</ele>
        <time>2017-03-28T16:54:19Z</time>
      </trkpt>
      <trkpt lat="49.44976" lon="1.32136">
        <ele>144</ele>
        <time>2017-03-28T16:54:35Z</time>
      </trkpt>
      <trkpt lat="49.44975" lon="1.32127">
        <ele>144</ele>
        <time>2017-03-28T16:54:35Z</time>
      </trkpt>
      <trkpt lat="49.44975" lon="1.3212">
        <ele>145</ele>
        <time>2017-03-28T16:54:36Z</time>
      </trkpt>
      <trkpt lat="49.44974" lon="1.32113">
        <ele>145</ele>
        <time>2017-03-28T16:54:36Z</time>
      </trkpt>
      <trkpt lat="49.44974" lon="1.32109">
        <ele>145</ele>
        <time>2017-03-28T16:54:52Z</time>
      </trkpt>
      <trkpt lat="49.44974" lon="1.32098">
        <ele>145</ele>
        <time>2017-03-28T16:54:52Z</time>
      </trkpt>
      <trkpt lat="49.44973" lon="1.32092">
        <ele>145</ele>
        <time>2017-03-28T16:54:52Z</time>
      </trkpt>
      <trkpt lat="49.44972" lon="1.32084">
        <ele>145</ele>
        <time>2017-03-28T16:54:52Z</time>
      </trkpt>
      <trkpt lat="49.44971" lon="1.32076">
        <ele>145</ele>
        <time>2017-03-28T16:55:07Z</time>
      </trkpt>
      <trkpt lat="49.4497" lon="1.32068">
        <ele>145</ele>
        <time>2017-03-28T16:55:07Z</time>
      </trkpt>
      <trkpt lat="49.4497" lon="1.32057">
        <ele>145</ele>
        <time>2017-03-28T16:55:07Z</time>
      </trkpt>
      <trkpt lat="49.44969" lon="1.32051">
        <ele>145</ele>
        <time>2017-03-28T16:55:07Z</time>
      </trkpt>
      <trkpt lat="49.44969" lon="1.32041">
        <ele>147</ele>
        <time>2017-03-28T16:55:24Z</time>
      </trkpt>
      <trkpt lat="49.44969" lon="1.32032">
        <ele>147</ele>
        <time>2017-03-28T16:55:24Z</time>
      </trkpt>
      <trkpt lat="49.44969" lon="1.32026">
        <ele>147</ele>
        <time>2017-03-28T16:55:24Z</time>
      </trkpt>
      <trkpt lat="49.44969" lon="1.32019">
        <ele>147</ele>
        <time>2017-03-28T16:55:24Z</time>
      </trkpt>
      <trkpt lat="49.44969" lon="1.32016">
        <ele>147</ele>
        <time>2017-03-28T16:55:38Z</time>
      </trkpt>
      <trkpt lat="49.44967" lon="1.32006">
        <ele>147</ele>
        <time>2017-03-28T16:55:38Z</time>
      </trkpt>
      <trkpt lat="49.44966" lon="1.32">
        <ele>147</ele>
        <time>2017-03-28T16:55:38Z</time>
      </trkpt>
      <trkpt lat="49.44965" lon="1.31993">
        <ele>147</ele>
        <time>2017-03-28T16:55:38Z</time>
      </trkpt>
      <trkpt lat="49.44964" lon="1.31985">
        <ele>147</ele>
        <time>2017-03-28T16:55:56Z</time>
      </trkpt>
      <trkpt lat="49.44963" lon="1.31973">
        <ele>147</ele>
        <time>2017-03-28T16:55:56Z</time>
      </trkpt>
      <trkpt lat="49.44963" lon="1.31969">
        <ele>147</ele>
        <time>2017-03-28T16:55:56Z</time>
      </trkpt>
      <trkpt lat="49.44963" lon="1.31958">
        <ele>147</ele>
        <time>2017-03-28T16:55:56Z</time>
      </trkpt>
      <trkpt lat="49.44963" lon="1.31954">
        <ele>147</ele>
        <time>2017-03-28T16:56:12Z</time>
      </trkpt>
      <trkpt lat="49.44964" lon="1.31945">
        <ele>147</ele>
        <time>2017-03-28T16:56:12Z</time>
      </trkpt>
      <trkpt lat="49.44964" lon="1.31939">
        <ele>147</ele>
        <time>2017-03-28T16:56:12Z</time>
      </trkpt>
      <trkpt lat="49.44964" lon="1.3193">
        <ele>147</ele>
        <time>2017-03-28T16:56:12Z</time>
      </trkpt>
      <trkpt lat="49.44964" lon="1.31923">
        <ele>147</ele>
        <time>2017-03-28T16:56:27Z</time>
      </trkpt>
      <trkpt lat="49.44965" lon="1.31913">
        <ele>147</ele>
        <time>2017-03-28T16:56:27Z</time>
      </trkpt>
      <trkpt lat="49.44965" lon="1.31907">
        <ele>147</ele>
        <time>2017-03-28T16:56:27Z</time>
      </trkpt>
      <trkpt lat="49.44966" lon="1.31897">
        <ele>147</ele>
        <time>2017-03-28T16:56:28Z</time>
      </trkpt>
      <trkpt lat="49.44967" lon="1.3189">
        <ele>147</ele>
        <time>2017-03-28T16:56:43Z</time>
      </trkpt>
      <trkpt lat="49.44968" lon="1.31881">
        <ele>147</ele>
        <time>2017-03-28T16:56:43Z</time>
      </trkpt>
      <trkpt lat="49.44968" lon="1.31874">
        <ele>146</ele>
        <time>2017-03-28T16:56:43Z</time>
      </trkpt>
      <trkpt lat="49.44968" lon="1.31865">
        <ele>146</ele>
        <time>2017-03-28T16:56:43Z</time>
      </trkpt>
      <trkpt lat="49.44969" lon="1.31859">
        <ele>146</ele>
        <time>2017-03-28T16:56:58Z</time>
      </trkpt>
      <trkpt lat="49.44968" lon="1.31851">
        <ele>146</ele>
        <time>2017-03-28T16:56:58Z</time>
      </trkpt>
      <trkpt lat="49.44967" lon="1.31843">
        <ele>146</ele>
        <time>2017-03-28T16:56:58Z</time>
      </trkpt>
      <trkpt lat="49.44966" lon="1.31837">
        <ele>146</ele>
        <time>2017-03-28T16:56:58Z</time>
      </trkpt>
      <trkpt lat="49.44966" lon="1.31829">
        <ele>146</ele>
        <time>2017-03-28T16:57:14Z</time>
      </trkpt>
      <trkpt lat="49.44967" lon="1.31823">
        <ele>146</ele>
        <time>2017-03-28T16:57:14Z</time>
      </trkpt>
      <trkpt lat="49.44967" lon="1.31816">
        <ele>146</ele>
        <time>2017-03-28T16:57:14Z</time>
      </trkpt>
      <trkpt lat="49.44967" lon="1.31808">
        <ele>146</ele>
        <time>2017-03-28T16:57:14Z</time>
      </trkpt>
      <trkpt lat="49.44969" lon="1.31799">
        <ele>146</ele>
        <time>2017-03-28T16:57:31Z</time>
      </trkpt>
      <trkpt lat="49.4497" lon="1.31791">
        <ele>146</ele>
        <time>2017-03-28T16:57:31Z</time>
      </trkpt>
      <trkpt lat="49.44969" lon="1.31782">
        <ele>146</ele>
        <time>2017-03-28T16:57:31Z</time>
      </trkpt>
      <trkpt lat="49.44969" lon="1.31776">
        <ele>146</ele>
        <time>2017-03-28T16:57:31Z</time>
      </trkpt>
      <trkpt lat="49.44971" lon="1.31767">
        <ele>146</ele>
        <time>2017-03-28T16:57:47Z</time>
      </trkpt>
      <trkpt lat="49.44971" lon="1.31761">
        <ele>146</ele>
        <time>2017-03-28T16:57:47Z</time>
      </trkpt>
      <trkpt lat="49.44971" lon="1.31752">
        <ele>146</ele>
        <time>2017-03-28T16:57:47Z</time>
      </trkpt>
      <trkpt lat="49.44972" lon="1.31745">
        <ele>146</ele>
        <time>2017-03-28T16:57:47Z</time>
      </trkpt>
      <trkpt lat="49.44973" lon="1.31735">
        <ele>146</ele>
        <time>2017-03-28T16:58:04Z</time>
      </trkpt>
      <trkpt lat="49.44974" lon="1.31727">
        <ele>146</ele>
        <time>2017-03-28T16:58:04Z</time>
      </trkpt>
      <trkpt lat="49.44976" lon="1.31719">
        <ele>146</ele>
        <time>2017-03-28T16:58:04Z</time>
      </trkpt>
      <trkpt lat="49.44976" lon="1.31712">
        <ele>146</ele>
        <time>2017-03-28T16:58:04Z</time>
      </trkpt>
      <trkpt lat="49.44976" lon="1.31706">
        <ele>146</ele>
        <time>2017-03-28T16:58:20Z</time>
      </trkpt>
      <trkpt lat="49.44977" lon="1.31699">
        <ele>146</ele>
        <time>2017-03-28T16:58:20Z</time>
      </trkpt>
      <trkpt lat="49.44978" lon="1.31693">
        <ele>146</ele>
        <time>2017-03-28T16:58:20Z</time>
      </trkpt>
      <trkpt lat="49.4498" lon="1.31681">
        <ele>146</ele>
        <time>2017-03-28T16:58:20Z</time>
      </trkpt>
      <trkpt lat="49.44981" lon="1.31676">
        <ele>146</ele>
        <time>2017-03-28T16:58:34Z</time>
      </trkpt>
      <trkpt lat="49.44982" lon="1.31667">
        <ele>146</ele>
        <time>2017-03-28T16:58:34Z</time>
      </trkpt>
      <trkpt lat="49.44982" lon="1.31663">
        <ele>146</ele>
        <time>2017-03-28T16:58:34Z</time>
      </trkpt>
      <trkpt lat="49.44983" lon="1.3166">
        <ele>146</ele>
        <time>2017-03-28T16:58:34Z</time>
      </trkpt>
      <trkpt lat="49.44986" lon="1.31655">
        <ele>146</ele>
        <time>2017-03-28T16:58:58Z</time>
      </trkpt>
      <trkpt lat="49.44985" lon="1.31655">
        <ele>146</ele>
        <time>2017-03-28T16:58:58Z</time>
      </trkpt>
      <trkpt lat="49.44987" lon="1.3165">
        <ele>146</ele>
        <time>2017-03-28T16:58:58Z</time>
      </trkpt>
      <trkpt lat="49.44989" lon="1.31643">
        <ele>146</ele>
        <time>2017-03-28T16:58:58Z</time>
      </trkpt>
      <trkpt lat="49.44991" lon="1.31638">
        <ele>146</ele>
        <time>2017-03-28T16:58:58Z</time>
      </trkpt>
      <trkpt lat="49.44993" lon="1.31633">
        <ele>146</ele>
        <time>2017-03-28T16:59:15Z</time>
      </trkpt>
      <trkpt lat="49.44994" lon="1.31627">
        <ele>146</ele>
        <time>2017-03-28T16:59:15Z</time>
      </trkpt>
      <trkpt lat="49.44994" lon="1.31621">
        <ele>144</ele>
        <time>2017-03-28T16:59:15Z</time>
      </trkpt>
      <trkpt lat="49.44992" lon="1.31614">
        <ele>144</ele>
        <time>2017-03-28T16:59:15Z</time>
      </trkpt>
      <trkpt lat="49.44993" lon="1.31607">
        <ele>144</ele>
        <time>2017-03-28T16:59:32Z</time>
      </trkpt>
      <trkpt lat="49.44994" lon="1.31601">
        <ele>144</ele>
        <time>2017-03-28T16:59:32Z</time>
      </trkpt>
      <trkpt lat="49.44996" lon="1.31593">
        <ele>144</ele>
        <time>2017-03-28T16:59:32Z</time>
      </trkpt>
      <trkpt lat="49.44996" lon="1.31587">
        <ele>144</ele>
        <time>2017-03-28T16:59:32Z</time>
      </trkpt>
      <trkpt lat="49.44996" lon="1.31581">
        <ele>144</ele>
        <time>2017-03-28T16:59:46Z</time>
      </trkpt>
      <trkpt lat="49.44997" lon="1.31574">
        <ele>144</ele>
        <time>2017-03-28T16:59:46Z</time>
      </trkpt>
      <trkpt lat="49.44998" lon="1.31566">
        <ele>144</ele>
        <time>2017-03-28T16:59:46Z</time>
      </trkpt>
      <trkpt lat="49.45" lon="1.31559">
        <ele>144</ele>
        <time>2017-03-28T16:59:46Z</time>
      </trkpt>
      <trkpt lat="49.45001" lon="1.31551">
        <ele>144</ele>
        <time>2017-03-28T17:00:03Z</time>
      </trkpt>
      <trkpt lat="49.45001" lon="1.31544">
        <ele>144</ele>
        <time>2017-03-28T17:00:03Z</time>
      </trkpt>
      <trkpt lat="49.45001" lon="1.31538">
        <ele>143</ele>
        <time>2017-03-28T17:00:03Z</time>
      </trkpt>
      <trkpt lat="49.45003" lon="1.31528">
        <ele>143</ele>
        <time>2017-03-28T17:00:03Z</time>
      </trkpt>
      <trkpt lat="49.45004" lon="1.31522">
        <ele>143</ele>
        <time>2017-03-28T17:00:18Z</time>
      </trkpt>
      <trkpt lat="49.45005" lon="1.31515">
        <ele>143</ele>
        <time>2017-03-28T17:00:18Z</time>
      </trkpt>
      <trkpt lat="49.45007" lon="1.31508">
        <ele>143</ele>
        <time>2017-03-28T17:00:18Z</time>
      </trkpt>
      <trkpt lat="49.45008" lon="1.31501">
        <ele>143</ele>
        <time>2017-03-28T17:00:18Z</time>
      </trkpt>
      <trkpt lat="49.4501" lon="1.31494">
        <ele>143</ele>
        <time>2017-03-28T17:00:34Z</time>
      </trkpt>
      <trkpt lat="49.45011" lon="1.31487">
        <ele>143</ele>
        <time>2017-03-28T17:00:34Z</time>
      </trkpt>
      <trkpt lat="49.45013" lon="1.3148">
        <ele>143</ele>
        <time>2017-03-28T17:00:34Z</time>
      </trkpt>
      <trkpt lat="49.45014" lon="1.31475">
        <ele>143</ele>
        <time>2017-03-28T17:00:34Z</time>
      </trkpt>
      <trkpt lat="49.45014" lon="1.31468">
        <ele>143</ele>
        <time>2017-03-28T17:00:50Z</time>
      </trkpt>
      <trkpt lat="49.45014" lon="1.31461">
        <ele>143</ele>
        <time>2017-03-28T17:00:50Z</time>
      </trkpt>
      <trkpt lat="49.45012" lon="1.31455">
        <ele>140</ele>
        <time>2017-03-28T17:00:50Z</time>
      </trkpt>
      <trkpt lat="49.45014" lon="1.3145">
        <ele>140</ele>
        <time>2017-03-28T17:00:50Z</time>
      </trkpt>
      <trkpt lat="49.4501" lon="1.31446">
        <ele>140</ele>
        <time>2017-03-28T17:03:07Z</time>
      </trkpt>
      <trkpt lat="49.45008" lon="1.31444">
        <ele>140</ele>
        <time>2017-03-28T17:03:07Z</time>
      </trkpt>
      <trkpt lat="49.45007" lon="1.31442">
        <ele>140</ele>
        <time>2017-03-28T17:03:07Z</time>
      </trkpt>
      <trkpt lat="49.45004" lon="1.31437">
        <ele>140</ele>
        <time>2017-03-28T17:03:07Z</time>
      </trkpt>
      <trkpt lat="49.45002" lon="1.31433">
        <ele>140</ele>
        <time>2017-03-28T17:03:07Z</time>
      </trkpt>
      <trkpt lat="49.45001" lon="1.31426">
        <ele>140</ele>
        <time>2017-03-28T17:03:23Z</time>
      </trkpt>
      <trkpt lat="49.44999" lon="1.31423">
        <ele>140</ele>
        <time>2017-03-28T17:03:23Z</time>
      </trkpt>
      <trkpt lat="49.44996" lon="1.31416">
        <ele>140</ele>
        <time>2017-03-28T17:03:23Z</time>
      </trkpt>
      <trkpt lat="49.44994" lon="1.31411">
        <ele>140</ele>
        <time>2017-03-28T17:03:23Z</time>
      </trkpt>
      <trkpt lat="49.44993" lon="1.31403">
        <ele>140</ele>
        <time>2017-03-28T17:03:38Z</time>
      </trkpt>
      <trkpt lat="49.44988" lon="1.31397">
        <ele>140</ele>
        <time>2017-03-28T17:03:38Z</time>
      </trkpt>
      <trkpt lat="49.44985" lon="1.31393">
        <ele>140</ele>
        <time>2017-03-28T17:03:38Z</time>
      </trkpt>
      <trkpt lat="49.44982" lon="1.31391">
        <ele>140</ele>
        <time>2017-03-28T17:03:38Z</time>
      </trkpt>
      <trkpt lat="49.44979" lon="1.31389">
        <ele>140</ele>
        <time>2017-03-28T17:03:56Z</time>
      </trkpt>
      <trkpt lat="49.44974" lon="1.31387">
        <ele>140</ele>
        <time>2017-03-28T17:03:56Z</time>
      </trkpt>
      <trkpt lat="49.4497" lon="1.31383">
        <ele>140</ele>
        <time>2017-03-28T17:03:56Z</time>
      </trkpt>
      <trkpt lat="49.44968" lon="1.31382">
        <ele>140</ele>
        <time>2017-03-28T17:03:56Z</time>
      </trkpt>
      <trkpt lat="49.44965" lon="1.3138">
        <ele>140</ele>
        <time>2017-03-28T17:04:10Z</time>
      </trkpt>
      <trkpt lat="49.4496" lon="1.31382">
        <ele>140</ele>
        <time>2017-03-28T17:04:10Z</time>
      </trkpt>
      <trkpt lat="49.44957" lon="1.31383">
        <ele>138</ele>
        <time>2017-03-28T17:04:10Z</time>
      </trkpt>
      <trkpt lat="49.44952" lon="1.31383">
        <ele>138</ele>
        <time>2017-03-28T17:04:10Z</time>
      </trkpt>
      <trkpt lat="49.44948" lon="1.31383">
        <ele>138</ele>
        <time>2017-03-28T17:04:27Z</time>
      </trkpt>
      <trkpt lat="49.44944" lon="1.31378">
        <ele>138</ele>
        <time>2017-03-28T17:04:27Z</time>
      </trkpt>
      <trkpt lat="49.44937" lon="1.31374">
        <ele>131</ele>
        <time>2017-03-28T17:04:27Z</time>
      </trkpt>
      <trkpt lat="49.44934" lon="1.31376">
        <ele>138</ele>
        <time>2017-03-28T17:04:27Z</time>
      </trkpt>
      <trkpt lat="49.44928" lon="1.31373">
        <ele>131</ele>
        <time>2017-03-28T17:04:43Z</time>
      </trkpt>
      <trkpt lat="49.44926" lon="1.31368">
        <ele>131</ele>
        <time>2017-03-28T17:04:43Z</time>
      </trkpt>
      <trkpt lat="49.44921" lon="1.31366">
        <ele>131</ele>
        <time>2017-03-28T17:04:43Z</time>
      </trkpt>
      <trkpt lat="49.44915" lon="1.31364">
        <ele>131</ele>
        <time>2017-03-28T17:04:43Z</time>
      </trkpt>
      <trkpt lat="49.44909" lon="1.31362">
        <ele>131</ele>
        <time>2017-03-28T17:05:00Z</time>
      </trkpt>
      <trkpt lat="49.44905" lon="1.31361">
        <ele>131</ele>
        <time>2017-03-28T17:05:00Z</time>
      </trkpt>
      <trkpt lat="49.44901" lon="1.31355">
        <ele>131</ele>
        <time>2017-03-28T17:05:00Z</time>
      </trkpt>
      <trkpt lat="49.44896" lon="1.31353">
        <ele>131</ele>
        <time>2017-03-28T17:05:00Z</time>
      </trkpt>
      <trkpt lat="49.44892" lon="1.31352">
        <ele>131</ele>
        <time>2017-03-28T17:05:15Z</time>
      </trkpt>
      <trkpt lat="49.44886" lon="1.31347">
        <ele>131</ele>
        <time>2017-03-28T17:05:15Z</time>
      </trkpt>
      <trkpt lat="49.44882" lon="1.31345">
        <ele>131</ele>
        <time>2017-03-28T17:05:15Z</time>
      </trkpt>
      <trkpt lat="49.44876" lon="1.31343">
        <ele>131</ele>
        <time>2017-03-28T17:05:15Z</time>
      </trkpt>
      <trkpt lat="49.44868" lon="1.31339">
        <ele>129</ele>
        <time>2017-03-28T17:05:32Z</time>
      </trkpt>
      <trkpt lat="49.44865" lon="1.31336">
        <ele>129</ele>
        <time>2017-03-28T17:05:32Z</time>
      </trkpt>
      <trkpt lat="49.44858" lon="1.31332">
        <ele>129</ele>
        <time>2017-03-28T17:05:32Z</time>
      </trkpt>
      <trkpt lat="49.44852" lon="1.3133">
        <ele>129</ele>
        <time>2017-03-28T17:05:32Z</time>
      </trkpt>
      <trkpt lat="49.44849" lon="1.31328">
        <ele>129</ele>
        <time>2017-03-28T17:05:47Z</time>
      </trkpt>
      <trkpt lat="49.44845" lon="1.3133">
        <ele>129</ele>
        <time>2017-03-28T17:05:47Z</time>
      </trkpt>
      <trkpt lat="49.44837" lon="1.31331">
        <ele>129</ele>
        <time>2017-03-28T17:05:47Z</time>
      </trkpt>
      <trkpt lat="49.44833" lon="1.31326">
        <ele>129</ele>
        <time>2017-03-28T17:05:47Z</time>
      </trkpt>
      <trkpt lat="49.4483" lon="1.31322">
        <ele>129</ele>
        <time>2017-03-28T17:06:02Z</time>
      </trkpt>
      <trkpt lat="49.44827" lon="1.3132">
        <ele>129</ele>
        <time>2017-03-28T17:06:02Z</time>
      </trkpt>
      <trkpt lat="49.44822" lon="1.31316">
        <ele>129</ele>
        <time>2017-03-28T17:06:02Z</time>
      </trkpt>
      <trkpt lat="49.44819" lon="1.31316">
        <ele>129</ele>
        <time>2017-03-28T17:06:02Z</time>
      </trkpt>
      <trkpt lat="49.44817" lon="1.31319">
        <ele>129</ele>
        <time>2017-03-28T17:07:27Z</time>
      </trkpt>
      <trkpt lat="49.44817" lon="1.31313">
        <ele>129</ele>
        <time>2017-03-28T17:07:27Z</time>
      </trkpt>
      <trkpt lat="49.44813" lon="1.31309">
        <ele>129</ele>
        <time>2017-03-28T17:07:27Z</time>
      </trkpt>
      <trkpt lat="49.44807" lon="1.31308">
        <ele>129</ele>
        <time>2017-03-28T17:07:27Z</time>
      </trkpt>
      <trkpt lat="49.44804" lon="1.31306">
        <ele>129</ele>
        <time>2017-03-28T17:07:27Z</time>
      </trkpt>
      <trkpt lat="49.44799" lon="1.31301">
        <ele>129</ele>
        <time>2017-03-28T17:07:43Z</time>
      </trkpt>
      <trkpt lat="49.44795" lon="1.313">
        <ele>129</ele>
        <time>2017-03-28T17:07:43Z</time>
      </trkpt>
      <trkpt lat="49.4479" lon="1.31299">
        <ele>132</ele>
        <time>2017-03-28T17:07:43Z</time>
      </trkpt>
      <trkpt lat="49.44784" lon="1.31297">
        <ele>132</ele>
        <time>2017-03-28T17:07:43Z</time>
      </trkpt>
      <trkpt lat="49.44778" lon="1.31296">
        <ele>132</ele>
        <time>2017-03-28T17:07:58Z</time>
      </trkpt>
      <trkpt lat="49.44773" lon="1.31294">
        <ele>132</ele>
        <time>2017-03-28T17:07:58Z</time>
      </trkpt>
      <trkpt lat="49.44768" lon="1.31293">
        <ele>132</ele>
        <time>2017-03-28T17:07:58Z</time>
      </trkpt>
      <trkpt lat="49.44763" lon="1.31293">
        <ele>132</ele>
        <time>2017-03-28T17:07:58Z</time>
      </trkpt>
      <trkpt lat="49.4476" lon="1.31292">
        <ele>127</ele>
        <time>2017-03-28T17:08:18Z</time>
      </trkpt>
      <trkpt lat="49.44742" lon="1.31286">
        <ele>127</ele>
        <time>2017-03-28T17:08:18Z</time>
      </trkpt>
      <trkpt lat="49.44741" lon="1.31284">
        <ele>127</ele>
        <time>2017-03-28T17:08:18Z</time>
      </trkpt>
      <trkpt lat="49.44741" lon="1.31285">
        <ele>127</ele>
        <time>2017-03-28T17:08:18Z</time>
      </trkpt>
      <trkpt lat="49.4474" lon="1.31284">
        <ele>127</ele>
        <time>2017-03-28T17:08:34Z</time>
      </trkpt>
      <trkpt lat="49.44738" lon="1.31288">
        <ele>127</ele>
        <time>2017-03-28T17:08:34Z</time>
      </trkpt>
      <trkpt lat="49.44731" lon="1.31289">
        <ele>127</ele>
        <time>2017-03-28T17:08:34Z</time>
      </trkpt>
      <trkpt lat="49.4473" lon="1.31289">
        <ele>127</ele>
        <time>2017-03-28T17:08:34Z</time>
      </trkpt>
      <trkpt lat="49.4472" lon="1.31284">
        <ele>127</ele>
        <time>2017-03-28T17:08:50Z</time>
      </trkpt>
      <trkpt lat="49.4471" lon="1.31282">
        <ele>127</ele>
        <time>2017-03-28T17:08:50Z</time>
      </trkpt>
      <trkpt lat="49.44703" lon="1.31282">
        <ele>126</ele>
        <time>2017-03-28T17:08:50Z</time>
      </trkpt>
      <trkpt lat="49.44694" lon="1.31281">
        <ele>126</ele>
        <time>2017-03-28T17:08:50Z</time>
      </trkpt>
      <trkpt lat="49.44686" lon="1.31274">
        <ele>126</ele>
        <time>2017-03-28T17:09:06Z</time>
      </trkpt>
      <trkpt lat="49.4468" lon="1.31268">
        <ele>126</ele>
        <time>2017-03-28T17:09:06Z</time>
      </trkpt>
      <trkpt lat="49.44676" lon="1.31266">
        <ele>126</ele>
        <time>2017-03-28T17:09:06Z</time>
      </trkpt>
      <trkpt lat="49.44671" lon="1.31263">
        <ele>126</ele>
        <time>2017-03-28T17:09:06Z</time>
      </trkpt>
      <trkpt lat="49.44664" lon="1.31257">
        <ele>126</ele>
        <time>2017-03-28T17:09:22Z</time>
      </trkpt>
      <trkpt lat="49.44658" lon="1.31256">
        <ele>126</ele>
        <time>2017-03-28T17:09:22Z</time>
      </trkpt>
      <trkpt lat="49.44654" lon="1.31256">
        <ele>126</ele>
        <time>2017-03-28T17:09:22Z</time>
      </trkpt>
      <trkpt lat="49.44649" lon="1.31255">
        <ele>126</ele>
        <time>2017-03-28T17:09:22Z</time>
      </trkpt>
      <trkpt lat="49.44644" lon="1.31254">
        <ele>126</ele>
        <time>2017-03-28T17:09:38Z</time>
      </trkpt>
      <trkpt lat="49.4464" lon="1.31254">
        <ele>126</ele>
        <time>2017-03-28T17:09:38Z</time>
      </trkpt>
      <trkpt lat="49.44636" lon="1.31255">
        <ele>126</ele>
        <time>2017-03-28T17:09:38Z</time>
      </trkpt>
      <trkpt lat="49.44632" lon="1.31255">
        <ele>126</ele>
        <time>2017-03-28T17:09:38Z</time>
      </trkpt>
      <trkpt lat="49.44627" lon="1.31256">
        <ele>126</ele>
        <time>2017-03-28T17:09:54Z</time>
      </trkpt>
      <trkpt lat="49.44623" lon="1.31257">
        <ele>123</ele>
        <time>2017-03-28T17:09:54Z</time>
      </trkpt>
      <trkpt lat="49.44618" lon="1.31259">
        <ele>123</ele>
        <time>2017-03-28T17:09:54Z</time>
      </trkpt>
      <trkpt lat="49.44614" lon="1.31261">
        <ele>123</ele>
        <time>2017-03-28T17:09:54Z</time>
      </trkpt>
      <trkpt lat="49.44609" lon="1.31262">
        <ele>123</ele>
        <time>2017-03-28T17:10:10Z</time>
      </trkpt>
      <trkpt lat="49.44605" lon="1.31263">
        <ele>123</ele>
        <time>2017-03-28T17:10:10Z</time>
      </trkpt>
      <trkpt lat="49.446" lon="1.31263">
        <ele>123</ele>
        <time>2017-03-28T17:10:10Z</time>
      </trkpt>
      <trkpt lat="49.44595" lon="1.3126">
        <ele>123</ele>
        <time>2017-03-28T17:10:10Z</time>
      </trkpt>
      <trkpt lat="49.44591" lon="1.31255">
        <ele>123</ele>
        <time>2017-03-28T17:10:26Z</time>
      </trkpt>
      <trkpt lat="49.44587" lon="1.31252">
        <ele>123</ele>
        <time>2017-03-28T17:10:26Z</time>
      </trkpt>
      <trkpt lat="49.44581" lon="1.31247">
        <ele>123</ele>
        <time>2017-03-28T17:10:26Z</time>
      </trkpt>
      <trkpt lat="49.44577" lon="1.31244">
        <ele>123</ele>
        <time>2017-03-28T17:10:26Z</time>
      </trkpt>
      <trkpt lat="49.44573" lon="1.3124">
        <ele>123</ele>
        <time>2017-03-28T17:10:42Z</time>
      </trkpt>
      <trkpt lat="49.44569" lon="1.31238">
        <ele>123</ele>
        <time>2017-03-28T17:10:42Z</time>
      </trkpt>
      <trkpt lat="49.44564" lon="1.31234">
        <ele>123</ele>
        <time>2017-03-28T17:10:42Z</time>
      </trkpt>
      <trkpt lat="49.4456" lon="1.31232">
        <ele>123</ele>
        <time>2017-03-28T17:10:42Z</time>
      </trkpt>
      <trkpt lat="49.44555" lon="1.3123">
        <ele>123</ele>
        <time>2017-03-28T17:10:58Z</time>
      </trkpt>
      <trkpt lat="49.44551" lon="1.31227">
        <ele>123</ele>
        <time>2017-03-28T17:10:58Z</time>
      </trkpt>
      <trkpt lat="49.44547" lon="1.31224">
        <ele>123</ele>
        <time>2017-03-28T17:10:58Z</time>
      </trkpt>
      <trkpt lat="49.44542" lon="1.3122">
        <ele>123</ele>
        <time>2017-03-28T17:10:58Z</time>
      </trkpt>
      <trkpt lat="49.44538" lon="1.31217">
        <ele>124</ele>
        <time>2017-03-28T17:11:14Z</time>
      </trkpt>
      <trkpt lat="49.44534" lon="1.31214">
        <ele>124</ele>
        <time>2017-03-28T17:11:14Z</time>
      </trkpt>
      <trkpt lat="49.44531" lon="1.31211">
        <ele>124</ele>
        <time>2017-03-28T17:11:14Z</time>
      </trkpt>
      <trkpt lat="49.44526" lon="1.31207">
        <ele>131</ele>
        <time>2017-03-28T17:11:14Z</time>
      </trkpt>
      <trkpt lat="49.44521" lon="1.31203">
        <ele>131</ele>
        <time>2017-03-28T17:11:30Z</time>
      </trkpt>
      <trkpt lat="49.44517" lon="1.31198">
        <ele>131</ele>
        <time>2017-03-28T17:11:30Z</time>
      </trkpt>
      <trkpt lat="49.44513" lon="1.31194">
        <ele>131</ele>
        <time>2017-03-28T17:11:30Z</time>
      </trkpt>
      <trkpt lat="49.44509" lon="1.3119">
        <ele>131</ele>
        <time>2017-03-28T17:11:30Z</time>
      </trkpt>
      <trkpt lat="49.44505" lon="1.31188">
        <ele>131</ele>
        <time>2017-03-28T17:11:46Z</time>
      </trkpt>
      <trkpt lat="49.44501" lon="1.31185">
        <ele>131</ele>
        <time>2017-03-28T17:11:46Z</time>
      </trkpt>
      <trkpt lat="49.44497" lon="1.31181">
        <ele>131</ele>
        <time>2017-03-28T17:11:46Z</time>
      </trkpt>
      <trkpt lat="49.44494" lon="1.31178">
        <ele>131</ele>
        <time>2017-03-28T17:11:46Z</time>
      </trkpt>
      <trkpt lat="49.4449" lon="1.31176">
        <ele>131</ele>
        <time>2017-03-28T17:12:02Z</time>
      </trkpt>
      <trkpt lat="49.44486" lon="1.31173">
        <ele>131</ele>
        <time>2017-03-28T17:12:02Z</time>
      </trkpt>
      <trkpt lat="49.44482" lon="1.31171">
        <ele>131</ele>
        <time>2017-03-28T17:12:02Z</time>
      </trkpt>
      <trkpt lat="49.44478" lon="1.31168">
        <ele>131</ele>
        <time>2017-03-28T17:12:02Z</time>
      </trkpt>
      <trkpt lat="49.44473" lon="1.31166">
        <ele>131</ele>
        <time>2017-03-28T17:12:18Z</time>
      </trkpt>
      <trkpt lat="49.44469" lon="1.31164">
        <ele>131</ele>
        <time>2017-03-28T17:12:18Z</time>
      </trkpt>
      <trkpt lat="49.44465" lon="1.31161">
        <ele>131</ele>
        <time>2017-03-28T17:12:18Z</time>
      </trkpt>
      <trkpt lat="49.44461" lon="1.31159">
        <ele>131</ele>
        <time>2017-03-28T17:12:18Z</time>
      </trkpt>
      <trkpt lat="49.44457" lon="1.31156">
        <ele>142</ele>
        <time>2017-03-28T17:12:34Z</time>
      </trkpt>
      <trkpt lat="49.44453" lon="1.31154">
        <ele>142</ele>
        <time>2017-03-28T17:12:34Z</time>
      </trkpt>
      <trkpt lat="49.44449" lon="1.31152">
        <ele>142</ele>
        <time>2017-03-28T17:12:34Z</time>
      </trkpt>
      <trkpt lat="49.44445" lon="1.3115">
        <ele>142</ele>
        <time>2017-03-28T17:12:34Z</time>
      </trkpt>
      <trkpt lat="49.4444" lon="1.31147">
        <ele>142</ele>
        <time>2017-03-28T17:12:50Z</time>
      </trkpt>
      <trkpt lat="49.44436" lon="1.31145">
        <ele>142</ele>
        <time>2017-03-28T17:12:50Z</time>
      </trkpt>
      <trkpt lat="49.44432" lon="1.31143">
        <ele>142</ele>
        <time>2017-03-28T17:12:50Z</time>
      </trkpt>
      <trkpt lat="49.44429" lon="1.31141">
        <ele>142</ele>
        <time>2017-03-28T17:12:50Z</time>
      </trkpt>
      <trkpt lat="49.44425" lon="1.31139">
        <ele>142</ele>
        <time>2017-03-28T17:13:06Z</time>
      </trkpt>
      <trkpt lat="49.4442" lon="1.31137">
        <ele>142</ele>
        <time>2017-03-28T17:13:06Z</time>
      </trkpt>
      <trkpt lat="49.44417" lon="1.31136">
        <ele>142</ele>
        <time>2017-03-28T17:13:06Z</time>
      </trkpt>
      <trkpt lat="49.44412" lon="1.31136">
        <ele>142</ele>
        <time>2017-03-28T17:13:06Z</time>
      </trkpt>
      <trkpt lat="49.44401" lon="1.31132">
        <ele>142</ele>
        <time>2017-03-28T17:13:38Z</time>
      </trkpt>
      <trkpt lat="49.44399" lon="1.3113">
        <ele>142</ele>
        <time>2017-03-28T17:13:38Z</time>
      </trkpt>
      <trkpt lat="49.44396" lon="1.31129">
        <ele>142</ele>
        <time>2017-03-28T17:13:38Z</time>
      </trkpt>
      <trkpt lat="49.44392" lon="1.31129">
        <ele>142</ele>
        <time>2017-03-28T17:13:38Z</time>
      </trkpt>
      <trkpt lat="49.44388" lon="1.31128">
        <ele>142</ele>
        <time>2017-03-28T17:13:38Z</time>
      </trkpt>
      <trkpt lat="49.44386" lon="1.31129">
        <ele>142</ele>
        <time>2017-03-28T17:13:58Z</time>
      </trkpt>
      <trkpt lat="49.44385" lon="1.31128">
        <ele>142</ele>
        <time>2017-03-28T17:13:58Z</time>
      </trkpt>
      <trkpt lat="49.44382" lon="1.31127">
        <ele>142</ele>
        <time>2017-03-28T17:13:58Z</time>
      </trkpt>
      <trkpt lat="49.44379" lon="1.31125">
        <ele>143</ele>
        <time>2017-03-28T17:13:58Z</time>
      </trkpt>
      <trkpt lat="49.44375" lon="1.31126">
        <ele>145</ele>
        <time>2017-03-28T17:13:58Z</time>
      </trkpt>
      <trkpt lat="49.44371" lon="1.31127">
        <ele>145</ele>
        <time>2017-03-28T17:14:14Z</time>
      </trkpt>
      <trkpt lat="49.44367" lon="1.31129">
        <ele>145</ele>
        <time>2017-03-28T17:14:14Z</time>
      </trkpt>
      <trkpt lat="49.44363" lon="1.31129">
        <ele>145</ele>
        <time>2017-03-28T17:14:14Z</time>
      </trkpt>
      <trkpt lat="49.44359" lon="1.31123">
        <ele>145</ele>
        <time>2017-03-28T17:14:14Z</time>
      </trkpt>
      <trkpt lat="49.44356" lon="1.3112">
        <ele>145</ele>
        <time>2017-03-28T17:14:30Z</time>
      </trkpt>
      <trkpt lat="49.44352" lon="1.31118">
        <ele>145</ele>
        <time>2017-03-28T17:14:30Z</time>
      </trkpt>
      <trkpt lat="49.44348" lon="1.31115">
        <ele>145</ele>
        <time>2017-03-28T17:14:30Z</time>
      </trkpt>
      <trkpt lat="49.44342" lon="1.31111">
        <ele>145</ele>
        <time>2017-03-28T17:14:30Z</time>
      </trkpt>
      <trkpt lat="49.44336" lon="1.31106">
        <ele>145</ele>
        <time>2017-03-28T17:14:46Z</time>
      </trkpt>
      <trkpt lat="49.44332" lon="1.31103">
        <ele>145</ele>
        <time>2017-03-28T17:14:46Z</time>
      </trkpt>
      <trkpt lat="49.44326" lon="1.31099">
        <ele>145</ele>
        <time>2017-03-28T17:14:46Z</time>
      </trkpt>
      <trkpt lat="49.44323" lon="1.31095">
        <ele>145</ele>
        <time>2017-03-28T17:14:46Z</time>
      </trkpt>
      <trkpt lat="49.44319" lon="1.31091">
        <ele>145</ele>
        <time>2017-03-28T17:15:02Z</time>
      </trkpt>
      <trkpt lat="49.44315" lon="1.31088">
        <ele>145</ele>
        <time>2017-03-28T17:15:02Z</time>
      </trkpt>
      <trkpt lat="49.44311" lon="1.31086">
        <ele>145</ele>
        <time>2017-03-28T17:15:02Z</time>
      </trkpt>
      <trkpt lat="49.44307" lon="1.31085">
        <ele>145</ele>
        <time>2017-03-28T17:15:02Z</time>
      </trkpt>
      <trkpt lat="49.44303" lon="1.31084">
        <ele>145</ele>
        <time>2017-03-28T17:15:18Z</time>
      </trkpt>
      <trkpt lat="49.44299" lon="1.31083">
        <ele>145</ele>
        <time>2017-03-28T17:15:18Z</time>
      </trkpt>
      <trkpt lat="49.44294" lon="1.31082">
        <ele>145</ele>
        <time>2017-03-28T17:15:18Z</time>
      </trkpt>
      <trkpt lat="49.44289" lon="1.3108">
        <ele>146</ele>
        <time>2017-03-28T17:15:18Z</time>
      </trkpt>
      <trkpt lat="49.44284" lon="1.31078">
        <ele>146</ele>
        <time>2017-03-28T17:15:34Z</time>
      </trkpt>
      <trkpt lat="49.4428" lon="1.31075">
        <ele>146</ele>
        <time>2017-03-28T17:15:34Z</time>
      </trkpt>
      <trkpt lat="49.44276" lon="1.31073">
        <ele>146</ele>
        <time>2017-03-28T17:15:34Z</time>
      </trkpt>
      <trkpt lat="49.44271" lon="1.31071">
        <ele>146</ele>
        <time>2017-03-28T17:15:34Z</time>
      </trkpt>
      <trkpt lat="49.44267" lon="1.31069">
        <ele>146</ele>
        <time>2017-03-28T17:15:50Z</time>
      </trkpt>
      <trkpt lat="49.44263" lon="1.31064">
        <ele>146</ele>
        <time>2017-03-28T17:15:50Z</time>
      </trkpt>
      <trkpt lat="49.4426" lon="1.31058">
        <ele>146</ele>
        <time>2017-03-28T17:15:50Z</time>
      </trkpt>
      <trkpt lat="49.44258" lon="1.31054">
        <ele>146</ele>
        <time>2017-03-28T17:15:50Z</time>
      </trkpt>
    </trkseg>
  </trk>
</gpx>